[[{"header":{"parameterUnit":"m.s-1","parameterCategory":1,"la1":30.6,"la2":29.2853,"lo1":-89.7004,"lo2":-87.6739,"dy":0.0162,"dx":0.0183,"nx":112,"ny":82,"refTime":"2024-07-28T06:00:00:Z","depth":0,"parameterNumber":2,"parameterNumberName":"U-component_of_WINDS"},"data":[0.0,0.0,0.0,0.0,0.0,0.0,0.0,0.0,0.0,0.0,0.0,0.0,0.0,0.0,0.0,0.0,0.0,0.0,0.0,0.0,0.0,0.0,0.0,0.0,0.0,0.0,0.0,0.0,0.0,0.0,0.0,0.0,0.0,0.0,0.0,0.0,0.0,0.0,0.0,0.0,0.0,0.0,0.0,0.0,0.0,0.0,0.0,0.0,0.0,0.0,0.0,0.0,0.0,0.0,0.0,0.0,0.0,0.0,0.0,0.0,0.0,0.0,0.0,0.0,0.0,0.0,0.0,0.0,0.0,0.0,0.0,0.0,0.0,0.0,0.0,0.0,0.0,0.0,0.0,0.0,0.0,0.0,0.0,0.0,0.0,0.0,0.0,0.0,0.0,0.0,-0.4522,-0.5158,-0.5245,-0.5162,-0.48,-0.46,-0.4365,-0.4103,0.0,0.0,0.0,0.0,0.0,0.0,0.0,0.0,0.0,0.0,0.0,0.0,0.0,0.0,0.0,0.0,0.0,0.0,0.0,0.0,0.0,0.0,0.0,0.0,0.0,0.0,0.0,0.0,0.0,0.0,0.0,0.0,0.0,0.0,0.0,0.0,0.0,0.0,0.0,0.0,0.0,0.0,0.0,0.0,0.0,0.0,0.0,0.0,0.0,0.0,0.0,0.0,0.0,0.0,0.0,0.0,0.0,0.0,0.0,0.0,0.0,0.0,0.0,0.0,0.0,0.0,0.0,0.0,0.0,0.0,0.0,0.0,0.0,0.0,0.0,0.0,0.0,0.0,0.0,0.0,0.0,0.0,0.0,0.0,0.0,0.0,0.0,0.0,0.0,0.0,0.0,0.0,0.0,0.0,0.0,0.0,0.0,0.0,0.0,0.0,0.0,0.0,0.0,0.0,-0.5915,-0.6149,-0.5637,-0.5275,-0.522,-0.4873,-0.4401,-0.3712,0.0,0.0,0.0,0.0,0.0,0.0,0.0,0.0,0.0,0.0,0.0,0.0,0.0,0.0,0.0,0.0,0.0,0.0,0.0,0.0,0.0,0.0,0.0,0.0,0.0,0.0,0.0,0.0,0.0,0.0,0.0,0.0,0.0,0.0,0.0,0.0,0.0,0.0,0.0,0.0,0.0,0.0,0.0,0.0,0.0,0.0,0.0,0.0,0.0,0.0,0.0,0.0,0.0,0.0,0.0,0.0,0.0,0.0,0.0,0.0,0.0,0.0,0.0,0.0,0.0,0.0,0.0,0.0,0.0,0.0,0.0,0.0,0.0,0.0,0.0,0.0,0.0,0.0,0.0,0.0,0.0,0.0,0.0,0.0,0.0,0.0,0.0,0.0,0.0,0.0,0.0,0.0,0.0,0.0,0.0,0.0,0.0,0.0,0.0,0.0,0.0,0.0,0.0,-0.6004,-0.6293,-0.6278,-0.6237,-0.6121,-0.5827,-0.5624,-0.511,-0.41,-0.3132,0.0,0.0,0.0,0.0,0.0,0.0,0.0,0.0,0.0,0.0,0.0,0.0,0.0,0.0,0.0,0.0,0.0,0.0,0.0,0.0,0.0,0.0,0.0,0.0,0.0,0.0,0.0,0.0,0.0,0.0,0.0,0.0,0.0,0.0,0.0,0.0,0.0,0.0,0.0,0.0,0.0,0.0,0.0,0.0,0.0,0.0,0.0,0.0,0.0,0.0,0.0,0.0,0.0,0.0,0.0,0.0,0.0,0.0,0.0,0.0,0.0,0.0,0.0,0.0,0.0,0.0,0.0,0.0,0.0,0.0,0.0,0.0,0.0,0.0,0.0,0.0,0.0,0.0,0.0,0.0,0.0,0.0,0.0,0.0,0.0,0.0,0.0,0.0,0.0,0.0,0.0,0.0,0.0,0.0,0.0,0.0,0.0,0.0,0.0,0.0,0.0,0.0,-0.633,-0.6585,-0.6422,-0.6771,-0.6771,-0.6267,-0.6181,-0.5698,-0.4476,-0.3841,0.0,0.0,0.0,0.0,0.0,0.0,0.0,0.0,0.0,0.0,0.0,0.0,0.0,0.0,0.0,0.0,0.0,0.0,0.0,0.0,0.0,0.0,0.0,0.0,0.0,0.0,0.0,0.0,0.0,0.0,0.0,0.0,0.0,0.0,0.0,0.0,0.0,0.0,0.0,0.0,0.0,0.0,0.0,0.0,0.0,0.0,0.0,0.0,0.0,0.0,0.0,0.0,0.0,0.0,0.0,0.0,0.0,0.0,0.0,0.0,0.0,0.0,0.0,0.0,0.0,0.0,0.0,0.0,0.0,0.0,0.0,0.0,0.0,0.0,0.0,0.0,0.0,0.0,0.0,0.0,0.0,0.0,0.0,0.0,0.0,0.0,0.0,0.0,0.0,0.0,0.0,0.0,0.0,0.0,0.0,0.0,0.0,0.0,0.0,0.0,0.0,0.0,-0.7207,-0.7304,-0.697,-0.6979,-0.6771,-0.6267,-0.6181,-0.5698,-0.4476,-0.4253,0.0,0.0,0.0,0.0,0.0,0.0,0.0,0.0,0.0,0.0,0.0,0.0,0.0,0.0,0.0,0.0,0.0,0.0,0.0,0.0,0.0,0.0,0.0,0.0,0.0,0.0,0.0,0.0,0.0,0.0,0.0,0.0,0.0,0.0,0.0,0.0,0.0,0.0,0.0,0.0,0.0,0.0,0.0,0.0,0.0,0.0,0.0,0.0,0.0,0.0,0.0,0.0,0.0,0.0,0.0,0.0,0.0,0.0,0.0,0.0,0.0,0.0,0.0,0.0,0.0,0.0,0.0,0.0,0.0,0.0,0.0,0.0,0.0,0.0,0.0,0.0,0.0,0.0,0.0,0.0,0.0,0.0,0.0,0.0,0.0,0.0,0.0,0.0,0.0,0.0,0.0,0.0,0.0,0.0,0.0,0.0,0.0,0.0,0.0,0.0,0.0,0.0,-0.8182,-0.8344,0.0,-0.7572,-0.7245,-0.6526,-0.6584,-0.6141,-0.4816,0.0,0.0,0.0,0.0,0.0,0.0,0.0,0.0,0.0,0.0,0.0,0.0,0.0,0.0,0.0,0.0,0.0,0.0,0.0,0.0,0.0,0.0,0.0,0.0,0.0,0.0,0.0,0.0,0.0,0.0,0.0,0.0,0.0,0.0,0.0,0.0,0.0,0.0,0.0,0.0,0.0,0.0,0.0,0.0,0.0,0.0,0.0,0.0,0.0,0.0,0.0,0.0,0.0,0.0,0.0,0.0,0.0,0.0,0.0,0.0,0.0,0.0,0.0,0.0,0.0,0.0,0.0,0.0,0.0,0.0,0.0,0.0,0.0,0.0,0.0,0.0,0.0,0.0,0.0,0.0,0.0,0.0,0.0,0.0,0.0,0.0,0.0,0.0,0.0,0.0,0.0,0.0,0.0,0.0,0.0,0.0,0.0,0.0,0.0,0.0,0.0,0.0,-0.8112,-0.8824,-0.8991,0.0,-0.8156,-0.781,-0.6919,-0.71,-0.6684,-0.5235,0.0,0.0,0.0,0.0,0.0,0.0,0.0,0.0,0.0,0.0,0.0,0.0,0.0,0.0,0.0,0.0,0.0,0.0,0.0,0.0,0.0,0.0,0.0,0.0,0.0,0.0,0.0,0.0,0.0,0.0,0.0,0.0,0.0,0.0,0.0,0.0,0.0,0.0,0.0,0.0,0.0,0.0,0.0,0.0,0.0,0.0,0.0,0.0,0.0,0.0,0.0,0.0,0.0,0.0,0.0,0.0,0.0,0.0,0.0,0.0,0.0,0.0,0.0,0.0,0.0,0.0,0.0,0.0,0.0,0.0,0.0,0.0,0.0,0.0,0.0,0.0,0.0,0.0,0.0,0.0,0.0,0.0,0.0,0.0,0.0,0.0,0.0,0.0,0.0,0.0,0.0,0.0,0.0,0.0,0.0,0.0,0.0,0.0,0.0,0.0,0.0,0.0,-0.8684,-0.9073,-0.9156,-0.8753,-0.872,-0.8359,-0.7482,-0.7705,-0.7271,0.0,0.0,0.0,0.0,0.0,0.0,0.0,0.0,0.0,0.0,0.0,0.0,0.0,0.0,0.0,0.0,0.0,0.0,0.0,0.0,0.0,0.0,0.0,0.0,0.0,0.0,0.0,0.0,0.0,0.0,0.0,0.0,0.0,0.0,0.0,0.0,0.0,0.0,0.0,0.0,0.0,0.0,0.0,0.0,0.0,0.0,0.0,0.0,0.0,0.0,0.0,0.0,0.0,0.0,0.0,0.0,0.0,0.0,0.0,0.0,0.0,0.0,0.0,0.0,0.0,0.0,0.0,0.0,0.0,0.0,0.0,0.0,0.0,0.0,0.0,0.0,0.0,0.0,0.0,0.0,0.0,0.0,0.0,0.0,0.0,0.0,0.0,0.0,0.0,0.0,0.0,0.0,0.0,0.0,0.0,0.0,0.0,0.0,0.0,0.0,0.0,0.0,0.0,-0.9288,-0.9944,-1.0123,-0.9364,-0.8918,-0.8265,-0.7196,-0.7047,-0.655,-0.5503,0.0,0.0,0.0,0.0,0.0,0.0,0.0,0.0,0.0,0.0,0.0,0.0,0.0,0.0,0.0,0.0,0.0,0.0,0.0,0.0,0.0,0.0,0.0,0.0,0.0,0.0,0.0,0.0,0.0,0.0,0.0,0.0,0.0,0.0,0.0,0.0,0.0,0.0,0.0,0.0,0.0,0.0,0.0,0.0,0.0,0.0,0.0,0.0,0.0,0.0,0.0,0.0,0.0,0.0,0.0,0.0,0.0,0.0,0.0,0.0,0.0,0.0,0.0,0.0,0.0,0.0,0.0,0.0,0.0,0.0,0.0,0.0,0.0,0.0,0.0,0.0,0.0,0.0,0.0,0.0,0.0,0.0,0.0,0.0,0.0,0.0,0.0,0.0,0.0,0.0,0.0,0.0,0.0,0.0,0.0,0.0,0.0,0.0,0.0,0.0,0.0,0.0,-0.9874,-1.0632,-1.0813,-0.99,-0.9373,-0.8604,-0.7416,-0.7209,-0.6726,-0.5723,0.0,0.0,0.0,0.0,0.0,0.0,0.0,0.0,0.0,0.0,0.0,0.0,0.0,0.0,0.0,0.0,0.0,0.0,0.0,0.0,0.0,0.0,0.0,0.0,0.0,0.0,0.0,0.0,0.0,0.0,0.0,0.0,0.0,0.0,0.0,0.0,0.0,0.0,0.0,0.0,0.0,0.0,0.0,0.0,0.0,0.0,0.0,0.0,0.0,0.0,0.0,0.0,0.0,0.0,0.0,0.0,0.0,0.0,0.0,0.0,0.0,0.0,0.0,0.0,0.0,0.0,0.0,0.0,0.0,0.0,0.0,0.0,0.0,0.0,0.0,0.0,0.0,0.0,0.0,0.0,0.0,0.0,0.0,0.0,0.0,0.0,0.0,0.0,0.0,0.0,0.0,0.0,0.0,0.0,0.0,0.0,0.0,0.0,0.0,0.0,0.0,0.0,-1.04,-1.1062,-1.1229,-1.041,-0.9889,-0.91,-0.7915,-0.7887,-0.7448,-0.6287,0.0,0.0,0.0,0.0,0.0,0.0,0.0,0.0,0.0,0.0,0.0,0.0,0.0,0.0,0.0,0.0,0.0,0.0,0.0,0.0,0.0,0.0,0.0,0.0,0.0,0.0,0.0,0.0,0.0,0.0,0.0,0.0,0.0,0.0,0.0,0.0,0.0,0.0,0.0,0.0,0.0,0.0,0.0,0.0,0.0,0.0,0.0,0.0,0.0,0.0,0.0,0.0,0.0,0.0,0.0,0.0,0.0,0.0,0.0,0.0,-1.0283,0.0,0.0,0.0,0.0,0.0,0.0,0.0,0.0,0.0,0.0,0.0,0.0,0.0,0.0,0.0,0.0,0.0,0.0,0.0,0.0,0.0,0.0,0.0,0.0,0.0,0.0,0.0,0.0,0.0,0.0,0.0,0.0,0.0,0.0,0.0,0.0,0.0,0.0,0.0,0.0,0.0,-1.0845,-1.0933,-1.085,-1.0337,-0.9842,-0.9064,-0.7906,-0.7618,-0.7137,-0.6246,-0.6054,0.0,0.0,0.0,0.0,0.0,0.0,0.0,0.0,0.0,0.0,0.0,0.0,0.0,0.0,0.0,0.0,0.0,0.0,0.0,0.0,0.0,0.0,0.0,0.0,0.0,0.0,0.0,0.0,0.0,0.0,0.0,0.0,0.0,0.0,0.0,0.0,0.0,0.0,0.0,0.0,0.0,0.0,0.0,0.0,0.0,0.0,0.0,0.0,0.0,0.0,0.0,0.0,0.0,0.0,0.0,0.0,0.0,0.0,0.0,0.0,-1.1472,0.0,0.0,0.0,0.0,0.0,0.0,0.0,0.0,0.0,0.0,0.0,0.0,0.0,0.0,0.0,0.0,0.0,0.0,0.0,0.0,0.0,0.0,0.0,0.0,0.0,0.0,0.0,0.0,0.0,0.0,0.0,0.0,0.0,0.0,0.0,0.0,0.0,0.0,0.0,0.0,-1.0991,-1.1094,-1.0981,-1.0352,-0.9858,-0.9063,-0.7893,-0.7613,-0.7126,-0.624,-0.6156,0.0,0.0,0.0,0.0,0.0,0.0,0.0,0.0,0.0,0.0,0.0,0.0,0.0,0.0,0.0,0.0,0.0,0.0,0.0,0.0,0.0,0.0,0.0,0.0,0.0,0.0,0.0,0.0,0.0,0.0,0.0,0.0,0.0,0.0,0.0,0.0,0.0,0.0,0.0,0.0,0.0,0.0,0.0,0.0,0.0,0.0,0.0,0.0,0.0,0.0,0.0,0.0,0.0,-1.2881,-1.2881,-1.2881,-1.2881,-1.2881,-1.2861,-1.25,-1.2182,-1.2026,0.0,0.0,0.0,0.0,0.0,0.0,0.0,0.0,0.0,0.0,0.0,0.0,0.0,0.0,0.0,0.0,0.0,0.0,0.0,0.0,0.0,0.0,0.0,0.0,0.0,-0.9471,-0.9592,0.0,0.0,0.0,0.0,0.0,0.0,0.0,0.0,0.0,0.0,0.0,0.0,-1.124,-1.1387,-1.1302,-1.0478,-0.9924,-0.9124,-0.7974,-0.7689,-0.7182,-0.6307,-0.6495,-0.6266,0.0,0.0,0.0,0.0,0.0,0.0,0.0,0.0,0.0,0.0,0.0,0.0,0.0,0.0,0.0,0.0,0.0,0.0,0.0,0.0,0.0,0.0,0.0,0.0,0.0,0.0,0.0,0.0,0.0,0.0,0.0,0.0,-0.739,-0.8222,0.0,0.0,0.0,0.0,0.0,0.0,0.0,0.0,0.0,0.0,0.0,0.0,0.0,-1.2822,-1.2881,-1.2881,-1.2881,-1.2881,-1.2881,-1.2881,-1.2881,-1.2881,-1.2881,-1.2876,-1.2822,0.0,-1.2666,-1.1534,0.0,0.0,0.0,0.0,0.0,0.0,0.0,0.0,0.0,0.0,0.0,0.0,0.0,0.0,0.0,0.0,0.0,0.0,0.0,0.0,0.0,0.0,-0.8748,-0.8852,-0.8879,-0.9103,0.0,-1.021,-1.078,-1.1199,-1.153,0.0,0.0,0.0,0.0,0.0,0.0,0.0,-1.2124,-1.1768,-1.1415,-1.0879,-1.0038,-0.9123,-0.8244,-0.7707,-0.7172,-0.6569,-0.6567,-0.6437,-0.6081,-0.5655,0.0,0.0,0.0,0.0,0.0,0.0,0.0,0.0,0.0,0.0,0.0,0.0,0.0,0.0,0.0,0.0,0.0,0.0,0.0,0.0,0.0,0.0,0.0,0.0,0.0,0.0,0.0,0.0,0.0,-0.7727,-0.8836,-0.9939,-1.1216,-1.2033,0.0,0.0,0.0,0.0,0.0,0.0,0.0,0.0,0.0,-1.2929,-1.2881,-1.2881,-1.2881,-1.2881,-1.2881,-1.2881,-1.2881,-1.2881,-1.2881,-1.2881,-1.2881,-1.2881,-1.2881,-1.2676,-1.2264,-1.2053,-1.2191,-1.2508,0.0,0.0,0.0,0.0,-1.0308,-0.9532,-0.9826,-0.9927,0.0,-0.9927,0.0,0.0,0.0,0.0,0.0,0.0,0.0,0.0,0.0,0.0,0.0,-0.8808,-0.8808,-0.8901,-0.9378,-0.9892,-1.051,0.0,-1.2054,-1.2403,-1.2403,0.0,0.0,0.0,0.0,-1.272,-1.2239,-1.1841,-1.1305,-1.0526,-0.9875,-0.9037,-0.7837,-0.7536,-0.7153,-0.6626,-0.659,-0.6478,-0.6212,-0.5962,-0.5397,0.0,0.0,0.0,0.0,0.0,0.0,0.0,0.0,0.0,0.0,0.0,0.0,0.0,0.0,0.0,0.0,0.0,0.0,0.0,0.0,0.0,0.0,0.0,0.0,0.0,0.0,0.0,0.0,-0.896,-0.9876,-1.1094,-1.2278,-1.2941,0.0,0.0,0.0,0.0,0.0,0.0,-1.3392,-1.3789,-1.3732,-1.3152,-1.3152,-1.3065,-1.2881,-1.2881,-1.2881,-1.2881,-1.2881,-1.2881,-1.2881,-1.2881,-1.2881,-1.2881,-1.2715,-1.2304,-1.1846,-1.2206,-1.2246,-1.2022,-1.1868,-1.1329,-1.069,-1.0771,-1.0356,-0.9823,-1.004,-1.0164,-1.0217,-1.0144,0.0,-1.0077,-0.986,0.0,0.0,0.0,0.0,-0.9117,-0.8881,-0.8808,-0.8808,-0.8808,-0.8808,-0.8864,-0.9082,-0.9472,-1.0039,0.0,-1.1805,-1.2314,-1.2161,0.0,0.0,0.0,0.0,-1.2299,-1.213,-1.1524,-1.0851,-1.0068,-0.9442,-0.8675,-0.7615,-0.7322,-0.704,-0.6734,-0.663,-0.6478,-0.6212,-0.6047,-0.5535,-0.4531,0.0,0.0,0.0,0.0,0.0,0.0,0.0,0.0,0.0,0.0,0.0,0.0,0.0,0.0,0.0,0.0,0.0,0.0,0.0,0.0,0.0,0.0,0.0,0.0,0.0,0.0,0.0,0.0,0.0,-1.0793,-1.1466,0.0,0.0,0.0,0.0,-1.4605,-1.4982,-1.5037,-1.4634,-1.4658,-1.4381,-1.3774,-1.3726,-1.3462,-1.2934,-1.2881,-1.2881,-1.2881,-1.2881,-1.2881,-1.2881,-1.2881,-1.2881,-1.2876,-1.2183,-1.1814,-1.1765,-1.1166,-1.1083,-1.1313,-1.0628,-1.0505,-1.0716,-1.0964,-1.0671,-1.0097,-1.0114,-1.0301,-1.0491,-1.0207,-1.0117,-1.0114,-1.0097,-0.9903,0.0,0.0,-0.9183,-0.9117,-0.8881,-0.8808,-0.8808,-0.8808,-0.8808,-0.8811,-0.8824,-0.9323,-0.9702,0.0,-1.0177,-1.072,-1.0068,0.0,-1.112,-1.1769,-1.1316,-1.1111,-1.1738,-1.0647,-0.9777,-0.9711,-0.8668,-0.7946,-0.7893,-0.7113,-0.6744,-0.6981,-0.674,-0.6478,-0.6212,-0.5655,-0.5193,-0.4871,-0.4184,0.0,0.0,0.0,0.0,0.0,0.0,0.0,0.0,0.0,0.0,0.0,0.0,0.0,0.0,0.0,0.0,0.0,0.0,0.0,0.0,0.0,0.0,0.0,0.0,0.0,0.0,0.0,0.0,-1.1395,-1.2627,0.0,-1.2915,-1.3797,-1.4475,-1.4607,-1.5032,-1.53,-1.5232,-1.4872,-1.4422,-1.3821,-1.3415,-1.3104,-1.2881,-1.2881,-1.2881,-1.2881,-1.2881,-1.2881,-1.2881,-1.2881,-1.2662,-1.2183,-1.1918,-1.1312,-1.0513,-1.0265,-1.0368,-1.0624,-1.0415,-1.0183,-1.0088,-1.0134,-1.0065,-0.984,-0.984,-0.991,-0.998,-0.9873,-0.984,-0.984,-0.984,-0.9766,-0.9619,-0.9269,-0.9183,-0.9117,-0.8881,-0.8808,-0.8808,-0.8808,-0.8808,-0.8808,-0.8808,-0.9312,-0.9647,-0.9045,-0.9941,-1.0716,-1.0466,-1.0665,-1.0864,-1.1116,-1.0965,-1.0868,-1.1116,-1.0485,-0.9906,-0.9529,-0.8848,-0.819,-0.7678,-0.7344,-0.7118,-0.7027,-0.6594,-0.6295,-0.6221,-0.5262,-0.4673,-0.4588,-0.4046,-0.3817,0.0,0.0,0.0,0.0,0.0,0.0,0.0,0.0,0.0,0.0,0.0,0.0,0.0,0.0,0.0,0.0,0.0,0.0,0.0,0.0,0.0,0.0,0.0,0.0,0.0,0.0,-1.1471,-1.2084,-1.317,-1.3648,-1.2954,-1.363,-1.4151,-1.4338,-1.4563,-1.4828,-1.5196,-1.4691,-1.419,-1.3815,-1.342,-1.3109,-1.2881,-1.2881,-1.2881,-1.2881,-1.2881,-1.2881,-1.2881,-1.2881,-1.2505,-1.1765,-1.1562,-1.0813,-0.9762,-0.9562,-0.9588,-0.9789,-0.9893,-0.9862,-0.9683,-0.9683,-0.9683,-0.9683,-0.9683,-0.9616,-0.9549,-0.9649,-0.9683,-0.9683,-0.9683,-0.9683,-0.9619,-0.9269,-0.9183,-0.9117,-0.8881,-0.8808,-0.8808,-0.8808,-0.8808,-0.8808,-0.8808,-0.9162,-0.9309,-0.891,-0.9714,-1.0415,-1.0167,-1.0115,-1.0214,-1.0415,-1.0261,-1.0218,-1.0415,-0.9968,-0.9475,-0.9096,-0.8665,-0.8203,-0.7684,-0.757,-0.7333,-0.6963,-0.6524,-0.6211,-0.6071,-0.5054,-0.4542,-0.4619,-0.4177,-0.3946,-0.3946,0.0,0.0,0.0,0.0,0.0,0.0,0.0,0.0,0.0,0.0,0.0,0.0,0.0,0.0,0.0,0.0,0.0,0.0,0.0,0.0,0.0,0.0,0.0,-1.0564,-1.1312,-1.2026,-1.2774,-1.2876,-1.2881,-1.2881,-1.3262,-1.3571,-1.3831,-1.365,-1.3899,-1.4662,-1.4154,-1.3821,-1.3821,-1.3768,-1.351,-1.2934,-1.2881,-1.2881,-1.2881,-1.2881,-1.2881,-1.2881,-1.2881,-1.2452,-1.1711,-1.1065,-1.0368,-0.9714,-0.9061,-0.8808,-0.8834,-0.9064,-0.9402,-0.9656,-0.9656,-0.9598,-0.9595,-0.9595,-0.9409,-0.9161,-0.9502,-0.9595,-0.9595,-0.9595,-0.9595,-0.9538,-0.925,-0.917,-0.9107,-0.8878,-0.8808,-0.8808,-0.8808,-0.8808,-0.8808,-0.8808,-0.8808,-0.8808,-0.8808,-0.9312,-0.9562,-0.8906,-0.8808,-0.9008,-0.9662,-0.9211,0.0,-0.9662,-0.8956,-0.839,-0.839,-0.813,-0.7905,-0.7898,-0.7669,-0.7279,-0.6814,-0.6507,-0.6157,-0.5809,-0.5058,-0.4803,-0.5056,-0.4501,-0.4197,-0.4202,0.0,0.0,0.0,0.0,0.0,0.0,0.0,0.0,0.0,0.0,0.0,0.0,0.0,0.0,0.0,0.0,0.0,0.0,0.0,0.0,0.0,-0.8621,-0.891,-0.9312,-1.0368,-1.117,-1.1329,-1.226,-1.2881,-1.2881,-1.3262,-1.3741,-1.4331,-1.4239,-1.4496,-1.5241,-1.4332,-1.3821,-1.3821,-1.3377,-1.306,-1.2881,-1.2881,-1.2881,-1.2881,-1.2881,-1.2881,-1.2881,-1.2344,-1.1724,-1.1065,-1.0368,-0.9714,-0.9061,-0.8857,-0.8808,-0.8814,-0.8895,-0.8978,-0.8994,-0.8433,-0.7935,-0.7433,-0.7433,-0.7389,-0.7345,-0.7411,-0.7433,-0.7433,-0.7433,-0.7433,-0.7533,-0.8012,-0.8102,-0.8195,-0.8665,-0.8808,-0.8808,-0.8808,-0.8808,-0.8808,-0.8808,-0.8808,-0.8808,-0.8808,-0.8959,-0.9008,-0.8857,-0.8808,-0.8857,-0.9061,-0.8906,0.0,-0.9057,-0.8839,-0.8687,-0.8687,-0.8614,-0.848,-0.827,-0.7718,-0.7215,-0.6837,-0.5861,-0.5284,-0.5146,-0.4513,-0.4294,-0.4447,-0.4299,-0.4247,0.0,0.0,0.0,0.0,0.0,0.0,0.0,0.0,0.0,0.0,0.0,0.0,0.0,0.0,0.0,0.0,0.0,0.0,0.0,0.0,0.0,0.0,-0.8694,-0.8808,-0.8808,-0.9714,-1.0568,-1.1162,-1.1936,-1.2559,-1.2876,-1.3101,-1.3526,-1.4221,-1.3939,-1.4086,-1.4744,-1.3931,-1.3415,-1.3415,-1.306,-1.2881,-1.2881,-1.2881,-1.2881,-1.2881,-1.2608,-1.2452,-1.2403,-1.172,-1.1015,0.0,-0.9965,-0.9413,-0.8808,-0.8808,-0.8643,0.0,0.0,0.0,0.0,0.0,-0.6966,-0.6588,-0.6588,-0.6588,-0.6588,-0.6588,-0.6588,-0.6588,-0.6588,-0.6588,-0.6696,-0.7128,-0.7238,-0.7345,-0.7777,-0.7883,-0.7883,-0.7883,-0.7883,-0.7883,-0.7883,-0.7883,-0.7883,-0.7883,0.0,0.0,-0.7883,-0.8371,-0.8808,-0.8808,-0.8808,-0.8699,-0.8371,-0.8321,-0.8212,-0.7883,-0.7883,-0.7823,-0.7671,-0.7138,0.0,0.0,0.0,-0.4865,-0.4618,-0.4326,0.0,0.0,0.0,0.0,0.0,0.0,0.0,0.0,-0.4338,-0.4382,0.0,0.0,0.0,0.0,0.0,0.0,0.0,0.0,0.0,0.0,0.0,0.0,0.0,0.0,0.0,0.0,-0.8808,-0.8808,-0.8808,-0.9309,-1.0163,-1.1516,-1.176,-1.208,-1.2827,-1.2881,-1.3104,-1.3642,-1.319,-1.3152,-1.3684,0.0,0.0,0.0,0.0,-1.2774,-1.2774,-1.272,-1.2671,-1.2671,-1.1981,-1.1665,-1.1665,-1.1011,-1.0364,-0.9814,-0.9714,-0.9309,-0.8695,-0.8695,-0.8262,-0.7616,-0.8318,-0.8103,-0.7396,-0.6694,-0.6423,0.0,-0.6372,0.0,0.0,-0.6372,-0.6372,-0.6372,-0.6372,-0.6372,-0.6369,-0.6477,-0.6477,-0.6477,-0.6586,-0.6588,-0.6588,-0.6588,-0.6588,-0.6588,-0.6588,-0.6588,-0.6588,-0.6588,-0.6588,-0.6588,-0.6588,-0.7667,-0.8537,-0.8537,-0.8537,-0.8318,-0.767,-0.756,-0.7343,-0.6696,0.0,0.0,-0.6588,-0.6293,-0.5941,-0.5529,-0.5231,-0.4784,-0.4272,-0.4394,-0.4402,-0.4222,-0.4397,-0.4519,-0.4519,-0.4519,-0.4519,-0.4519,-0.4517,-0.4517,0.0,0.0,0.0,0.0,0.0,0.0,0.0,0.0,0.0,0.0,0.0,0.0,0.0,0.0,0.0,-0.8689,-0.8808,-0.8808,-0.8808,-0.8906,-0.9514,-1.0813,-1.1462,-1.208,-1.2827,-1.2881,-1.2973,-1.306,-1.2973,-1.2973,-1.306,-1.2973,-1.2881,-1.2881,-1.2344,-1.2026,-1.2026,-1.1475,-1.1229,-1.1174,0.0,0.0,-1.0965,-1.0316,-0.9913,-0.9766,-0.9211,-0.858,-0.794,-0.794,-0.7453,-0.6804,-0.6966,-0.6578,-0.5923,-0.576,-0.5382,-0.4899,-0.4899,-0.4899,-0.4899,-0.4899,-0.4899,-0.4899,-0.4899,-0.4899,0.0,-0.5546,-0.5706,-0.5871,-0.6423,-0.6588,-0.6588,-0.6588,-0.6588,-0.6588,-0.6588,-0.6588,-0.6588,-0.6588,-0.6588,-0.6588,-0.6588,-0.6858,-0.702,-0.702,-0.702,-0.6966,-0.6804,-0.6804,-0.675,-0.6588,-0.6588,-0.6588,-0.6588,-0.5997,-0.5608,-0.5483,-0.492,-0.4581,-0.4421,-0.4503,-0.4505,-0.4421,-0.4457,-0.4475,-0.4475,-0.4475,-0.4475,-0.4475,-0.4522,-0.4517,0.0,0.0,0.0,0.0,0.0,0.0,0.0,0.0,0.0,0.0,0.0,-0.5878,-0.5935,0.0,-0.7396,-0.8156,-0.8265,-0.8371,-0.8752,-0.8681,-0.904,-1.0143,-1.0614,-1.1074,-1.1792,-1.1846,-1.1846,-1.1846,-1.1846,-1.1846,-1.1846,-1.1846,-1.1846,-1.1846,-1.1475,-1.1316,-1.1316,-1.0965,-1.0813,-1.0813,-1.0466,-1.0316,-1.0265,-0.9614,-0.9096,-0.8718,-0.8418,-0.783,-0.7128,-0.674,-0.6359,-0.6036,-0.566,-0.5548,-0.5485,-0.5109,-0.4787,-0.4517,-0.4517,-0.4517,-0.4517,-0.4517,-0.4517,-0.4517,-0.4517,-0.4517,-0.4572,-0.4895,-0.5003,-0.5056,-0.5443,-0.5553,-0.5553,-0.5553,-0.5553,-0.5553,-0.5553,-0.5553,-0.5553,-0.5553,-0.5553,-0.5553,-0.5553,-0.5553,-0.5771,-0.648,-0.6588,-0.6475,-0.6091,-0.6036,-0.593,-0.5607,-0.5553,-0.5553,-0.5553,-0.5222,-0.5003,-0.5003,-0.4686,-0.4525,-0.4525,-0.4475,-0.4479,-0.4479,-0.4484,-0.4144,-0.3351,-0.3351,-0.3747,-0.4489,-0.4482,-0.4472,0.0,0.0,0.0,0.0,0.0,0.0,0.0,-0.3849,-0.4252,-0.4242,-0.4809,-0.5328,-0.5487,-0.598,-0.664,-0.7345,-0.7506,-0.7706,-0.841,-0.8313,-0.8477,-0.9355,-0.9525,-0.9895,-1.0656,-1.0714,-1.0739,-1.0813,-1.0813,-1.0813,-1.0813,-1.0813,-1.0813,-1.0813,-1.0661,-1.0618,-1.0618,-1.0466,-1.0415,-1.0415,-0.9703,-0.9399,-0.9347,-0.8682,-0.8046,-0.7453,-0.7343,-0.6961,-0.6312,-0.5601,-0.5326,-0.5271,-0.4734,-0.484,-0.5218,-0.4679,-0.4517,-0.4517,-0.4517,-0.4517,-0.4517,-0.4517,-0.4517,-0.4517,-0.4517,-0.4517,-0.4517,-0.4517,-0.4517,-0.4517,-0.4517,-0.4517,-0.4517,-0.4517,-0.4517,-0.4517,-0.4517,-0.4517,-0.4517,-0.4517,-0.4517,-0.4517,-0.4517,-0.4517,-0.4901,-0.6043,-0.6206,-0.5987,-0.538,-0.5326,-0.5111,-0.457,-0.4517,-0.4517,-0.4517,-0.4517,-0.4519,-0.452,-0.4473,-0.4366,-0.4082,-0.4035,-0.4039,-0.4039,-0.4327,-0.3871,-0.2626,-0.2065,-0.2738,-0.4499,-0.4211,-0.4201,0.0333,-0.0111,-0.0223,-0.0222,-0.0221,-0.0276,0.0,-0.2551,-0.4468,-0.4457,-0.452,-0.48,-0.538,-0.5542,-0.5871,-0.6586,-0.6696,-0.6895,-0.7418,-0.7464,-0.7569,-0.8049,-0.8623,-0.9388,-1.0362,-1.0439,-1.0524,-1.0792,-1.0813,-1.0813,-1.0813,-1.0813,-1.0813,-1.0813,-1.0214,-0.9913,-0.9913,-0.9312,-0.9008,-0.9008,-0.8309,-0.7931,-0.7934,-0.7179,-0.6804,-0.6694,-0.6032,-0.5706,-0.5597,-0.4897,-0.4625,-0.4625,-0.4517,-0.4572,-0.4625,-0.4517,-0.4517,-0.4517,-0.4517,-0.4517,-0.4517,-0.4517,-0.4517,-0.4517,-0.4517,-0.4517,-0.4517,-0.4517,-0.4517,-0.4517,-0.4517,-0.4517,-0.4517,-0.4517,-0.4517,-0.4517,-0.4517,-0.4517,-0.4517,-0.4517,-0.4517,-0.4517,-0.4517,-0.4517,-0.4572,-0.4736,-0.4736,-0.468,-0.4625,-0.4625,-0.4572,-0.4519,-0.4517,-0.4517,-0.4517,-0.4517,-0.4522,-0.4477,-0.4479,-0.3913,-0.2511,-0.2455,-0.2455,-0.2455,-0.3819,-0.4397,-0.4225,-0.1565,-0.1733,-0.4455,-0.3078,-0.3183,0.1671,0.1303,0.1092,0.0223,-0.0,-0.0,-0.0,-0.0949,-0.2122,-0.2959,-0.3862,-0.4595,-0.4853,-0.4904,-0.512,0.0,-0.5886,-0.6049,-0.6681,-0.6528,-0.6409,-0.6588,-0.6803,-0.7463,-0.8824,-0.8952,-0.9089,-0.9361,-0.9386,-0.9471,-0.9603,-0.9232,-0.9016,-0.9016,-0.8333,-0.7966,-0.7966,-0.7661,-0.7506,-0.7506,-0.7182,-0.7074,-0.7074,-0.675,-0.6367,-0.5928,-0.522,-0.4893,-0.4895,-0.4632,-0.4472,-0.4472,-0.4479,-0.4482,-0.448,-0.4522,-0.4517,-0.4517,-0.4517,-0.4517,-0.4517,-0.4517,-0.4517,-0.4517,-0.4517,-0.4517,-0.4517,-0.4517,-0.4517,-0.4517,-0.4517,-0.4517,-0.4517,-0.4517,-0.4517,-0.4517,-0.4517,-0.4517,-0.4517,-0.4517,-0.4517,-0.4517,-0.4517,-0.4517,-0.4519,-0.4525,-0.452,-0.4517,-0.4517,-0.4517,-0.4519,-0.4525,-0.4472,-0.4473,-0.448,-0.4482,-0.4484,-0.449,-0.4496,-0.4216,-0.3592,-0.1846,-0.0895,-0.0895,-0.1568,-0.1907,-0.1851,-0.0616,-0.0672,-0.1907,-0.2073,-0.2519,0.3258,0.282,0.2421,0.1347,0.0814,0.0434,0.0054,-0.0,-0.0326,-0.1357,-0.2464,-0.3368,-0.3803,-0.4228,-0.4643,-0.5171,-0.5083,-0.5213,-0.5918,-0.5639,-0.5496,-0.5634,-0.5547,-0.5963,-0.7214,-0.7344,-0.7538,-0.7891,-0.7844,-0.7973,-0.8193,-0.7667,-0.7396,-0.7396,-0.6858,-0.6588,-0.6588,-0.6588,-0.6588,-0.6588,-0.6369,-0.6312,-0.6312,-0.6095,-0.5714,-0.5224,-0.4737,-0.4524,-0.4472,-0.448,-0.4255,-0.3858,-0.3865,-0.3868,-0.3866,-0.3852,-0.413,-0.4472,-0.4472,-0.4472,-0.4472,-0.4472,-0.4472,-0.4472,-0.4472,-0.4472,-0.4472,-0.4472,-0.4472,-0.4472,-0.4472,-0.4472,-0.4472,-0.4472,-0.4472,-0.4472,-0.4472,-0.4472,-0.4472,-0.4472,-0.4472,-0.4472,-0.4472,-0.4472,-0.4473,-0.4482,-0.4135,-0.4016,-0.447,-0.4472,-0.4473,-0.4482,-0.4141,-0.386,-0.3868,-0.3868,-0.4041,-0.4501,-0.4509,-0.4113,-0.3317,-0.1177,-0.0,-0.0,-0.0,-0.0,-0.0,-0.0,-0.0,-0.0,-0.1122,-0.157,0.4927,0.4454,0.3926,0.3881,0.2822,0.1463,0.0253,-0.0,-0.0,-0.0051,-0.0104,-0.0584,-0.2015,-0.3504,-0.4492,-0.4536,-0.4356,-0.4414,-0.4892,-0.4797,-0.4905,-0.5457,-0.5506,-0.5587,-0.5848,-0.597,-0.621,-0.6599,-0.6532,-0.6506,-0.6686,-0.6642,-0.6642,-0.6642,-0.6588,-0.6588,-0.6588,-0.6588,-0.6588,-0.6588,-0.5871,-0.554,-0.5485,-0.4842,-0.4577,-0.4534,-0.4534,-0.4484,-0.4496,-0.4497,-0.364,-0.2287,-0.2287,-0.2287,-0.2287,-0.2287,-0.3242,-0.4496,-0.4496,-0.4496,-0.4496,-0.4496,-0.4496,-0.4496,-0.4496,-0.4496,-0.4496,-0.4496,-0.4496,-0.4496,-0.4496,-0.4496,-0.4496,-0.4496,-0.4496,-0.4496,-0.4496,-0.4496,-0.4496,-0.4496,-0.4496,-0.4496,-0.4496,-0.4496,-0.4496,-0.4497,-0.3244,-0.2792,-0.4322,-0.4496,-0.4496,-0.4497,-0.3187,-0.2287,-0.2287,-0.2287,-0.2909,-0.4397,-0.4514,-0.3204,-0.028,-0.0056,-0.0,-0.0,-0.0,-0.0,-0.0,-0.0,-0.0,-0.0,-0.0056,-0.0056,0.5074,0.504,0.484,0.4129,0.3556,0.3058,0.2519,0.1762,0.0956,0.0151,-0.0,-0.0154,-0.0666,-0.116,-0.1822,-0.2829,-0.3787,-0.4383,-0.4303,-0.4129,-0.4017,-0.4215,-0.4378,-0.4563,-0.4725,-0.5422,0.0,-0.6333,-0.6287,-0.6345,-0.6576,-0.6145,-0.5871,-0.5871,-0.5441,-0.5226,-0.5226,-0.5226,-0.523,-0.5185,-0.4973,-0.4811,-0.4811,-0.4593,-0.4489,-0.4435,-0.3411,-0.296,-0.3074,-0.4103,-0.422,-0.3536,-0.1511,-0.1343,-0.2186,-0.2186,-0.2524,-0.2976,-0.2965,-0.2962,-0.2962,-0.2962,-0.2962,-0.2962,-0.2962,-0.2962,-0.2962,-0.2962,-0.2962,-0.2962,-0.2962,-0.2962,-0.2962,-0.2962,-0.2962,-0.2962,-0.2962,-0.2962,-0.2962,-0.2962,-0.2962,-0.2962,-0.2962,-0.2962,-0.3303,-0.4335,-0.3192,-0.2399,-0.2905,-0.2962,-0.336,-0.4392,-0.405,-0.2914,-0.0895,-0.0727,-0.0951,-0.1457,-0.1514,-0.1065,-0.0056,-0.0,-0.0,-0.0,-0.0,-0.0,-0.0,-0.0,-0.0,-0.0,-0.0,-0.0,0.5761,0.5599,0.5375,0.4574,0.4227,0.3975,0.368,0.2978,0.2228,0.1445,0.0928,0.0493,0.0099,-0.0,-0.031,-0.1263,-0.2243,-0.2995,-0.3304,-0.3131,-0.2974,-0.2948,-0.3084,-0.3294,-0.3452,-0.4595,0.0,-0.5573,-0.5471,-0.5523,-0.583,-0.5399,-0.5124,-0.5124,-0.4746,-0.4473,-0.4473,-0.4473,-0.4249,-0.3688,-0.3694,-0.3697,-0.3697,-0.3697,-0.3984,-0.4447,-0.3475,-0.2404,-0.1508,-0.2467,-0.2865,-0.2695,-0.0785,-0.0561,-0.1403,-0.1403,-0.1403,-0.1403,-0.1397,-0.1396,-0.1396,-0.1396,-0.1396,-0.1396,-0.1396,-0.1396,-0.1396,-0.1396,-0.1396,-0.1396,-0.1396,-0.1396,-0.1396,-0.1396,-0.1396,-0.1396,-0.1396,-0.1396,-0.1396,-0.1396,-0.1396,-0.1396,-0.1396,-0.2293,-0.3369,-0.4347,-0.2747,-0.1396,-0.1396,-0.1396,-0.179,-0.2807,-0.2865,-0.2131,-0.0168,-0.0,-0.0,-0.0,-0.0,-0.0,-0.0,0.1009,0.1626,0.1626,0.1064,0.0783,0.0783,0.0783,0.0783,0.0783,0.0783,0.0783,0.6864,0.6195,0.5715,0.5395,0.4912,0.4317,0.3795,0.3678,0.365,0.3605,0.2682,0.1564,0.0379,0.0147,0.0101,-0.0,-0.0,-0.0477,-0.1901,-0.1883,-0.1708,0.0,0.0,-0.1914,-0.2161,-0.3585,0.0,-0.4482,0.0,-0.4022,-0.4374,-0.4381,-0.4381,-0.4381,-0.4381,-0.4381,-0.4381,-0.444,-0.3756,-0.2344,-0.2176,-0.2064,-0.2064,-0.2064,-0.291,-0.4286,-0.4286,-0.2582,0.0224,0.0224,0.0168,0.0112,0.0112,0.0112,0.0112,0.0112,0.0112,0.0112,0.0112,0.0056,-0.0,-0.0,-0.0,-0.0,-0.0,-0.0,-0.0,-0.0,-0.0,-0.0,-0.0,-0.0,-0.0,-0.0,-0.0,-0.0,-0.0,-0.0,-0.0,-0.0,-0.0,-0.0,-0.0,-0.2362,-0.4244,-0.4244,-0.1853,-0.0,-0.0,-0.0,-0.0,-0.0,-0.0,-0.0,-0.0,0.0168,0.0224,0.0224,0.0168,0.0112,0.0112,0.2864,0.4397,0.4512,0.3078,0.2343,0.2343,0.2343,0.2343,0.2343,0.2343,0.2343,0.7017,0.6909,0.6753,0.5964,0.5646,0.5337,0.472,0.4728,0.4635,0.3769,0.3345,0.3036,0.2743,0.2118,0.1296,0.0194,-0.0,0.0,-0.0528,-0.052,0.0,-0.0451,-0.126,-0.192,-0.2167,-0.36,0.0,0.0,-0.3335,-0.2712,-0.2792,-0.2793,-0.2793,-0.2793,-0.2793,-0.2793,-0.2793,-0.3932,-0.4279,-0.388,-0.1624,-0.056,-0.056,-0.056,-0.0784,-0.1121,-0.1121,0.056,0.3374,0.3374,0.2691,0.1619,0.1619,0.1619,0.1619,0.1619,0.1619,0.1619,0.1619,0.0895,-0.0,-0.0,-0.0,-0.0,-0.0,-0.0,-0.0,-0.0,-0.0,-0.0,-0.0,-0.0,-0.0,-0.0,-0.0,-0.0,-0.0,-0.0,-0.0,-0.0,-0.0,-0.0,-0.0,-0.0617,-0.1122,-0.1122,-0.0505,-0.0,-0.0,-0.0,-0.0,-0.0,-0.0,-0.0,-0.0,0.2075,0.3374,0.3374,0.2294,0.1619,0.1619,0.2402,0.3304,0.4501,0.4098,0.3925,0.3925,0.3925,0.3925,0.3925,0.3925,0.3925,0.711,0.7042,0.6958,0.6116,0.5975,0.5901,0.5248,0.5413,0.5435,0.4554,0.425,0.4044,0.3687,0.325,0.2733,0.0,0.0,0.0,0.0983,0.0866,0.0773,0.0802,0.0198,-0.0253,-0.0271,-0.1039,-0.1542,0.0,-0.1341,-0.1229,-0.1229,-0.1229,-0.1229,-0.1229,-0.1229,-0.1229,-0.1229,-0.2073,-0.2525,-0.2469,0.056,0.1963,0.1963,0.1287,0.095,0.095,0.0,0.1902,0.3535,0.422,0.3987,0.3188,0.3188,0.3188,0.3188,0.3188,0.3188,0.3188,0.3188,0.2686,0.1847,0.1174,0.095,0.095,0.095,0.095,0.095,0.095,0.095,0.095,0.095,0.095,0.095,0.095,0.095,0.095,0.095,0.095,0.095,0.095,0.095,0.095,0.095,0.095,0.095,0.095,0.095,0.095,0.095,0.1568,0.1963,0.1963,0.1343,0.095,0.095,0.2519,0.3764,0.445,0.3699,0.3188,0.3188,0.3184,0.3634,0.4489,0.4484,0.448,0.448,0.448,0.448,0.448,0.448,0.448,0.7159,0.6978,0.6831,0.6145,0.6188,0.6215,0.5636,0.5929,0.6133,0.5524,0.5256,0.4833,0.3884,0.3872,0.4106,0.4393,0.3376,0.2485,0.2485,0.2316,0.2148,0.212,0.2058,0.2122,0.2393,0.2443,0.2463,0.2435,0.1273,0.0444,0.028,0.0279,0.0222,0.0221,0.0278,0.0278,0.0278,0.0278,0.0223,0.0278,0.2901,0.4312,0.4428,0.3129,0.2512,0.2512,0.0,0.0,0.2623,0.3923,0.4494,0.4492,0.4492,0.4492,0.4492,0.4492,0.4492,0.4492,0.4492,0.4492,0.4265,0.296,0.2512,0.2512,0.2512,0.2512,0.2512,0.2512,0.2512,0.2512,0.2512,0.2512,0.2512,0.2512,0.2512,0.2512,0.2512,0.2512,0.2512,0.2512,0.2512,0.2512,0.2512,0.2512,0.2512,0.2512,0.2512,0.2512,0.2512,0.3478,0.4283,0.4455,0.3304,0.2512,0.2512,0.2511,0.3073,0.4437,0.4494,0.4492,0.4492,0.4482,0.4477,0.4477,0.4522,0.4517,0.4517,0.4517,0.4517,0.4517,0.4517,0.4517,0.7291,0.73,0.7362,0.6597,0.6594,0.6747,0.6572,0.6715,0.6686,0.6179,0.6201,0.5885,0.4508,0.4412,0.4502,0.4281,0.4182,0.4121,0.4121,0.4046,0.3932,0.3636,0.3425,0.3398,0.3643,0.3699,0.0,0.0,0.0,0.2849,0.1892,0.1632,0.1481,0.1488,0.169,0.1824,0.1824,0.1608,0.1501,0.1501,0.2254,0.3284,0.4495,0.4216,0.4096,0.4096,0.4096,0.0,0.4139,0.4369,0.4475,0.4522,0.4522,0.4522,0.4522,0.4522,0.4522,0.4522,0.4522,0.4522,0.447,0.4203,0.4096,0.4096,0.4096,0.4096,0.4096,0.4096,0.4096,0.4096,0.4096,0.4096,0.4096,0.4096,0.4096,0.4096,0.4096,0.4096,0.4096,0.4096,0.4096,0.4096,0.4096,0.4096,0.4096,0.4096,0.4096,0.4096,0.4096,0.3245,0.3077,0.4384,0.4268,0.4096,0.4096,0.4089,0.4198,0.4482,0.4473,0.4522,0.4522,0.452,0.452,0.452,0.4519,0.4517,0.4517,0.4517,0.4517,0.4517,0.4517,0.4517,0.7275,0.7379,0.7502,0.6694,0.7042,0.75,0.7265,0.7436,0.7556,0.7184,0.6821,0.6343,0.5479,0.4997,0.466,0.4472,0.4412,0.4367,0.4367,0.4367,0.426,0.4149,0.3918,0.3883,0.3966,0.4015,0.4016,0.3984,0.0,0.374,0.3179,0.2873,0.2722,0.2724,0.2874,0.3005,0.311,0.3005,0.29,0.2745,0.306,0.3624,0.4335,0.447,0.4479,0.4479,0.4479,0.0,0.4525,0.4525,0.4522,0.4517,0.4517,0.4517,0.4517,0.4517,0.4517,0.4517,0.4517,0.4517,0.4519,0.4475,0.4479,0.4479,0.4479,0.4479,0.4479,0.4479,0.4479,0.4479,0.4479,0.4479,0.4479,0.4479,0.4479,0.4479,0.4479,0.4479,0.4479,0.4479,0.4479,0.4479,0.4479,0.4479,0.4479,0.4479,0.4479,0.4479,0.4479,0.3853,0.3684,0.4428,0.4482,0.4479,0.4479,0.4473,0.4525,0.4525,0.452,0.4517,0.4517,0.4517,0.4517,0.4517,0.4517,0.4517,0.4517,0.4517,0.4517,0.4517,0.4517,0.4517,0.7241,0.7379,0.7555,0.692,0.7476,0.8149,0.7908,0.8039,0.8137,0.7926,0.7251,0.6594,0.6263,0.5543,0.4965,0.4768,0.4636,0.458,0.4492,0.4608,0.4714,0.4714,0.4616,0.4513,0.4461,0.4399,0.0,0.4309,0.0,0.0,0.3946,0.3745,0.363,0.3602,0.3629,0.3745,0.3947,0.3949,0.3847,0.3644,0.3987,0.416,0.4165,0.4385,0.4517,0.4517,0.4517,0.0,0.0,0.4517,0.4517,0.4517,0.4517,0.4517,0.4517,0.4517,0.4517,0.4517,0.4517,0.4517,0.4517,0.4517,0.4517,0.4517,0.4517,0.4517,0.4517,0.4517,0.4517,0.4517,0.4517,0.4517,0.4517,0.4517,0.4517,0.4517,0.4517,0.4517,0.4517,0.4517,0.4517,0.4517,0.4517,0.4517,0.4517,0.4517,0.4517,0.4517,0.4517,0.4517,0.4574,0.4691,0.4577,0.4517,0.4517,0.4517,0.457,0.4679,0.4734,0.4789,0.4954,0.4954,0.4954,0.4954,0.4954,0.4954,0.4954,0.4954,0.4954,0.4954,0.4954,0.4954,0.7324,0.7379,0.7691,0.7618,0.7886,0.8286,0.8601,0.8301,0.7912,0.7923,0.7384,0.68,0.6313,0.6116,0.5789,0.5017,0.5396,0.5743,0.5418,0.5957,0.6396,0.6396,0.6256,0.6117,0.6008,0.5707,0.5482,0.5348,0.0,0.0,0.3854,0.3816,0.3708,0.3626,0.3701,0.3816,0.3816,0.3816,0.3816,0.377,0.3921,0.4043,0.4051,0.4334,0.4517,0.4517,0.4517,0.0,0.0,0.4517,0.4517,0.4517,0.4517,0.4517,0.4517,0.4517,0.4517,0.4517,0.4517,0.4517,0.4517,0.4517,0.4517,0.4517,0.4517,0.4517,0.4517,0.4517,0.4517,0.4517,0.4517,0.4517,0.4517,0.4517,0.4517,0.4517,0.4517,0.4517,0.4517,0.4517,0.4517,0.4517,0.4517,0.4517,0.4517,0.4517,0.4517,0.4517,0.4517,0.4517,0.4734,0.5328,0.484,0.4517,0.4517,0.4517,0.4787,0.5378,0.5433,0.5708,0.6369,0.6426,0.6426,0.6426,0.6426,0.6426,0.6426,0.6426,0.6426,0.6426,0.6426,0.6426,0.771,0.7793,0.8057,0.7763,0.8211,0.8795,0.9201,0.9074,0.8756,0.8439,0.7946,0.7363,0.6771,0.6435,0.6122,0.596,0.5985,0.6034,0.6022,0.6338,0.6588,0.6588,0.6561,0.6453,0.0,0.0,0.573,0.5415,0.0,0.0,0.4721,0.4367,0.3988,0.3626,0.3634,0.3665,0.3665,0.3665,0.384,0.4147,0.4322,0.4461,0.4571,0.4748,0.475,0.4517,0.4517,0.0,0.0,0.495,0.5111,0.5166,0.5605,0.5771,0.5716,0.5275,0.5111,0.5111,0.5111,0.5111,0.5166,0.5607,0.5771,0.5609,0.4736,0.4517,0.4517,0.4517,0.4517,0.4517,0.4517,0.4517,0.4517,0.4517,0.4517,0.4517,0.4517,0.4517,0.4517,0.4517,0.4517,0.4517,0.4517,0.4842,0.5111,0.5111,0.5496,0.5771,0.5771,0.5771,0.588,0.6147,0.5546,0.5277,0.5716,0.5771,0.5878,0.6145,0.6147,0.6312,0.6588,0.6588,0.6588,0.6588,0.6588,0.6588,0.6588,0.6588,0.6588,0.6588,0.6588,0.6588,0.8269,0.833,0.852,0.8303,0.8712,0.9302,0.9727,0.9667,0.9359,0.8797,0.8275,0.7704,0.7105,0.6686,0.6477,0.0,0.654,0.6597,0.6633,0.7029,0.7235,0.7235,0.0,0.7195,0.0,0.6683,0.6304,0.0,0.0,0.0,0.5567,0.5173,0.4698,0.41,0.41,0.41,0.41,0.41,0.4314,0.4652,0.496,0.5111,0.5256,0.545,0.5372,0.5117,0.0,0.0,0.0,0.5655,0.5817,0.5871,0.6423,0.6588,0.6532,0.6036,0.5817,0.5817,0.5817,0.5817,0.5928,0.6421,0.6588,0.6423,0.5445,0.5117,0.5117,0.5117,0.5117,0.5117,0.5117,0.5117,0.5117,0.5117,0.5117,0.5117,0.5117,0.5117,0.5117,0.5117,0.5117,0.5117,0.5117,0.5494,0.5817,0.5817,0.6256,0.6588,0.6588,0.6588,0.6696,0.6912,0.647,0.6251,0.6586,0.6588,0.6694,0.6912,0.6912,0.702,0.7238,0.7235,0.7235,0.7235,0.7235,0.7235,0.7235,0.7235,0.7235,0.7235,0.7235,0.7235,0.9106,0.8994,0.9097,0.9476,0.9583,0.9699,1.0176,0.9878,0.9359,0.8797,0.8275,0.7704,0.7105,0.6979,0.6855,0.6459,0.7251,0.774,0.7357,0.8144,0.8755,0.8755,0.8755,0.8694,0.84,0.7826,0.7468,0.0,0.0,0.0,0.6224,0.6181,0.5919,0.5305,0.5262,0.5262,0.5262,0.5262,0.5305,0.531,0.5758,0.5973,0.5993,0.6385,0.6586,0.0,0.0,0.0,0.0,0.6588,0.6588,0.6588,0.6588,0.6588,0.6588,0.6588,0.6588,0.6588,0.6588,0.6588,0.6588,0.6588,0.6588,0.6588,0.6586,0.6588,0.6588,0.6588,0.6588,0.6588,0.6588,0.6588,0.6588,0.6588,0.6588,0.6588,0.6588,0.6588,0.6588,0.6588,0.6588,0.6588,0.6588,0.6586,0.6588,0.6588,0.6588,0.6588,0.6588,0.6588,0.6858,0.7613,0.7667,0.7399,0.6642,0.6588,0.6912,0.7616,0.7667,0.7993,0.8752,0.8755,0.8755,0.8755,0.8755,0.8755,0.8755,0.8755,0.8755,0.8755,0.8755,0.8755,0.9551,0.9398,0.9432,0.9563,0.9592,0.9709,1.0181,1.0162,0.9799,0.8882,0.8557,0.8144,0.7189,0.6979,0.7102,0.7368,0.7674,0.0,0.8284,0.8587,0.8808,0.8808,0.8808,0.8691,0.0,0.0,0.0,0.0,0.0,0.0,0.6771,0.6725,0.6295,0.5348,0.5305,0.5305,0.5305,0.5305,0.5524,0.5922,0.6248,0.644,0.6557,0.6892,0.0,0.0,0.0,0.0,0.0,0.7128,0.7343,0.7399,0.7883,0.8103,0.8049,0.756,0.7343,0.7343,0.7343,0.7343,0.7453,0.7937,0.8103,0.8103,0.8103,0.7399,0.6588,0.6588,0.6588,0.6588,0.6588,0.6588,0.6588,0.6588,0.6588,0.6588,0.6588,0.6588,0.6588,0.6588,0.6588,0.6588,0.6588,0.702,0.7343,0.7343,0.7777,0.8103,0.8103,0.8103,0.8212,0.8427,0.8427,0.8371,0.8099,0.8103,0.8209,0.8427,0.8427,0.8537,0.8804,0.8808,0.8808,0.8808,0.8808,0.8808,0.8808,0.8808,0.8808,0.8808,0.8808,0.8808,0.9876,0.9878,0.9878,0.9878,0.9878,0.9951,1.022,1.0283,1.004,0.9199,0.8837,0.8431,0.7523,0.7245,0.7311,0.7692,0.7949,0.8227,0.8594,0.8738,0.8808,0.8808,0.0,0.0,0.0,0.817,0.0,0.0,0.0,0.0,0.6979,0.6979,0.668,0.5947,0.5947,0.5947,0.5947,0.5947,0.6124,0.6523,0.6907,0.7124,0.7239,0.7678,0.0,0.0,0.0,0.0,0.0,0.794,0.8103,0.8156,0.8643,0.8808,0.8755,0.8265,0.8103,0.8103,0.8103,0.8103,0.8212,0.8646,0.8808,0.8808,0.8808,0.8156,0.745,0.745,0.745,0.745,0.745,0.745,0.745,0.745,0.745,0.745,0.745,0.745,0.745,0.745,0.745,0.745,0.745,0.783,0.8103,0.8103,0.848,0.8808,0.8808,0.8808,0.8808,0.8808,0.8808,0.8808,0.8808,0.8808,0.8808,0.8808,0.8808,0.8808,0.8808,0.8808,0.8808,0.8808,0.8808,0.8808,0.8808,0.8808,0.8808,0.8808,0.8808,0.8808,0.0,1.0259,1.0283,1.0283,1.0283,1.0283,1.0283,1.0283,0.0,0.9562,0.9039,0.8525,0.7983,0.7676,0.7527,0.757,0.8051,0.8383,0.0,0.8637,0.0,0.0,0.8857,0.0,0.8778,0.0,0.0,0.0,0.0,0.0,0.7066,0.7066,0.7024,0.7021,0.7024,0.7024,0.6979,0.6979,0.6979,0.6985,0.7593,0.7882,0.7902,0.854,0.0,0.0,0.0,0.0,0.0,0.8808,0.8808,0.8808,0.8808,0.8808,0.8808,0.8808,0.8808,0.8808,0.8808,0.8808,0.8808,0.8808,0.8808,0.8808,0.8808,0.8808,0.8808,0.8808,0.8808,0.8808,0.8808,0.8808,0.8808,0.8808,0.8808,0.8808,0.8808,0.8808,0.8808,0.8808,0.8808,0.8808,0.8808,0.8808,0.8808,0.8808,0.8808,0.8808,0.8808,0.8808,0.8808,0.8808,0.8808,0.8808,0.8808,0.8808,0.8808,0.8808,0.8808,0.8808,0.8808,0.8808,0.8808,0.8808,0.886,0.8906,0.8959,0.8959,0.8959,0.8959,0.8959,0.8959,0.9174,0.0,1.0283,1.0283,1.0283,1.0283,0.0,1.0283,1.004,0.9079,0.8801,0.8474,0.7715,0.7551,0.7664,0.8131,0.833,0.845,0.8674,0.8764,0.0,0.8808,0.926,0.9268,0.8548,0.0,0.0,0.0,0.0,0.7701,0.7701,0.7701,0.7489,0.7024,0.7447,0.7447,0.7021,0.6979,0.6979,0.6985,0.7593,0.7882,0.7902,0.854,0.0,0.0,0.0,0.0,0.8808,0.8808,0.8808,0.8808,0.8808,0.8808,0.8808,0.8808,0.8808,0.8808,0.8808,0.8808,0.8808,0.8808,0.8808,0.8808,0.8808,0.8808,0.8808,0.8808,0.8808,0.8808,0.8808,0.8808,0.8808,0.8808,0.8808,0.8808,0.8808,0.8808,0.8808,0.8808,0.8808,0.8808,0.8808,0.8808,0.8808,0.8808,0.8808,0.8808,0.8808,0.8808,0.8808,0.8808,0.8808,0.8808,0.8808,0.8808,0.8808,0.8808,0.8808,0.8808,0.8808,0.8808,0.8808,0.8808,0.9312,0.9814,1.0316,1.0316,1.0316,1.0316,1.0316,1.0316,0.8505,0.9419,1.0281,1.0531,1.0406,1.02,1.02,0.989,0.9399,0.8837,0.8521,0.8257,0.7942,0.7763,0.7829,0.8297,0.8487,0.0,0.0,0.0,0.8607,0.8607,0.9023,0.9105,0.0,0.0,0.0,0.0,0.0,0.8279,0.8279,0.8279,0.8107,0.781,0.8107,0.7859,0.7024,0.6979,0.7091,0.7231,0.7705,0.7999,0.815,0.8601,0.8808,0.0,0.0,0.0,0.8808,0.8808,0.8808,0.8808,0.8808,0.8808,0.8808,0.8808,0.8808,0.8808,0.8808,0.8808,0.8808,0.8808,0.8808,0.8808,0.8808,0.8808,0.8808,0.8808,0.8808,0.8808,0.8808,0.8808,0.8808,0.8808,0.8808,0.8808,0.8808,0.8808,0.8808,0.8808,0.8808,0.8808,0.8808,0.8808,0.8808,0.8808,0.8808,0.8906,0.9211,0.926,0.9361,0.9662,0.9714,0.9714,0.9714,0.9714,0.9562,0.926,0.9566,0.9714,0.9714,0.9714,0.9714,0.9714,1.0064,1.0415,1.0813,1.0813,1.0813,1.0813,1.0813,1.0813,0.7903,0.8933,0.9958,1.045,1.0266,0.9933,0.9933,0.0,0.8733,0.8704,0.8349,0.8078,0.8271,0.8146,0.0,0.0,0.0,0.0,0.8808,0.8594,0.8474,0.8527,0.8756,0.0,0.0,0.0,0.0,0.0,0.0,0.8837,0.8837,0.8837,0.8801,0.872,0.8797,0.83,0.7269,0.7269,0.7386,0.7647,0.8008,0.8321,0.8577,0.8826,0.8959,0.0,0.0,0.0,0.8959,0.9061,0.9061,0.8959,0.8959,0.8906,0.8808,0.8808,0.8808,0.8808,0.8808,0.8808,0.8808,0.8808,0.8857,0.8959,0.8959,0.9008,0.911,0.911,0.8959,0.8808,0.891,0.8857,0.8857,0.9057,0.9008,0.8959,0.9057,0.911,0.911,0.911,0.911,0.911,0.911,0.911,0.911,0.911,0.911,0.9309,0.9865,0.9965,1.0163,1.0767,1.0813,1.0813,1.0813,1.0914,1.0712,1.0167,1.0513,1.0813,1.0813,1.0813,1.0868,1.0965,1.0965,1.1015,1.1124,1.1124,1.1124,1.1124,1.1124,1.1124,0.7232,0.8121,0.8798,0.8997,0.9153,0.9251,0.9251,0.9123,0.8956,0.0,0.0,0.8522,0.8421,0.8372,0.8404,0.0,0.0,0.8808,0.0,0.0,0.8799,0.903,0.0,0.0,0.0,0.0,0.0,0.0,0.0,0.9359,0.9359,0.9359,0.9159,0.8716,0.9159,0.9075,0.8427,0.8431,0.836,0.8184,0.9034,0.9381,0.9248,0.9519,0.9666,0.0,0.0,0.9666,0.9714,1.0265,1.0167,0.9666,0.9666,0.9312,0.8808,0.8808,0.8808,0.8808,0.8808,0.8808,0.8808,0.8808,0.9159,0.9666,0.9666,1.0064,1.0513,1.0513,0.9662,0.8906,0.9514,0.9211,0.9113,1.0214,1.0064,0.9814,1.0364,1.0513,1.0513,1.0513,1.0513,1.0513,1.0513,1.0513,1.0513,1.0513,1.0513,1.0513,1.0614,1.0665,1.0665,1.0767,1.0813,1.0813,1.0813,1.1312,1.1616,1.1512,1.1065,1.0813,1.0813,1.0813,1.1065,1.1665,1.1665,1.1931,1.2569,1.2569,1.2569,1.2569,1.2569,1.2569,0.656,0.7215,0.7745,0.7981,0.8677,0.9248,0.9248,0.8833,0.8438,0.0,0.0,0.0,0.0,0.0,0.8467,0.8761,0.0,0.8754,0.8594,0.8437,0.8318,0.0,0.0,0.0,0.0,0.0,0.0,0.0,0.0,0.0,0.9917,0.9917,0.9799,0.9558,0.9799,0.9799,0.9562,0.9562,0.9265,0.8743,0.9391,0.9748,0.9821,1.0209,1.0364,1.0364,0.0,1.0364,1.0364,1.0661,1.0614,1.0364,1.0364,1.0163,0.9865,0.9865,0.9865,0.9865,0.9865,0.9865,0.9865,0.9865,1.0064,1.0364,1.0364,1.0564,1.0813,1.0813,1.0364,0.9965,1.0265,1.0111,1.0064,1.0665,1.0564,1.0415,1.0712,1.0813,1.0813,1.0813,1.0813,1.0813,1.0813,1.0813,1.0813,1.0813,1.0813,1.0914,1.1312,1.1362,1.1471,1.1895,1.1945,1.1945,1.1945,1.2197,1.2393,1.2393,1.2098,1.1945,1.1945,1.1945,1.2098,1.2398,1.2393,1.2559,1.2881,1.2881,1.2881,1.2881,1.2881,1.2881,0.6055,0.6533,0.7027,0.7468,0.8278,0.8996,0.9155,0.8518,0.7922,0.0,0.0,0.0,0.0,0.8424,0.0,0.8671,0.8707,0.8679,0.8598,0.8214,0.7909,0.0,0.0,0.0,0.0,0.0,0.0,0.0,0.0,0.0,1.0283,1.0283,1.0283,1.0283,1.0283,1.0283,1.0283,1.0283,0.996,0.9294,0.9879,1.0254,1.0441,1.0851,1.1011,1.1011,1.1011,1.1011,1.1065,1.1225,1.1174,1.1011,1.1011,1.0965,1.0813,1.0813,1.0813,1.0813,1.0813,1.0813,1.0813,1.0813,1.0918,1.1011,1.1011,1.117,1.1279,1.1279,1.1279,1.1275,1.107,1.0914,1.0864,1.1225,1.117,1.107,1.1275,1.1279,1.1279,1.1279,1.1279,1.1305,1.1446,1.1408,1.1408,1.1408,1.1408,1.1576,1.199,1.208,1.229,1.2827,1.2881,1.2881,1.2881,1.2881,1.2881,1.2881,1.2881,1.2881,1.2881,1.2881,1.2881,1.2881,1.2881,1.2935,1.3027,1.3027,1.3081,1.3174,1.3071,1.3027,0.5927,0.6421,0.6824,0.7685,0.7758,0.7767,0.8342,0.8192,0.8034,0.8631,0.0,0.0,0.0,0.8424,0.838,0.8404,0.8407,0.8591,0.9096,0.0,0.0,0.0,0.0,0.0,0.0,0.0,0.0,0.0,0.0,0.0,1.0283,1.0283,0.0,1.0283,1.0283,1.0283,1.0283,1.0283,1.0165,0.9849,1.095,1.1365,1.1152,1.1536,1.1715,1.1715,1.1715,1.1715,1.1769,1.2461,1.2349,1.1715,1.1715,1.1366,1.0813,1.0813,1.0813,1.0813,1.0813,1.0813,1.0813,1.0813,1.1216,1.1715,1.1715,1.2192,1.2774,1.2774,1.2774,1.2613,1.1922,1.1266,1.1124,1.2466,1.2241,1.1927,1.2618,1.2774,1.2774,1.2774,1.2774,1.2846,1.3237,1.3304,1.3304,1.3304,1.3304,1.3215,1.2876,1.2827,1.2827,1.2881,1.2881,1.2881,1.2881,1.2881,1.2881,1.2881,1.2881,1.2881,1.2881,1.2881,1.2881,1.2881,1.2881,1.3071,1.3462,1.3462,1.3662,1.398,1.3643,1.3462,0.5484,0.6238,0.6984,0.7508,0.7597,0.7671,0.0,0.8287,0.832,0.8724,0.8808,0.0,0.0,0.0,0.8317,0.813,0.8096,0.8222,0.8575,0.0,0.0,0.0,0.0,0.0,0.0,0.0,0.0,0.0,0.0,0.0,0.0,1.0137,0.0,1.0283,1.0283,1.0283,1.0283,1.0283,1.0239,1.0158,1.1141,1.1693,1.185,1.2262,1.2501,1.2501,1.2501,1.2501,1.2505,1.2774,1.272,1.2501,1.2501,1.2353,1.2103,1.2103,1.2103,1.2103,1.2103,1.2103,1.2103,1.2103,1.23,1.2501,1.2501,1.2666,1.2881,1.2881,1.2881,1.2827,1.2559,1.2304,1.2255,1.2774,1.2666,1.2559,1.2827,1.2881,1.2959,1.3223,1.3267,1.3403,1.3823,1.3896,1.3809,1.355,1.3506,1.3354,1.2935,1.2881,1.2881,1.2881,1.2881,1.2881,1.2881,1.312,1.3267,1.3267,1.3022,1.2881,1.2881,1.2881,1.3008,1.3267,1.3267,1.3477,1.3896,1.3896,1.3927,1.4077,1.3917,1.376,0.5181,0.6085,0.6981,0.7416,0.751,0.7644,0.812,0.816,0.82,0.8591,0.8517,0.8323,0.8172,0.0,0.0,0.0,0.7925,0.8169,0.0,0.0,0.0,0.0,0.0,0.0,0.0,0.0,0.0,0.0,0.0,0.0,0.0,0.0,0.0,0.0,1.0283,1.0283,1.0283,1.0283,1.0454,1.0734,1.1327,1.1719,1.2036,1.2617,1.2881,1.2881,1.2881,1.2881,1.2881,1.2881,1.2881,1.2881,1.2881,1.2881,1.2881,1.2881,1.2881,1.2881,1.2881,1.2881,1.2881,1.2881,1.2881,1.2881,1.2881,1.2881,1.2881,1.2881,1.2881,1.2881,1.2881,1.2881,1.2881,1.2881,1.2881,1.2881,1.2881,1.2983,1.3164,1.3452,1.3613,1.3838,1.4268,1.4341,1.4243,1.3955,1.3911,1.3706,1.3149,1.3081,1.3027,1.2891,1.2881,1.2881,1.2881,1.3145,1.3364,1.3501,1.3237,1.3081,1.3081,1.3081,1.3213,1.3501,1.3638,1.3916,1.4341,1.4542,1.4607,1.4531,1.4602,1.4309,0.5088,0.5948,0.6737,0.7362,0.751,0.7548,0.7859,0.7692,0.7688,0.8296,0.794,0.7513,0.751,0.751,0.0,0.7506,0.7951,0.0,0.0,0.0,0.0,0.0,0.0,0.0,0.0,0.0,0.0,0.0,0.0,0.0,0.0,0.0,0.0,0.0,1.0322,1.0322,1.0322,1.0322,1.0753,1.1596,1.1601,1.1606,1.1645,1.2528,1.2881,1.2881,1.2881,1.2881,1.2881,1.2881,1.2881,1.2881,1.2881,1.2881,1.2881,1.2881,1.2881,1.2881,1.2881,1.2881,1.2881,1.2881,1.2881,1.2881,1.2881,1.2881,1.2881,1.2881,1.2881,1.2881,1.2881,1.2881,1.2881,1.2881,1.2881,1.2881,1.2886,1.3213,1.3506,1.352,1.3853,1.4277,1.4712,1.479,1.479,1.4785,1.479,1.4478,1.3613,1.3511,1.3354,1.2978,1.2939,1.2939,1.2939,1.2944,1.3126,1.3491,1.352,1.352,1.3516,1.3516,1.3516,1.3516,1.3926,1.4351,1.4846,1.5579,1.575,1.54,1.578,1.5278,0.4843,0.578,0.6765,0.7333,0.751,0.7548,0.0,0.8127,0.0,0.0,0.8193,0.7725,0.755,0.7822,0.0,0.0,0.0,0.0,0.0,0.0,0.0,0.0,0.0,0.0,0.0,0.0,0.0,0.0,0.0,0.0,0.0,0.0,0.0,0.0,1.0797,1.0986,1.1367,1.1367,1.167,1.2327,1.2569,1.2658,1.2542,1.2759,1.2881,1.2881,1.2881,1.2881,1.2881,1.2881,1.2881,1.2881,1.2881,1.2881,1.2881,1.2881,1.2881,1.2881,1.2881,1.2881,1.2881,1.2881,1.2881,1.2881,1.2881,1.2881,1.2881,1.2881,1.2881,1.2881,1.2881,1.2881,1.2881,1.2881,1.2881,1.2964,1.3257,1.3423,1.3686,1.4292,1.4507,1.4727,1.5156,1.5225,1.5127,1.4829,1.526,1.5244,1.4392,1.4056,1.3987,1.4073,1.4355,1.4749,1.5317,1.5622,1.5815,1.5956,1.5962,1.5353,1.396,1.3945,1.4342,1.5161,1.5301,1.5802,1.6763,1.6978,1.7049,1.6962,1.7043,1.6775,0.4781,0.5716,0.6612,0.7301,0.751,0.7647,0.8243,0.0,0.0,0.0,0.8305,0.79,0.774,0.7814,0.0,0.0,0.0,0.0,0.0,0.0,0.0,0.0,0.0,0.0,0.0,0.0,0.0,0.0,0.0,0.0,0.0,0.0,0.0,0.0,1.1319,1.1468,1.1811,1.1811,1.2058,1.2547,1.2989,1.3216,1.3305,1.3253,1.3377,1.361,1.361,1.361,1.361,1.361,1.361,1.361,1.361,1.361,1.361,1.361,1.361,1.361,1.361,1.361,1.361,1.361,1.361,1.361,1.361,1.361,1.361,1.361,1.361,1.361,1.361,1.361,1.3472,1.3022,1.306,1.3265,1.3253,1.3963,1.4666,1.4886,1.5495,1.5986,1.6255,1.6296,1.6208,1.5944,1.6174,1.6162,1.5638,1.5256,1.5105,1.5273,1.554,1.5873,1.635,1.6621,1.6818,1.701,1.7021,1.6549,1.5543,1.5318,1.5611,1.631,1.6499,1.6896,1.7578,1.7901,1.7901,1.7627,1.7901,1.7639,0.4808,0.5655,0.6327,0.7214,0.751,0.7804,0.8782,0.8645,0.8435,0.8651,0.0,0.7933,0.7933,0.7674,0.7597,0.0,0.0,0.0,0.0,0.0,0.0,0.0,0.0,0.0,0.0,0.0,0.0,0.0,0.0,0.0,0.0,0.0,0.0,1.1847,1.1847,1.1884,1.192,1.192,1.2127,0.0,1.3065,1.3563,1.4074,1.3928,1.4195,1.4703,1.4703,1.4703,1.4703,1.4703,1.4703,1.4703,1.4703,1.4703,1.4703,1.4703,1.4703,1.4703,1.4703,1.4703,1.4703,1.4703,1.4703,1.4703,1.4703,1.4703,1.4703,1.4703,1.4703,1.4703,1.4703,1.4703,1.4427,1.3339,1.3467,1.3758,1.33,1.4781,1.6053,1.5497,1.6579,1.7578,1.7578,1.7578,1.7627,1.7682,1.7311,1.7072,1.7079,1.6723,1.6519,1.6575,1.6609,1.6637,1.6688,1.6732,1.6877,1.7213,1.7241,1.7446,1.778,1.7314,1.7066,1.7074,1.7444,1.7669,1.773,1.8377,1.8401,1.7846,1.8495,1.8254,0.437,0.5043,0.5709,0.6583,0.7462,0.8131,0.8214,0.8479,0.8725,0.8762,0.811,0.7537,0.7537,0.779,0.0,0.0,0.0,0.0,0.0,0.0,0.0,0.0,0.0,0.0,0.0,0.0,0.0,0.0,0.0,0.0,0.0,0.0,0.0,1.236,1.236,1.2544,1.2908,1.2908,1.3171,0.0,1.3846,1.4412,1.5281,1.4743,1.4566,1.4703,1.4703,1.4703,1.4703,1.4703,1.4703,1.4703,1.4703,1.4703,1.4703,1.4703,1.4703,1.4703,1.4703,1.4703,1.4703,1.4703,1.4703,1.4703,1.4703,1.4703,1.4703,1.4703,1.4703,1.4703,1.4703,1.4703,1.4612,1.4387,1.4427,1.4683,1.5362,1.5886,1.6355,1.6948,1.7373,1.7578,1.7578,1.7578,1.7797,1.8394,1.7924,1.7557,1.7853,1.7582,1.744,1.7733,1.8046,1.8446,1.9033,1.9084,1.9134,1.9193,1.9199,1.9248,1.9307,1.8122,1.7565,1.7686,1.7785,1.812,1.8724,1.8876,1.9086,1.9313,1.9475,1.9414,0.3951,0.4648,0.555,0.6556,0.7482,0.8115,0.8028,0.8305,0.8611,0.8611,0.8235,0.7892,0.7892,0.0,0.0,0.0,0.0,0.0,0.0,0.0,0.0,0.0,0.0,0.0,0.0,0.0,0.0,0.0,0.0,0.0,0.0,1.2241,1.2838,1.2838,1.2838,1.2943,1.3198,1.3198,1.3342,1.3659,1.3959,1.4664,1.5712,1.5591,1.5421,1.5147,1.5427,1.5567,1.5567,1.5567,1.5567,1.5567,1.5567,1.5567,1.5567,1.5567,1.5567,1.5567,1.5567,1.5567,1.5567,1.5567,1.5567,1.5567,1.5567,1.5567,1.5567,1.5567,1.5567,1.5567,1.5567,1.5567,1.5567,1.5567,1.5519,1.5561,1.5809,1.6755,1.7544,1.7456,1.8108,1.8584,1.8295,1.8501,1.8768,1.915,1.8874,1.8725,1.8888,1.8764,1.8719,1.8882,1.9096,1.9365,1.9747,1.9805,1.9805,1.9805,1.9805,1.9805,1.9805,1.9044,1.8695,1.8794,1.855,1.8764,1.9397,1.9152,1.9296,1.9805,1.9805,1.9805,0.3483,0.4399,0.5554,0.6709,0.7521,0.7966,0.7905,0.816,0.8386,0.8375,0.8386,0.8386,0.8386,0.0,0.0,0.0,0.0,0.0,0.0,0.0,0.0,0.0,0.0,0.0,0.0,0.0,0.0,0.0,0.0,0.0,1.1701,1.2722,1.3357,1.3425,1.3357,1.3329,1.3329,1.3391,1.3391,1.3335,1.3986,1.4744,1.5549,1.6201,1.6188,1.577,1.6281,1.6515,1.6515,1.6515,1.6515,1.6515,1.6515,1.6515,1.6515,1.6515,1.6515,1.6515,1.6515,1.6515,1.6515,1.6515,1.6515,1.6515,1.6515,1.6515,1.6515,1.6515,1.6515,1.6515,1.6515,1.6515,1.6515,1.6515,1.6563,1.6449,1.6024,1.74,1.851,1.7727,1.8734,1.956,1.9221,1.9522,1.9805,1.9805,1.9805,1.9805,1.9805,1.9805,1.9805,1.9805,1.9805,1.9805,1.9805,1.9805,1.9805,1.9805,1.9805,1.9805,1.9805,1.9805,1.9805,1.9805,1.929,1.924,1.9666,1.924,1.9296,1.9805,1.9805,1.9805,0.3033,0.4202,0.5427,0.6703,0.7521,0.7901,0.0,0.0,0.8391,0.0,0.8322,0.8322,0.0,0.0,0.0,0.0,0.0,0.0,0.0,0.0,0.0,0.0,0.0,0.0,0.0,0.0,0.0,0.0,0.0,0.0,1.2146,1.3178,1.396,1.431,1.3993,1.3802,1.3802,1.4149,1.4149,1.3815,1.4715,1.5043,1.4859,1.5886,1.6369,1.638,1.6472,1.6515,1.6515,1.6515,1.6515,1.6515,1.6515,1.6515,1.6515,1.6515,1.6515,1.6515,1.6515,1.6515,1.6515,1.6515,1.6515,1.6515,1.6515,1.6515,1.6515,1.6515,1.6515,1.6515,1.6515,1.6515,1.6515,1.6515,1.6904,1.7364,1.7737,1.7734,1.7859,1.864,1.8927,1.9252,1.9635,1.9754,1.9805,1.9805,1.9805,1.9805,1.9805,1.9805,1.9805,1.9805,1.9805,1.9805,1.9805,1.9805,1.9805,1.9805,1.9805,1.9805,1.9805,1.9805,1.9805,1.9805,1.929,1.9064,1.9133,1.9008,1.9296,1.9805,1.9805,1.9805,0.3101,0.425,0.5434,0.6313,0.728,0.7942,0.7788,0.8241,0.8669,0.865,0.8797,0.0,0.0,0.0,0.0,0.0,0.0,0.0,0.0,0.0,0.0,0.0,0.0,0.0,0.0,0.0,0.0,0.0,0.0,1.2239,1.2462,1.3229,1.3931,1.4487,1.4342,1.4246,1.4246,1.4406,1.4406,1.4253,1.4634,1.4909,1.5045,1.5528,1.5973,1.6382,1.6462,1.6515,1.6515,1.6515,1.6515,1.6515,1.6515,1.6515,1.6515,1.6515,1.6515,1.6515,1.6515,1.6515,1.6515,1.6515,1.6515,1.6515,1.6515,1.6515,1.6515,1.6515,1.6515,1.6515,1.6515,1.6515,1.6597,1.6923,1.72,1.762,1.848,1.8229,1.8078,1.8869,1.8977,1.9189,1.9717,1.9805,1.9805,1.9805,1.9805,1.9805,1.9805,1.9805,1.9805,1.9805,1.9805,1.9946,2.0352,2.0003,1.9952,2.0352,2.0352,2.0352,2.0352,2.0663,2.0848,2.0848,1.9663,1.9171,1.9459,1.9171,1.9296,1.9805,1.9805,1.9805,0.318,0.4216,0.5392,0.6096,0.7171,0.8036,0.0,0.0,0.9155,0.0,0.9562,0.0,0.0,0.0,0.0,0.0,0.0,0.0,0.0,0.0,0.0,0.0,0.0,0.0,0.0,0.0,0.0,0.0,0.0,1.2239,1.2822,1.3345,1.4016,1.48,1.4721,1.4658,1.4658,1.4658,1.4658,1.4658,1.4783,1.4991,1.5244,1.5556,1.5983,1.6449,1.6608,1.6744,1.6915,1.6915,1.6915,1.6873,1.6752,1.6716,1.6716,1.6716,1.6637,1.6515,1.6674,1.6595,1.6515,1.6515,1.6515,1.6515,1.6515,1.6515,1.6515,1.6515,1.6515,1.6515,1.6515,1.6628,1.6885,1.7479,1.7734,1.802,1.8637,1.8738,1.8757,1.9177,1.9393,1.9652,2.0186,2.0276,2.0276,2.0276,2.0276,2.0276,2.0276,2.0276,2.0276,2.0276,2.0276,2.0477,2.0973,2.0577,2.0484,2.1022,2.0894,2.0894,2.1022,2.1293,2.1561,2.1697,2.0347,1.9791,2.0048,1.9654,1.9667,2.0055,2.0188,2.0276,0.2965,0.4091,0.5191,0.6314,0.729,0.8213,0.0,0.0,0.9857,1.0467,1.0625,0.0,0.0,0.0,0.0,0.0,0.0,0.0,0.0,0.0,0.0,0.0,0.0,0.0,0.0,0.0,0.0,0.0,0.0,1.2885,1.3255,1.3775,1.4573,1.5711,1.5292,1.5066,1.5066,1.5066,1.5066,1.5066,1.5514,1.55,1.516,1.6284,1.6821,1.6879,1.7024,1.7413,1.802,1.802,1.802,1.798,1.747,1.7271,1.7271,1.7271,1.6957,1.6558,1.707,1.6915,1.6515,1.6515,1.6515,1.6515,1.6515,1.6515,1.6515,1.6515,1.6515,1.6515,1.6515,1.6923,1.7511,1.8133,1.8636,1.8884,1.8358,1.9126,1.9898,1.9938,2.0394,2.0981,2.1505,2.1609,2.1609,2.1609,2.1609,2.1609,2.1609,2.1609,2.1609,2.1609,2.1609,2.1609,2.1656,2.1609,2.1609,2.1656,2.1119,2.1071,2.1609,2.1113,2.1119,2.1697,2.1622,2.1308,2.0752,2.0726,2.0726,2.0746,2.1328,2.1609,0.2684,0.3887,0.5113,0.5935,0.7154,0.8443,0.9573,1.0169,1.0721,1.1548,1.1347,0.0,0.0,0.0,0.0,0.0,0.0,0.0,0.0,0.0,0.0,0.0,0.0,0.0,0.0,0.0,0.0,0.0,0.0,0.0,1.2964,1.3159,1.3853,1.5104,1.4994,1.5123,1.5544,1.5544,1.5544,1.5544,1.5704,1.5704,1.5558,1.5993,1.6404,1.6792,1.7289,1.7711,1.8099,1.8099,1.8099,1.8059,1.79,1.782,1.782,1.782,1.7706,1.7544,1.7747,1.7706,1.7544,1.7544,1.7544,1.7544,1.7544,1.7544,1.7544,1.7544,1.7544,1.7544,1.7544,1.7993,1.8751,1.9741,2.0361,2.069,2.0469,2.0779,2.1009,2.0647,2.1052,2.1462,2.1662,2.1697,2.1697,2.1697,2.1697,2.1697,2.1697,2.1697,2.1697,2.1697,2.1697,2.1845,2.2307,2.1953,2.1892,2.23,2.2128,2.2121,2.2346,2.2529,2.2711,2.2935,2.2529,2.2007,2.139,2.139,2.139,2.1383,2.1609,2.1697,0.2541,0.3502,0.4404,0.0,0.6886,0.8413,0.9955,1.0768,1.1428,1.2295,1.2206,0.0,0.0,0.0,0.0,0.0,0.0,0.0,0.0,0.0,0.0,0.0,0.0,0.0,0.0,0.0,0.0,0.0,0.0,0.0,1.2763,1.2801,1.3415,1.4745,1.479,1.5104,1.5791,1.5799,1.5799,1.5799,1.5799,1.5799,1.5814,1.6002,1.6331,1.6749,1.7406,1.7939,1.8321,1.8527,1.865,1.8612,1.8458,1.8373,1.8373,1.8373,1.8256,1.8138,1.8295,1.8256,1.8099,1.8099,1.8099,1.8099,1.8099,1.8099,1.8147,1.8387,1.8443,1.8498,1.8706,1.9377,2.0274,2.1278,2.1942,2.2363,2.2363,2.2186,2.1934,2.1549,2.1963,2.2363,2.2363,2.2363,2.2363,2.2363,2.2363,2.2363,2.2363,2.2363,2.2363,2.2363,2.2363,2.2515,2.2965,2.2613,2.2515,2.2965,2.2792,2.2792,2.3009,2.3194,2.337,2.3602,2.3194,2.2763,2.2363,2.2139,2.2053,2.2046,2.2225,2.2363,0.0,0.0,0.0,0.0,0.0,0.0,1.0009,0.0,1.1905,1.2636,0.0,0.0,0.0,0.0,0.0,0.0,0.0,0.0,0.0,0.0,0.0,0.0,0.0,0.0,0.0,0.0,0.0,0.0,0.0,1.2074,1.2741,1.2793,1.3408,1.4685,1.4767,1.5124,1.5761,1.5791,1.5799,1.5799,1.5799,1.5799,1.5821,1.6398,1.6682,1.6719,1.7376,1.8059,1.8695,1.9383,1.9667,1.9646,1.9125,1.893,1.893,1.893,1.8574,1.8217,1.8734,1.8574,1.8138,1.8138,1.8138,1.8138,1.8138,1.8138,1.8309,1.8954,1.9127,1.9322,1.9984,2.1019,2.2026,2.2588,2.3179,2.358,2.3602,2.315,2.2747,2.2747,2.3194,2.3602,2.3602,2.3602,2.3602,2.3602,2.3602,2.3602,2.3602,2.3602,2.3602,2.3602,2.3602,2.3602,2.3602,2.3602,2.3602,2.3602,2.3061,2.2972,2.3559,2.3061,2.3009,2.3595,2.3602,2.3602,2.3602,2.3009,2.2747,2.274,2.3326,2.3602,0.1785,0.0,0.0,0.0,0.0,0.0,0.0,0.0,0.0,1.2154,0.0,0.0,0.0,0.0,0.0,0.0,0.0,0.0,0.0,0.0,0.0,0.0,0.0,0.0,0.0,0.0,0.0,0.0,1.1797,1.188,1.2059,1.2546,1.2973,1.3348,1.4281,1.4879,1.5059,1.5566,1.5799,1.5799,1.5799,1.5799,1.5814,1.5986,1.6039,1.6076,1.6704,1.7085,1.7339,1.8508,1.9256,1.9682,1.9522,1.9486,1.9486,1.9486,1.9369,1.9288,1.9442,1.9369,1.9251,1.9251,1.9251,1.9251,1.9251,1.9251,1.9383,2.0057,2.024,2.0536,2.1667,2.1872,2.2028,2.3118,2.3173,2.3056,2.3505,2.3465,2.3334,2.3334,2.3465,2.3602,2.3602,2.3602,2.3602,2.3602,2.3602,2.3602,2.3602,2.3602,2.3602,2.3602,2.3602,2.3602,2.3602,2.3602,2.3602,2.3602,2.3457,2.3421,2.3595,2.3421,2.3421,2.3602,2.3602,2.3602,2.3602,2.3421,2.3334,2.3377,2.3508,2.3602,0.0876,0.2225,0.3533,0.4034,0.0,0.0,0.8059,0.8786,0.0,0.0,0.0,0.0,0.0,0.0,0.0,0.0,0.0,0.0,0.0,0.0,0.0,0.0,0.0,0.0,0.0,0.0,0.0,1.182,1.1797,1.1797,1.1797,1.2164,1.2516,1.2793,1.3565,1.4221,1.4782,1.5199,1.5529,1.5799,1.5799,1.5799,1.5799,1.5799,1.5799,1.5821,1.6174,1.6465,1.6771,1.7533,1.844,1.9301,1.9577,1.9682,1.9682,1.9682,1.9682,1.9682,1.9682,1.9682,1.9682,1.9682,1.9682,1.9682,1.9682,1.9682,1.9884,2.0849,2.1508,2.2099,2.2862,2.2779,2.2682,2.3423,2.3325,2.3161,2.352,2.3602,2.3602,2.3602,2.3602,2.3602,2.3602,2.3602,2.3602,2.3602,2.3602,2.3602,2.3602,2.3602,2.3602,2.3602,2.3602,2.3602,2.3602,2.3602,2.3602,2.3602,2.3602,2.3602,2.3602,2.3602,2.3602,2.3602,2.3602,2.3602,2.3602,2.3602,2.3602,2.3602,2.3602,2.3602,-0.0,0.1666,0.3441,0.3366,0.4366,0.0,0.7065,0.8027,0.9002,0.0,0.0,0.0,0.0,0.0,0.0,0.0,0.0,0.0,0.0,0.0,0.0,0.0,0.0,0.0,1.2921,1.2921,1.2636,1.1954,1.1842,1.1797,1.1797,1.1797,1.2089,1.2719,1.2794,1.3415,1.4716,1.4779,1.5154,1.5799,1.5799,1.5799,1.5799,1.5799,1.5799,1.5799,1.5799,1.6099,1.6614,1.6682,1.7488,1.8762,1.9346,1.9622,1.9682,1.9682,1.9682,1.9682,1.9682,1.9682,1.9682,1.9682,1.9682,1.9682,1.9682,1.9682,1.9952,2.1231,2.2503,2.3497,2.3497,2.3497,2.352,2.358,2.3542,2.352,2.3587,2.3602,2.3602,2.3602,2.3602,2.3602,2.3602,2.3602,2.3602,2.3602,2.3602,2.3602,2.3602,2.3602,2.3602,2.3602,2.3602,2.3602,2.3602,2.3602,2.3602,2.3602,2.3602,2.3602,2.3602,2.3602,2.3602,2.3602,2.3602,2.3602,2.3602,2.3602,2.3602,2.3602,2.3602,2.3602,-0.0,0.1211,0.2642,0.3376,0.4085,0.0,0.5725,0.614,0.6837,0.0,0.8999,0.0,0.0,0.0,0.0,0.0,0.0,0.0,0.0,0.0,0.0,0.0,0.0,0.0,0.0,1.3608,1.3331,1.2666,1.2097,1.1797,1.1797,1.1797,1.1965,1.2307,1.2637,1.3302,1.4303,1.4645,1.5154,1.5799,1.5799,1.5799,1.5799,1.5799,1.5799,1.5799,1.5799,1.5873,1.6002,1.6495,1.7488,1.8717,1.8844,1.9218,1.9682,1.9682,1.9682,1.9682,1.9682,1.9682,1.9682,1.9682,1.9682,1.9682,1.9682,1.9682,1.9862,2.0677,2.1844,2.2862,2.2862,2.2862,2.2981,2.3483,2.3221,2.2989,2.3497,2.3602,2.3602,2.3602,2.3602,2.3602,2.3602,2.3602,2.3602,2.3602,2.3602,2.3602,2.3602,2.3602,2.3602,2.3602,2.3602,2.3602,2.3602,2.3602,2.3602,2.3602,2.3602,2.3602,2.3602,2.3602,2.3602,2.3602,2.3602,2.3602,2.3602,2.3602,2.3602,2.3602,2.3602,2.3602,-0.0,0.0554,0.1596,0.357,0.0,0.0,0.0,0.5431,0.6073,0.741,0.7982,0.8608,0.9797,0.0,0.0,0.0,0.0,0.0,0.0,0.0,0.0,0.0,0.0,0.0,0.0,1.4303,1.4019,1.3346,1.2987,1.2807,1.2807,1.2607,1.2549,1.2679,1.3069,1.3551,1.4192,1.4768,1.5296,1.5799,1.5799,1.5799,1.5799,1.5799,1.5799,1.5799,1.5799,1.5799,1.5821,1.6129,1.6809,1.7764,1.8448,1.9106,1.9682,1.9682,1.9682,1.9682,1.9682,1.9682,1.9682,1.9682,1.9682,1.9682,1.9682,1.9922,2.0273,2.0617,2.1425,2.2263,2.2634,2.2716,2.2832,2.3453,2.3363,2.3221,2.3527,2.3602,2.3602,2.3602,2.3602,2.3602,2.3602,2.3602,2.3602,2.3602,2.3602,2.3602,2.3602,2.3602,2.3602,2.3602,2.3602,2.3602,2.3602,2.3602,2.3602,2.3602,2.3602,2.3602,2.3602,2.3602,2.3602,2.3602,2.3602,2.3602,2.3602,2.3602,2.3602,2.3602,2.3602,2.3602,-0.0,-0.0,0.0609,0.3009,0.0,0.3836,0.0,0.0,0.0,0.6467,0.7151,0.0,0.0,0.0,0.0,0.0,0.0,0.0,0.0,0.0,0.0,0.0,0.0,0.0,0.0,1.4865,1.4573,1.4042,1.3877,1.381,1.381,1.355,1.3365,1.3277,1.3698,1.4062,1.4374,1.5046,1.5567,1.5913,1.5913,1.5848,1.5799,1.5799,1.5799,1.5799,1.5799,1.5799,1.5799,1.5799,1.6159,1.6831,1.8018,1.8919,1.951,1.9637,1.9682,1.9682,1.9682,1.9682,1.9682,1.9682,1.9682,1.9682,1.9682,2.0079,2.052,2.052,2.0991,2.1657,2.2315,2.2619,2.2832,2.3453,2.3602,2.3602,2.3602,2.3602,2.3602,2.3602,2.3602,2.3602,2.3602,2.3602,2.3602,2.3602,2.3602,2.3602,2.3602,2.3602,2.3602,2.3602,2.3602,2.3602,2.3602,2.3602,2.3602,2.3602,2.3602,2.3602,2.3602,2.3602,2.3602,2.3602,2.3602,2.3602,2.3602,2.3602,2.3602,2.3602,2.3602,2.3602,0.0,0.0,0.0,0.0,0.2351,0.0,0.0,0.0,0.4528,0.5113,0.0,0.0,0.0,0.0,0.0,0.0,0.0,0.0,0.0,0.0,0.0,0.0,0.0,0.0,0.0,0.0,1.476,1.4685,1.4139,1.381,1.381,1.4034,1.3982,1.3579,1.4283,1.4783,1.5011,1.55,1.5921,1.6246,1.6246,1.6088,1.5799,1.5799,1.5799,1.5799,1.5799,1.5799,1.5799,1.5799,1.6159,1.6786,1.7518,1.8238,1.8889,1.9465,1.9682,1.9682,1.9682,1.9682,1.9682,1.9682,1.9682,1.9682,1.9682,1.9742,1.9802,1.9802,2.0296,2.0976,2.1635,2.2233,2.2832,2.3453,2.3602,2.3602,2.3602,2.3602,2.3602,2.3602,2.3602,2.3602,2.3602,2.3602,2.3602,2.3602,2.3602,2.3602,2.3602,2.3602,2.3602,2.3602,2.3602,2.3602,2.3602,2.3602,2.3602,2.3602,2.3602,2.3602,2.3602,2.3602,2.3602,2.3602,2.3602,2.3602,2.3602,2.3602,2.3602,2.3602,2.3602,2.3602,0.0,0.0,0.0,0.0,0.0,0.0,0.3538,0.0,0.3906,0.0,0.0,0.0,0.0,0.0,0.0,0.0,0.8576,0.0,0.0,0.0,0.0,0.0,0.0,0.0,0.0,0.0,0.0,0.0,0.0,1.5479,1.5479,1.5616,1.5415,1.4841,1.5111,1.5201,1.5096,1.5296,1.5573,1.5948,1.5741,1.5806,1.6088,1.5877,1.5799,1.5799,1.5799,1.5799,1.5799,1.5799,1.5963,1.6241,1.6868,1.7757,1.874,1.9016,1.9361,1.9682,1.9682,1.9682,1.9682,1.9682,1.9682,1.9682,1.9682,1.9682,1.9682,1.9682,1.9892,2.0273,2.0954,2.1612,2.2271,2.2914,2.334,2.3602,2.3602,2.3602,2.3602,2.3602,2.3602,2.3602,2.3602,2.3602,2.3602,2.3602,2.3602,2.3602,2.3602,2.3602,2.3602,2.3602,2.3602,2.3602,2.3602,2.3602,2.3602,2.3602,2.3602,2.3602,2.3602,2.3602,2.3602,2.3602,2.3602,2.3602,2.3602,2.3602,2.3602,2.3602,2.3602,2.3602,-0.0196,0.0,0.0,0.0,0.0,0.0,0.0,0.0,0.0,0.0,0.0,0.0,0.0,0.0,0.0,0.6835,0.0,0.7976,0.0,0.0,0.0,0.0,0.0,0.0,0.0,0.0,0.0,0.0,0.0,0.0,1.6965,1.69,1.6586,1.5981,1.6033,1.58,1.523,1.545,1.558,1.5703,1.5457,1.5679,1.6301,1.5955,1.5856,1.5934,1.5848,1.5799,1.5799,1.5799,1.5799,1.5844,1.6286,1.7137,1.8216,1.8568,1.9009,1.9443,1.9622,1.9682,1.9682,1.9682,1.9682,1.9682,1.9682,1.9682,1.9682,1.9682,1.9682,1.9839,2.0535,2.1208,2.1867,2.2559,2.3146,2.3602,2.3602,2.3602,2.3602,2.3602,2.3602,2.3602,2.3602,2.3602,2.3602,2.3602,2.3602,2.3602,2.3602,2.3602,2.3602,2.3602,2.3602,2.3602,2.3602,2.3602,2.3602,2.3602,2.3602,2.3602,2.3602,2.3602,2.3602,2.3602,2.3602,2.3602,2.3602,2.3602,2.3602,2.3602,2.3602,2.3602,0.0,0.0,0.0,-0.0,0.0,0.0,0.0,0.0,0.2186,0.0,0.0,0.0,0.0,0.0,0.5523,0.557,0.5912,0.0,0.0,0.0,0.0,0.0,0.0,0.0,0.0,0.0,0.0,0.0,0.0,0.0,1.7623,1.741,1.7093,1.668,1.7028,1.67,1.5584,1.6289,1.6334,1.5703,1.5679,1.5902,1.6301,1.5955,1.5983,1.6274,1.5926,1.5799,1.5799,1.5799,1.5799,1.5799,1.5821,1.6211,1.6928,1.8238,1.8717,1.8822,1.9458,1.9682,1.9682,1.9682,1.9682,1.9682,1.9682,1.9682,1.9682,1.9682,1.9682,1.9839,2.0535,2.1208,2.1867,2.2559,2.3146,2.3602,2.3602,2.3602,2.3602,2.3602,2.3602,2.3602,2.3602,2.3602,2.3602,2.3602,2.3602,2.3602,2.3602,2.3602,2.3602,2.3602,2.3602,2.3602,2.3602,2.3602,2.3602,2.3602,2.3602,2.3602,2.3602,2.3602,2.3602,2.3602,2.3602,2.3602,2.3602,2.3602,2.3602,2.3602,2.3602,2.3602,0.0,0.0,-0.0,-0.0,0.0,0.0,0.0,0.0,0.0,0.0,0.0,0.0,0.0,0.4148,0.4633,0.5041,0.5239,0.5696,0.0,0.0,0.0,0.0,0.0,0.0,0.0,0.0,0.0,0.0,1.7608,0.0,0.0,1.8323,1.8042,1.7446,1.7082,1.6611,1.5989,1.5504,1.5261,1.5287,1.462,1.4637,1.5224,1.4887,1.495,1.5296,1.5369,1.5538,1.5799,1.5799,1.5799,1.5799,1.5799,1.5933,1.6256,1.7573,1.8336,1.8799,1.9458,1.9682,1.9682,1.9682,1.9682,1.9682,1.9682,1.9682,1.9682,1.9682,1.9682,1.9742,1.9974,2.0543,2.1216,2.1867,2.2517,2.3101,2.3505,2.3602,2.3602,2.3602,2.3602,2.3602,2.3602,2.3602,2.3602,2.3602,2.3602,2.3602,2.3602,2.3602,2.3602,2.3602,2.3602,2.3602,2.3602,2.3602,2.3602,2.3602,2.3602,2.3602,2.3602,2.3602,2.3602,2.3602,2.3602,2.3602,2.3602,2.3602,2.3602,2.3602,2.3602,2.3602,-0.1891,-0.1165,0.0,-0.0,-0.0,0.0,-0.0,0.0,0.0,0.0,0.0,0.0,0.0,0.0,0.4035,0.45,0.4585,0.4776,0.0,0.6476,0.0,0.0,0.0,0.0,0.0,0.0,1.5599,1.7966,1.7855,0.0,0.0,0.0,1.8762,1.8171,1.7609,1.7012,1.6376,1.5395,1.4911,1.4959,1.4131,1.4037,1.4559,1.4311,1.4341,1.4632,1.492,1.5197,1.5469,1.5701,1.5799,1.5799,1.5799,1.5799,1.5956,1.7243,1.8291,1.9114,1.954,1.9682,1.9682,1.9682,1.9682,1.9682,1.9682,1.9682,1.9682,1.9682,1.9682,1.9682,1.9682,2.0198,2.0827,2.1246,2.2031,2.2828,2.3183,2.3445,2.3602,2.3602,2.3602,2.3602,2.3602,2.3602,2.3602,2.3602,2.3602,2.3602,2.3602,2.3602,2.3602,2.3602,2.3602,2.3602,2.3602,2.3602,2.3681,2.3879,2.3872,2.3956,2.415,2.415,2.415,2.415,2.3998,2.3872,2.3872,2.3673,2.3602,2.3602,2.3602,2.3602]},{"header":{"parameterUnit":"m.s-1","parameterCategory":1,"la1":30.6,"la2":29.2853,"lo1":-89.7004,"lo2":-87.6739,"dy":0.0162,"dx":0.0183,"nx":112,"ny":82,"refTime":"2024-07-28T06:00:00:Z","depth":0,"parameterNumber":3,"parameterNumberName":"V-component_of_WINDS"},"data":[0.0,0.0,0.0,0.0,0.0,0.0,0.0,0.0,0.0,0.0,0.0,0.0,0.0,0.0,0.0,0.0,0.0,0.0,0.0,0.0,0.0,0.0,0.0,0.0,0.0,0.0,0.0,0.0,0.0,0.0,0.0,0.0,0.0,0.0,0.0,0.0,0.0,0.0,0.0,0.0,0.0,0.0,0.0,0.0,0.0,0.0,0.0,0.0,0.0,0.0,0.0,0.0,0.0,0.0,0.0,0.0,0.0,0.0,0.0,0.0,0.0,0.0,0.0,0.0,0.0,0.0,0.0,0.0,0.0,0.0,0.0,0.0,0.0,0.0,0.0,0.0,0.0,0.0,0.0,0.0,0.0,0.0,0.0,0.0,0.0,0.0,0.0,0.0,0.0,0.0,-2.1742,-2.2342,-2.0844,-2.014,-2.1001,-2.0536,-2.0537,-2.1357,0.0,0.0,0.0,0.0,0.0,0.0,0.0,0.0,0.0,0.0,0.0,0.0,0.0,0.0,0.0,0.0,0.0,0.0,0.0,0.0,0.0,0.0,0.0,0.0,0.0,0.0,0.0,0.0,0.0,0.0,0.0,0.0,0.0,0.0,0.0,0.0,0.0,0.0,0.0,0.0,0.0,0.0,0.0,0.0,0.0,0.0,0.0,0.0,0.0,0.0,0.0,0.0,0.0,0.0,0.0,0.0,0.0,0.0,0.0,0.0,0.0,0.0,0.0,0.0,0.0,0.0,0.0,0.0,0.0,0.0,0.0,0.0,0.0,0.0,0.0,0.0,0.0,0.0,0.0,0.0,0.0,0.0,0.0,0.0,0.0,0.0,0.0,0.0,0.0,0.0,0.0,0.0,0.0,0.0,0.0,0.0,0.0,0.0,0.0,0.0,0.0,0.0,0.0,0.0,-2.1151,-2.1095,-2.0327,-1.9858,-2.0004,-2.0694,-2.0929,-2.0526,0.0,0.0,0.0,0.0,0.0,0.0,0.0,0.0,0.0,0.0,0.0,0.0,0.0,0.0,0.0,0.0,0.0,0.0,0.0,0.0,0.0,0.0,0.0,0.0,0.0,0.0,0.0,0.0,0.0,0.0,0.0,0.0,0.0,0.0,0.0,0.0,0.0,0.0,0.0,0.0,0.0,0.0,0.0,0.0,0.0,0.0,0.0,0.0,0.0,0.0,0.0,0.0,0.0,0.0,0.0,0.0,0.0,0.0,0.0,0.0,0.0,0.0,0.0,0.0,0.0,0.0,0.0,0.0,0.0,0.0,0.0,0.0,0.0,0.0,0.0,0.0,0.0,0.0,0.0,0.0,0.0,0.0,0.0,0.0,0.0,0.0,0.0,0.0,0.0,0.0,0.0,0.0,0.0,0.0,0.0,0.0,0.0,0.0,0.0,0.0,0.0,0.0,0.0,-2.1289,-2.0746,-2.022,-1.9782,-1.9563,-1.9673,-2.0107,-2.0304,-2.0153,-1.8972,0.0,0.0,0.0,0.0,0.0,0.0,0.0,0.0,0.0,0.0,0.0,0.0,0.0,0.0,0.0,0.0,0.0,0.0,0.0,0.0,0.0,0.0,0.0,0.0,0.0,0.0,0.0,0.0,0.0,0.0,0.0,0.0,0.0,0.0,0.0,0.0,0.0,0.0,0.0,0.0,0.0,0.0,0.0,0.0,0.0,0.0,0.0,0.0,0.0,0.0,0.0,0.0,0.0,0.0,0.0,0.0,0.0,0.0,0.0,0.0,0.0,0.0,0.0,0.0,0.0,0.0,0.0,0.0,0.0,0.0,0.0,0.0,0.0,0.0,0.0,0.0,0.0,0.0,0.0,0.0,0.0,0.0,0.0,0.0,0.0,0.0,0.0,0.0,0.0,0.0,0.0,0.0,0.0,0.0,0.0,0.0,0.0,0.0,0.0,0.0,0.0,0.0,-2.0704,-2.0419,-1.962,-1.9389,-1.9389,-1.9578,-1.9605,-1.971,-1.9983,-1.8671,0.0,0.0,0.0,0.0,0.0,0.0,0.0,0.0,0.0,0.0,0.0,0.0,0.0,0.0,0.0,0.0,0.0,0.0,0.0,0.0,0.0,0.0,0.0,0.0,0.0,0.0,0.0,0.0,0.0,0.0,0.0,0.0,0.0,0.0,0.0,0.0,0.0,0.0,0.0,0.0,0.0,0.0,0.0,0.0,0.0,0.0,0.0,0.0,0.0,0.0,0.0,0.0,0.0,0.0,0.0,0.0,0.0,0.0,0.0,0.0,0.0,0.0,0.0,0.0,0.0,0.0,0.0,0.0,0.0,0.0,0.0,0.0,0.0,0.0,0.0,0.0,0.0,0.0,0.0,0.0,0.0,0.0,0.0,0.0,0.0,0.0,0.0,0.0,0.0,0.0,0.0,0.0,0.0,0.0,0.0,0.0,0.0,0.0,0.0,0.0,0.0,0.0,-2.0073,-2.0205,-1.9412,-1.9305,-1.9389,-1.9578,-1.9605,-1.971,-1.9983,-1.9183,0.0,0.0,0.0,0.0,0.0,0.0,0.0,0.0,0.0,0.0,0.0,0.0,0.0,0.0,0.0,0.0,0.0,0.0,0.0,0.0,0.0,0.0,0.0,0.0,0.0,0.0,0.0,0.0,0.0,0.0,0.0,0.0,0.0,0.0,0.0,0.0,0.0,0.0,0.0,0.0,0.0,0.0,0.0,0.0,0.0,0.0,0.0,0.0,0.0,0.0,0.0,0.0,0.0,0.0,0.0,0.0,0.0,0.0,0.0,0.0,0.0,0.0,0.0,0.0,0.0,0.0,0.0,0.0,0.0,0.0,0.0,0.0,0.0,0.0,0.0,0.0,0.0,0.0,0.0,0.0,0.0,0.0,0.0,0.0,0.0,0.0,0.0,0.0,0.0,0.0,0.0,0.0,0.0,0.0,0.0,0.0,0.0,0.0,0.0,0.0,0.0,0.0,-1.9633,-1.9777,0.0,-1.9101,-1.8997,-1.8688,-1.9123,-1.9331,-1.914,0.0,0.0,0.0,0.0,0.0,0.0,0.0,0.0,0.0,0.0,0.0,0.0,0.0,0.0,0.0,0.0,0.0,0.0,0.0,0.0,0.0,0.0,0.0,0.0,0.0,0.0,0.0,0.0,0.0,0.0,0.0,0.0,0.0,0.0,0.0,0.0,0.0,0.0,0.0,0.0,0.0,0.0,0.0,0.0,0.0,0.0,0.0,0.0,0.0,0.0,0.0,0.0,0.0,0.0,0.0,0.0,0.0,0.0,0.0,0.0,0.0,0.0,0.0,0.0,0.0,0.0,0.0,0.0,0.0,0.0,0.0,0.0,0.0,0.0,0.0,0.0,0.0,0.0,0.0,0.0,0.0,0.0,0.0,0.0,0.0,0.0,0.0,0.0,0.0,0.0,0.0,0.0,0.0,0.0,0.0,0.0,0.0,0.0,0.0,0.0,0.0,0.0,-1.8995,-1.9363,-1.9502,0.0,-1.8869,-1.8624,-1.8024,-1.8739,-1.9005,-1.8563,0.0,0.0,0.0,0.0,0.0,0.0,0.0,0.0,0.0,0.0,0.0,0.0,0.0,0.0,0.0,0.0,0.0,0.0,0.0,0.0,0.0,0.0,0.0,0.0,0.0,0.0,0.0,0.0,0.0,0.0,0.0,0.0,0.0,0.0,0.0,0.0,0.0,0.0,0.0,0.0,0.0,0.0,0.0,0.0,0.0,0.0,0.0,0.0,0.0,0.0,0.0,0.0,0.0,0.0,0.0,0.0,0.0,0.0,0.0,0.0,0.0,0.0,0.0,0.0,0.0,0.0,0.0,0.0,0.0,0.0,0.0,0.0,0.0,0.0,0.0,0.0,0.0,0.0,0.0,0.0,0.0,0.0,0.0,0.0,0.0,0.0,0.0,0.0,0.0,0.0,0.0,0.0,0.0,0.0,0.0,0.0,0.0,0.0,0.0,0.0,0.0,0.0,-1.8729,-1.9237,-1.9414,-1.8665,-1.8594,-1.8341,-1.7734,-1.8488,-1.882,0.0,0.0,0.0,0.0,0.0,0.0,0.0,0.0,0.0,0.0,0.0,0.0,0.0,0.0,0.0,0.0,0.0,0.0,0.0,0.0,0.0,0.0,0.0,0.0,0.0,0.0,0.0,0.0,0.0,0.0,0.0,0.0,0.0,0.0,0.0,0.0,0.0,0.0,0.0,0.0,0.0,0.0,0.0,0.0,0.0,0.0,0.0,0.0,0.0,0.0,0.0,0.0,0.0,0.0,0.0,0.0,0.0,0.0,0.0,0.0,0.0,0.0,0.0,0.0,0.0,0.0,0.0,0.0,0.0,0.0,0.0,0.0,0.0,0.0,0.0,0.0,0.0,0.0,0.0,0.0,0.0,0.0,0.0,0.0,0.0,0.0,0.0,0.0,0.0,0.0,0.0,0.0,0.0,0.0,0.0,0.0,0.0,0.0,0.0,0.0,0.0,0.0,0.0,-1.8426,-1.8802,-1.8939,-1.8377,-1.8489,-1.8137,-1.6954,-1.7775,-1.812,-1.7587,0.0,0.0,0.0,0.0,0.0,0.0,0.0,0.0,0.0,0.0,0.0,0.0,0.0,0.0,0.0,0.0,0.0,0.0,0.0,0.0,0.0,0.0,0.0,0.0,0.0,0.0,0.0,0.0,0.0,0.0,0.0,0.0,0.0,0.0,0.0,0.0,0.0,0.0,0.0,0.0,0.0,0.0,0.0,0.0,0.0,0.0,0.0,0.0,0.0,0.0,0.0,0.0,0.0,0.0,0.0,0.0,0.0,0.0,0.0,0.0,0.0,0.0,0.0,0.0,0.0,0.0,0.0,0.0,0.0,0.0,0.0,0.0,0.0,0.0,0.0,0.0,0.0,0.0,0.0,0.0,0.0,0.0,0.0,0.0,0.0,0.0,0.0,0.0,0.0,0.0,0.0,0.0,0.0,0.0,0.0,0.0,0.0,0.0,0.0,0.0,0.0,0.0,-1.8186,-1.8793,-1.9015,-1.8138,-1.791,-1.7447,-1.6463,-1.7298,-1.7638,-1.7105,0.0,0.0,0.0,0.0,0.0,0.0,0.0,0.0,0.0,0.0,0.0,0.0,0.0,0.0,0.0,0.0,0.0,0.0,0.0,0.0,0.0,0.0,0.0,0.0,0.0,0.0,0.0,0.0,0.0,0.0,0.0,0.0,0.0,0.0,0.0,0.0,0.0,0.0,0.0,0.0,0.0,0.0,0.0,0.0,0.0,0.0,0.0,0.0,0.0,0.0,0.0,0.0,0.0,0.0,0.0,0.0,0.0,0.0,0.0,0.0,0.0,0.0,0.0,0.0,0.0,0.0,0.0,0.0,0.0,0.0,0.0,0.0,0.0,0.0,0.0,0.0,0.0,0.0,0.0,0.0,0.0,0.0,0.0,0.0,0.0,0.0,0.0,0.0,0.0,0.0,0.0,0.0,0.0,0.0,0.0,0.0,0.0,0.0,0.0,0.0,0.0,0.0,-1.8104,-1.9064,-1.9351,-1.7941,-1.7215,-1.6673,-1.6229,-1.701,-1.7335,-1.6927,0.0,0.0,0.0,0.0,0.0,0.0,0.0,0.0,0.0,0.0,0.0,0.0,0.0,0.0,0.0,0.0,0.0,0.0,0.0,0.0,0.0,0.0,0.0,0.0,0.0,0.0,0.0,0.0,0.0,0.0,0.0,0.0,0.0,0.0,0.0,0.0,0.0,0.0,0.0,0.0,0.0,0.0,0.0,0.0,0.0,0.0,0.0,0.0,0.0,0.0,0.0,0.0,0.0,0.0,0.0,0.0,0.0,0.0,0.0,0.0,-2.1083,0.0,0.0,0.0,0.0,0.0,0.0,0.0,0.0,0.0,0.0,0.0,0.0,0.0,0.0,0.0,0.0,0.0,0.0,0.0,0.0,0.0,0.0,0.0,0.0,0.0,0.0,0.0,0.0,0.0,0.0,0.0,0.0,0.0,0.0,0.0,0.0,0.0,0.0,0.0,0.0,0.0,-1.8784,-1.8936,-1.8792,-1.7904,-1.7847,-1.7411,-1.6299,-1.7111,-1.7444,-1.6931,-1.7962,0.0,0.0,0.0,0.0,0.0,0.0,0.0,0.0,0.0,0.0,0.0,0.0,0.0,0.0,0.0,0.0,0.0,0.0,0.0,0.0,0.0,0.0,0.0,0.0,0.0,0.0,0.0,0.0,0.0,0.0,0.0,0.0,0.0,0.0,0.0,0.0,0.0,0.0,0.0,0.0,0.0,0.0,0.0,0.0,0.0,0.0,0.0,0.0,0.0,0.0,0.0,0.0,0.0,0.0,0.0,0.0,0.0,0.0,0.0,0.0,-2.1019,0.0,0.0,0.0,0.0,0.0,0.0,0.0,0.0,0.0,0.0,0.0,0.0,0.0,0.0,0.0,0.0,0.0,0.0,0.0,0.0,0.0,0.0,0.0,0.0,0.0,0.0,0.0,0.0,0.0,0.0,0.0,0.0,0.0,0.0,0.0,0.0,0.0,0.0,0.0,0.0,-1.9037,-1.9215,-1.902,-1.7929,-1.7603,-1.7136,-1.6273,-1.6706,-1.6994,-1.6913,-1.7752,0.0,0.0,0.0,0.0,0.0,0.0,0.0,0.0,0.0,0.0,0.0,0.0,0.0,0.0,0.0,0.0,0.0,0.0,0.0,0.0,0.0,0.0,0.0,0.0,0.0,0.0,0.0,0.0,0.0,0.0,0.0,0.0,0.0,0.0,0.0,0.0,0.0,0.0,0.0,0.0,0.0,0.0,0.0,0.0,0.0,0.0,0.0,0.0,0.0,0.0,0.0,0.0,0.0,-2.231,-2.231,-2.231,-2.231,-2.231,-2.2276,-2.1651,-2.1865,-2.2617,0.0,0.0,0.0,0.0,0.0,0.0,0.0,0.0,0.0,0.0,0.0,0.0,0.0,0.0,0.0,0.0,0.0,0.0,0.0,0.0,0.0,0.0,0.0,0.0,0.0,-2.3295,-2.3593,0.0,0.0,0.0,0.0,0.0,0.0,0.0,0.0,0.0,0.0,0.0,0.0,-1.9469,-1.9722,-1.9478,-1.8149,-1.7364,-1.6804,-1.644,-1.6489,-1.6716,-1.7096,-1.7724,-1.8592,0.0,0.0,0.0,0.0,0.0,0.0,0.0,0.0,0.0,0.0,0.0,0.0,0.0,0.0,0.0,0.0,0.0,0.0,0.0,0.0,0.0,0.0,0.0,0.0,0.0,0.0,0.0,0.0,0.0,0.0,0.0,0.0,-2.0724,-2.2437,0.0,0.0,0.0,0.0,0.0,0.0,0.0,0.0,0.0,0.0,0.0,0.0,0.0,-2.2209,-2.231,-2.231,-2.231,-2.231,-2.231,-2.231,-2.231,-2.231,-2.231,-2.2302,-2.2209,0.0,-2.2388,-2.2883,0.0,0.0,0.0,0.0,0.0,0.0,0.0,0.0,0.0,0.0,0.0,0.0,0.0,0.0,0.0,0.0,0.0,0.0,0.0,0.0,0.0,0.0,-2.4034,-2.3995,-2.4069,-2.4027,0.0,-2.3205,-2.3118,-2.3881,-2.3125,0.0,0.0,0.0,0.0,0.0,0.0,0.0,-2.0999,-2.0382,-1.9672,-1.8843,-1.8296,-1.7809,-1.7285,-1.7413,-1.7641,-1.7926,-1.8041,-1.8564,-1.9585,-1.9723,0.0,0.0,0.0,0.0,0.0,0.0,0.0,0.0,0.0,0.0,0.0,0.0,0.0,0.0,0.0,0.0,0.0,0.0,0.0,0.0,0.0,0.0,0.0,0.0,0.0,0.0,0.0,0.0,0.0,-1.9491,-2.1201,-2.2064,-2.2496,-2.2513,0.0,0.0,0.0,0.0,0.0,0.0,0.0,0.0,0.0,-2.2282,-2.231,-2.231,-2.231,-2.231,-2.231,-2.231,-2.231,-2.231,-2.231,-2.231,-2.231,-2.231,-2.231,-2.2405,-2.2588,-2.2669,-2.2927,-2.3278,0.0,0.0,0.0,0.0,-2.5674,-2.619,-2.6998,-2.7273,0.0,-2.7273,0.0,0.0,0.0,0.0,0.0,0.0,0.0,0.0,0.0,0.0,0.0,-2.4199,-2.4199,-2.429,-2.4591,-2.403,-2.3467,0.0,-2.2911,-2.249,-2.249,0.0,0.0,0.0,0.0,-2.2031,-2.1305,-2.0509,-1.978,-1.9187,-1.8573,-1.8028,-1.7602,-1.7648,-1.7817,-1.8082,-1.8106,-1.855,-1.9554,-1.9653,-1.9967,0.0,0.0,0.0,0.0,0.0,0.0,0.0,0.0,0.0,0.0,0.0,0.0,0.0,0.0,0.0,0.0,0.0,0.0,0.0,0.0,0.0,0.0,0.0,0.0,0.0,0.0,0.0,0.0,-2.0607,-2.1546,-2.189,-2.2614,-2.2872,0.0,0.0,0.0,0.0,0.0,0.0,-2.1961,-2.1645,-2.1658,-2.2106,-2.2106,-2.218,-2.231,-2.231,-2.231,-2.231,-2.231,-2.231,-2.231,-2.231,-2.231,-2.231,-2.236,-2.2544,-2.2756,-2.2598,-2.3152,-2.4112,-2.4199,-2.5004,-2.613,-2.6329,-2.6631,-2.6989,-2.7585,-2.7925,-2.8071,-2.787,0.0,-2.7686,-2.709,0.0,0.0,0.0,0.0,-2.5219,-2.4401,-2.4199,-2.4199,-2.4199,-2.4199,-2.4355,-2.4951,-2.4356,-2.3651,0.0,-2.292,-2.2561,-2.2633,0.0,0.0,0.0,0.0,-2.2302,-2.1659,-2.0789,-2.0089,-1.976,-1.8939,-1.8291,-1.8049,-1.7896,-1.7988,-1.8375,-1.8216,-1.855,-1.9554,-1.9627,-1.996,-2.0651,0.0,0.0,0.0,0.0,0.0,0.0,0.0,0.0,0.0,0.0,0.0,0.0,0.0,0.0,0.0,0.0,0.0,0.0,0.0,0.0,0.0,0.0,0.0,0.0,0.0,0.0,0.0,0.0,0.0,-2.3015,-2.2873,0.0,0.0,0.0,0.0,-2.1151,-2.1697,-2.1778,-2.1095,-2.1031,-2.1221,-2.162,-2.165,-2.1861,-2.2291,-2.231,-2.231,-2.231,-2.231,-2.231,-2.231,-2.231,-2.231,-2.2302,-2.2555,-2.2695,-2.2721,-2.3021,-2.3634,-2.4399,-2.4737,-2.5362,-2.6193,-2.6968,-2.7441,-2.7741,-2.7787,-2.8301,-2.8824,-2.8044,-2.7796,-2.7787,-2.7741,-2.7209,0.0,0.0,-2.5403,-2.5219,-2.4401,-2.4199,-2.4199,-2.4199,-2.4199,-2.4208,-2.4245,-2.3974,-2.4013,0.0,-2.4123,-2.3253,-2.3575,0.0,-2.3054,-2.2729,-2.2947,-2.3036,-2.2669,-2.159,-2.0849,-2.0826,-1.9701,-1.8948,-1.8939,-1.841,-1.8403,-1.9179,-1.8519,-1.855,-1.9554,-1.9723,-2.0636,-2.2436,-2.1779,0.0,0.0,0.0,0.0,0.0,0.0,0.0,0.0,0.0,0.0,0.0,0.0,0.0,0.0,0.0,0.0,0.0,0.0,0.0,0.0,0.0,0.0,0.0,0.0,0.0,0.0,0.0,0.0,-2.2854,-2.2779,0.0,-2.2257,-2.2515,-2.2504,-2.2069,-2.2077,-2.1952,-2.1653,-2.1239,-2.1181,-2.159,-2.189,-2.2135,-2.231,-2.231,-2.231,-2.231,-2.231,-2.231,-2.231,-2.231,-2.2379,-2.2555,-2.2652,-2.2939,-2.3337,-2.3468,-2.3988,-2.4728,-2.4838,-2.5524,-2.6452,-2.6748,-2.692,-2.7034,-2.7034,-2.7227,-2.742,-2.7126,-2.7034,-2.7034,-2.7034,-2.6833,-2.6429,-2.5642,-2.5403,-2.5219,-2.4401,-2.4199,-2.4199,-2.4199,-2.4199,-2.4199,-2.4199,-2.3946,-2.3877,-2.4518,-2.3851,-2.3245,-2.3369,-2.3268,-2.3165,-2.3045,-2.3117,-2.3174,-2.3045,-2.2232,-2.1736,-2.1914,-2.1101,-2.04,-2.0003,-1.9774,-1.9555,-1.9308,-1.915,-1.923,-1.9582,-1.9811,-2.0239,-2.0909,-2.1309,-2.1648,0.0,0.0,0.0,0.0,0.0,0.0,0.0,0.0,0.0,0.0,0.0,0.0,0.0,0.0,0.0,0.0,0.0,0.0,0.0,0.0,0.0,0.0,0.0,0.0,0.0,0.0,-2.2881,-2.2608,-2.2583,-2.2491,-2.2324,-2.2685,-2.2756,-2.2291,-2.2425,-2.2297,-2.1703,-2.1376,-2.1337,-2.1582,-2.1899,-2.2143,-2.231,-2.231,-2.231,-2.231,-2.231,-2.231,-2.231,-2.231,-2.2445,-2.2721,-2.2814,-2.3189,-2.3714,-2.3816,-2.4184,-2.4693,-2.4956,-2.5692,-2.6603,-2.6603,-2.6603,-2.6603,-2.6603,-2.642,-2.6236,-2.6511,-2.6603,-2.6603,-2.6603,-2.6603,-2.6429,-2.5642,-2.5403,-2.5219,-2.4401,-2.4199,-2.4199,-2.4199,-2.4199,-2.4199,-2.4199,-2.4025,-2.3937,-2.4151,-2.3744,-2.3392,-2.3522,-2.3544,-2.3491,-2.3392,-2.3459,-2.35,-2.3392,-2.2788,-2.2458,-2.2656,-2.1997,-2.137,-2.097,-2.0659,-2.0423,-2.0221,-2.008,-2.0159,-2.0497,-2.0459,-2.0699,-2.1272,-2.2,-2.2379,-2.2379,0.0,0.0,0.0,0.0,0.0,0.0,0.0,0.0,0.0,0.0,0.0,0.0,0.0,0.0,0.0,0.0,0.0,0.0,0.0,0.0,0.0,0.0,0.0,-2.3314,-2.2939,-2.2617,-2.2349,-2.2302,-2.231,-2.231,-2.297,-2.2925,-2.1711,-2.2718,-2.2682,-2.1135,-2.1385,-2.159,-2.159,-2.1612,-2.1832,-2.2291,-2.231,-2.231,-2.231,-2.231,-2.231,-2.231,-2.231,-2.2463,-2.2738,-2.3069,-2.3423,-2.3744,-2.4074,-2.4199,-2.4272,-2.5072,-2.5832,-2.653,-2.653,-2.6551,-2.6542,-2.6542,-2.6027,-2.5515,-2.6284,-2.6542,-2.6542,-2.6542,-2.6542,-2.6385,-2.5586,-2.5366,-2.5192,-2.4392,-2.4199,-2.4199,-2.4199,-2.4199,-2.4199,-2.4199,-2.4199,-2.4199,-2.4199,-2.3946,-2.3816,-2.4142,-2.4199,-2.4094,-2.3765,-2.3996,0.0,-2.3765,-2.333,-2.3052,-2.3052,-2.2336,-2.1867,-2.1849,-2.107,-2.0991,-2.1945,-2.1283,-2.1296,-2.2262,-2.1693,-2.2121,-2.3785,-2.3995,-2.411,-2.4139,0.0,0.0,0.0,0.0,0.0,0.0,0.0,0.0,0.0,0.0,0.0,0.0,0.0,0.0,0.0,0.0,0.0,0.0,0.0,0.0,0.0,-2.3685,-2.4151,-2.3946,-2.3423,-2.303,-2.2974,-2.258,-2.231,-2.231,-2.297,-2.3096,-2.2388,-2.2677,-2.2537,-2.1767,-2.1653,-2.159,-2.159,-2.1936,-2.2172,-2.231,-2.231,-2.231,-2.231,-2.231,-2.231,-2.231,-2.25,-2.2764,-2.3069,-2.3423,-2.3744,-2.4074,-2.417,-2.4199,-2.4217,-2.4437,-2.4667,-2.4879,-2.5023,-2.5165,-2.5298,-2.5298,-2.5148,-2.4998,-2.5223,-2.5298,-2.5298,-2.5298,-2.5298,-2.5227,-2.4843,-2.4753,-2.4671,-2.4302,-2.4199,-2.4199,-2.4199,-2.4199,-2.4199,-2.4199,-2.4199,-2.4199,-2.4199,-2.4122,-2.4094,-2.417,-2.4199,-2.417,-2.4074,-2.4142,0.0,-2.4065,-2.3959,-2.3869,-2.3869,-2.3667,-2.33,-2.2721,-2.2574,-2.2371,-2.202,-2.2067,-2.2222,-2.2515,-2.2431,-2.2892,-2.3996,-2.4072,-2.4399,0.0,0.0,0.0,0.0,0.0,0.0,0.0,0.0,0.0,0.0,0.0,0.0,0.0,0.0,0.0,0.0,0.0,0.0,0.0,0.0,0.0,0.0,-2.3887,-2.4199,-2.4199,-2.3744,-2.3323,-2.3012,-2.2686,-2.2426,-2.2302,-2.2691,-2.2736,-2.2215,-2.2416,-2.2324,-2.1859,-2.1867,-2.189,-2.189,-2.2172,-2.231,-2.231,-2.231,-2.231,-2.231,-2.2398,-2.2463,-2.249,-2.2755,-2.3093,0.0,-2.3619,-2.3896,-2.4199,-2.4199,-2.4238,0.0,0.0,0.0,0.0,0.0,-2.47,-2.4804,-2.4804,-2.4804,-2.4804,-2.4804,-2.4804,-2.4804,-2.4804,-2.4804,-2.4775,-2.4654,-2.4632,-2.4601,-2.4478,-2.4444,-2.4444,-2.4444,-2.4444,-2.4444,-2.4444,-2.4444,-2.4444,-2.4444,0.0,0.0,-2.4444,-2.4312,-2.4199,-2.4199,-2.4199,-2.4228,-2.4312,-2.4339,-2.4366,-2.4444,-2.4444,-2.4258,-2.3784,-2.3531,0.0,0.0,0.0,-2.3137,-2.3217,-2.3631,0.0,0.0,0.0,0.0,0.0,0.0,0.0,0.0,-2.4601,-2.4851,0.0,0.0,0.0,0.0,0.0,0.0,0.0,0.0,0.0,0.0,0.0,0.0,0.0,0.0,0.0,0.0,-2.4199,-2.4199,-2.4199,-2.3937,-2.3513,-2.2848,-2.2712,-2.2599,-2.233,-2.231,-2.2135,-2.1726,-2.2061,-2.2106,-2.1688,0.0,0.0,0.0,0.0,-2.2349,-2.2349,-2.2369,-2.2396,-2.2396,-2.2652,-2.2772,-2.2772,-2.3085,-2.3414,-2.3692,-2.3744,-2.3937,-2.4219,-2.4219,-2.4339,-2.4528,-2.433,-2.4393,-2.4575,-2.4766,-2.4837,0.0,-2.4861,0.0,0.0,-2.4861,-2.4861,-2.4861,-2.4861,-2.4861,-2.4851,-2.4823,-2.4823,-2.4823,-2.4795,-2.4804,-2.4804,-2.4804,-2.4804,-2.4804,-2.4804,-2.4804,-2.4804,-2.4804,-2.4804,-2.4804,-2.4804,-2.4502,-2.4275,-2.4275,-2.4275,-2.433,-2.4512,-2.4536,-2.4591,-2.4775,0.0,0.0,-2.4804,-2.4114,-2.4052,-2.4941,-2.4347,-2.405,-2.4226,-2.4918,-2.4966,-2.4254,-2.4938,-2.5303,-2.5303,-2.5303,-2.5303,-2.5303,-2.5293,-2.5293,0.0,0.0,0.0,0.0,0.0,0.0,0.0,0.0,0.0,0.0,0.0,0.0,0.0,0.0,0.0,-2.42,-2.4199,-2.4199,-2.4199,-2.4142,-2.3846,-2.3189,-2.2864,-2.2599,-2.233,-2.231,-2.2245,-2.2172,-2.2245,-2.2245,-2.2172,-2.2245,-2.231,-2.231,-2.25,-2.2617,-2.2617,-2.289,-2.3023,-2.3038,0.0,0.0,-2.3117,-2.3446,-2.364,-2.3723,-2.3996,-2.4229,-2.4436,-2.4436,-2.4568,-2.4746,-2.47,-2.4766,-2.4911,-2.4949,-2.5053,-2.5202,-2.5202,-2.5202,-2.5202,-2.5202,-2.5202,-2.5202,-2.5202,-2.5202,0.0,-2.5018,-2.4962,-2.4933,-2.4837,-2.4804,-2.4804,-2.4804,-2.4804,-2.4804,-2.4804,-2.4804,-2.4804,-2.4804,-2.4804,-2.4804,-2.4804,-2.4731,-2.4685,-2.4685,-2.4685,-2.47,-2.4746,-2.4746,-2.476,-2.4804,-2.4804,-2.4804,-2.4804,-2.4742,-2.4784,-2.4991,-2.5019,-2.5023,-2.5072,-2.5216,-2.5226,-2.5072,-2.5274,-2.538,-2.538,-2.538,-2.538,-2.538,-2.5322,-2.5293,0.0,0.0,0.0,0.0,0.0,0.0,0.0,0.0,0.0,0.0,0.0,-2.4249,-2.4255,0.0,-2.4575,-2.4375,-2.4348,-2.4312,-2.4209,-2.385,-2.3549,-2.3468,-2.3291,-2.3087,-2.2773,-2.2756,-2.2756,-2.2756,-2.2756,-2.2756,-2.2756,-2.2756,-2.2756,-2.2756,-2.289,-2.2947,-2.2947,-2.3117,-2.3189,-2.3189,-2.3369,-2.3446,-2.3468,-2.3795,-2.4008,-2.4117,-2.4275,-2.4461,-2.4654,-2.4723,-2.4813,-2.4904,-2.5012,-2.5027,-2.5001,-2.5111,-2.5214,-2.5293,-2.5293,-2.5293,-2.5293,-2.5293,-2.5293,-2.5293,-2.5293,-2.5293,-2.5283,-2.5183,-2.5152,-2.5131,-2.507,-2.5046,-2.5046,-2.5046,-2.5046,-2.5046,-2.5046,-2.5046,-2.5046,-2.5046,-2.5046,-2.5046,-2.5046,-2.5046,-2.4997,-2.4832,-2.4804,-2.4814,-2.4891,-2.4904,-2.4939,-2.5034,-2.5046,-2.5046,-2.5046,-2.5107,-2.5152,-2.5152,-2.5282,-2.5341,-2.5341,-2.538,-2.5399,-2.5399,-2.5428,-2.5446,-2.5454,-2.5454,-2.5448,-2.5457,-2.5418,-2.5361,0.0,0.0,0.0,0.0,0.0,0.0,0.0,-2.396,-2.4428,-2.437,-2.4742,-2.5065,-2.501,-2.4907,-2.478,-2.4601,-2.4552,-2.4439,-2.4082,-2.3474,-2.3134,-2.33,-2.3283,-2.3171,-2.2982,-2.2976,-2.3029,-2.3189,-2.3189,-2.3189,-2.3189,-2.3189,-2.3189,-2.3189,-2.3259,-2.33,-2.33,-2.3369,-2.3392,-2.3392,-2.3717,-2.386,-2.3881,-2.4182,-2.4401,-2.4568,-2.4591,-2.4682,-2.4855,-2.5005,-2.5055,-2.5067,-2.5234,-2.5194,-2.5088,-2.5244,-2.5293,-2.5293,-2.5293,-2.5293,-2.5293,-2.5293,-2.5293,-2.5293,-2.5293,-2.5293,-2.5293,-2.5293,-2.5293,-2.5293,-2.5293,-2.5293,-2.5293,-2.5293,-2.5293,-2.5293,-2.5293,-2.5293,-2.5293,-2.5293,-2.5293,-2.5293,-2.5293,-2.5293,-2.5212,-2.4932,-2.4892,-2.4936,-2.5044,-2.5055,-2.512,-2.5274,-2.5293,-2.5293,-2.5293,-2.5293,-2.5303,-2.5312,-2.537,-2.5409,-2.5416,-2.5473,-2.5502,-2.5502,-2.5515,-2.5519,-2.5519,-2.5522,-2.5517,-2.5515,-2.5504,-2.5446,-2.5467,-2.5508,-2.5526,-2.5419,-2.5351,-2.5311,0.0,-2.5331,-2.5341,-2.5274,-2.5312,-2.5281,-2.5044,-2.4998,-2.4933,-2.4795,-2.4775,-2.4447,-2.3526,-2.3317,-2.2954,-2.2116,-2.1752,-2.172,-2.2095,-2.2134,-2.244,-2.3144,-2.3189,-2.3189,-2.3189,-2.3189,-2.3189,-2.3189,-2.3491,-2.364,-2.364,-2.3946,-2.4094,-2.4094,-2.4302,-2.4408,-2.4417,-2.4629,-2.4746,-2.4766,-2.4885,-2.4962,-2.4986,-2.5192,-2.5264,-2.5264,-2.5293,-2.5283,-2.5264,-2.5293,-2.5293,-2.5293,-2.5293,-2.5293,-2.5293,-2.5293,-2.5293,-2.5293,-2.5293,-2.5293,-2.5293,-2.5293,-2.5293,-2.5293,-2.5293,-2.5293,-2.5293,-2.5293,-2.5293,-2.5293,-2.5293,-2.5293,-2.5293,-2.5293,-2.5293,-2.5293,-2.5293,-2.5293,-2.5283,-2.5243,-2.5243,-2.5253,-2.5264,-2.5264,-2.5283,-2.5303,-2.5293,-2.5293,-2.5293,-2.5293,-2.5322,-2.539,-2.5399,-2.5423,-2.5492,-2.5497,-2.5497,-2.5497,-2.5556,-2.5592,-2.5591,-2.5587,-2.5586,-2.5592,-2.5528,-2.5466,-2.467,-2.4858,-2.5005,-2.5517,-2.5615,-2.5596,-2.5596,-2.5578,-2.5537,-2.5473,-2.5461,-2.5408,-2.5261,-2.5231,-2.5168,0.0,-2.4518,-2.4036,-2.3492,-2.2581,-2.1812,-2.1381,-2.1252,-2.1371,-2.1839,-2.1882,-2.2217,-2.3023,-2.3087,-2.3295,-2.3768,-2.3894,-2.3955,-2.3955,-2.4201,-2.4335,-2.4335,-2.4484,-2.4552,-2.4552,-2.4639,-2.467,-2.467,-2.476,-2.4842,-2.493,-2.5098,-2.5173,-2.5183,-2.5302,-2.5361,-2.5361,-2.5399,-2.5418,-2.5409,-2.5322,-2.5293,-2.5293,-2.5293,-2.5293,-2.5293,-2.5293,-2.5293,-2.5293,-2.5293,-2.5293,-2.5293,-2.5293,-2.5293,-2.5293,-2.5293,-2.5293,-2.5293,-2.5293,-2.5293,-2.5293,-2.5293,-2.5293,-2.5293,-2.5293,-2.5293,-2.5293,-2.5293,-2.5293,-2.5303,-2.5341,-2.5312,-2.5293,-2.5293,-2.5293,-2.5303,-2.5341,-2.5361,-2.537,-2.5409,-2.5418,-2.5428,-2.5466,-2.5495,-2.5533,-2.5559,-2.5598,-2.5619,-2.5619,-2.5636,-2.5662,-2.5666,-2.5657,-2.5655,-2.5662,-2.5629,-2.5579,-2.3555,-2.3828,-2.4039,-2.467,-2.486,-2.4889,-2.4912,-2.4912,-2.49,-2.4856,-2.5016,-2.5156,-2.5074,-2.5264,-2.536,-2.5138,-2.4438,-2.3761,-2.3303,-2.2004,-2.1062,-2.1026,-2.1069,-2.132,-2.1878,-2.1948,-2.2367,-2.3413,-2.3274,-2.3488,-2.4311,-2.4502,-2.4575,-2.4575,-2.4731,-2.4804,-2.4804,-2.4804,-2.4804,-2.4804,-2.4851,-2.4855,-2.4855,-2.491,-2.5,-2.5117,-2.5253,-2.5332,-2.5361,-2.5409,-2.5428,-2.5432,-2.548,-2.5499,-2.549,-2.5393,-2.5359,-2.5361,-2.5361,-2.5361,-2.5361,-2.5361,-2.5361,-2.5361,-2.5361,-2.5361,-2.5361,-2.5361,-2.5361,-2.5361,-2.5361,-2.5361,-2.5361,-2.5361,-2.5361,-2.5361,-2.5361,-2.5361,-2.5361,-2.5361,-2.5361,-2.5361,-2.5361,-2.5361,-2.537,-2.5418,-2.5388,-2.5358,-2.5351,-2.5361,-2.537,-2.5418,-2.5427,-2.5451,-2.5499,-2.5499,-2.5512,-2.5524,-2.5572,-2.5609,-2.5626,-2.5666,-2.5703,-2.5703,-2.5703,-2.5703,-2.5703,-2.5703,-2.5703,-2.5703,-2.5698,-2.5675,-2.2454,-2.2652,-2.2849,-2.2886,-2.2982,-2.3098,-2.3163,-2.3184,-2.3184,-2.3174,-2.3789,-2.4319,-2.4252,-2.4931,-2.5476,-2.5399,-2.4707,-2.3813,-2.2771,-2.1863,-2.1248,-2.1103,-2.11,-2.1412,-2.2212,-2.228,-2.2974,-2.4629,-2.3959,-2.3865,-2.4737,-2.479,-2.479,-2.479,-2.4804,-2.4804,-2.4804,-2.4804,-2.4804,-2.4804,-2.4933,-2.4989,-2.5001,-2.5203,-2.5312,-2.5389,-2.5389,-2.5428,-2.5495,-2.5505,-2.5493,-2.5503,-2.5503,-2.5503,-2.5503,-2.5503,-2.5488,-2.5495,-2.5495,-2.5495,-2.5495,-2.5495,-2.5495,-2.5495,-2.5495,-2.5495,-2.5495,-2.5495,-2.5495,-2.5495,-2.5495,-2.5495,-2.5495,-2.5495,-2.5495,-2.5495,-2.5495,-2.5495,-2.5495,-2.5495,-2.5495,-2.5495,-2.5495,-2.5495,-2.5495,-2.5505,-2.5498,-2.5492,-2.5486,-2.5495,-2.5495,-2.5505,-2.5495,-2.5503,-2.5503,-2.5503,-2.5528,-2.5592,-2.5601,-2.5631,-2.5692,-2.5703,-2.5703,-2.5703,-2.5703,-2.5703,-2.5703,-2.5703,-2.5703,-2.5703,-2.5703,-2.5703,-2.0736,-2.1196,-2.1833,-2.2555,-2.2771,-2.2843,-2.2997,-2.3028,-2.3047,-2.3085,-2.332,-2.3496,-2.3467,-2.4152,-2.4512,-2.3905,-2.3575,-2.3084,-2.2134,-2.1243,-2.0907,-2.1435,-2.201,-2.268,-2.3484,-2.2802,0.0,-2.3841,-2.3671,-2.3888,-2.4757,-2.4877,-2.4933,-2.4933,-2.5061,-2.5126,-2.5126,-2.5126,-2.5145,-2.5205,-2.5287,-2.5338,-2.5338,-2.5399,-2.5457,-2.5476,-2.5476,-2.5483,-2.5499,-2.5542,-2.5562,-2.5567,-2.5619,-2.5629,-2.563,-2.563,-2.5628,-2.5619,-2.5531,-2.5502,-2.5502,-2.5502,-2.5502,-2.5502,-2.5502,-2.5502,-2.5502,-2.5502,-2.5502,-2.5502,-2.5502,-2.5502,-2.5502,-2.5502,-2.5502,-2.5502,-2.5502,-2.5502,-2.5502,-2.5502,-2.5502,-2.5502,-2.5502,-2.5502,-2.5519,-2.5563,-2.5534,-2.5503,-2.5499,-2.5502,-2.5522,-2.5563,-2.557,-2.5577,-2.5629,-2.5634,-2.5637,-2.5662,-2.5668,-2.5681,-2.5703,-2.5703,-2.5703,-2.5703,-2.5703,-2.5703,-2.5703,-2.5703,-2.5703,-2.5703,-2.5703,-2.5703,-1.9295,-1.9688,-2.0236,-2.0632,-2.0776,-2.0935,-2.1415,-2.1533,-2.1653,-2.2052,-2.2383,-2.2612,-2.2627,-2.331,-2.3689,-2.313,-2.2771,-2.2369,-2.1782,-2.0949,-2.0834,-2.202,-2.2662,-2.3441,-2.4563,-2.3918,0.0,-2.414,-2.3933,-2.4162,-2.5003,-2.513,-2.5187,-2.5187,-2.5301,-2.537,-2.537,-2.537,-2.5389,-2.5437,-2.5476,-2.5495,-2.5495,-2.5495,-2.5511,-2.5544,-2.5536,-2.5551,-2.5571,-2.5624,-2.5641,-2.564,-2.5681,-2.5697,-2.5704,-2.5704,-2.5704,-2.5694,-2.5597,-2.5567,-2.5567,-2.5567,-2.5567,-2.5567,-2.5567,-2.5567,-2.5567,-2.5567,-2.5567,-2.5567,-2.5567,-2.5567,-2.5567,-2.5567,-2.5567,-2.5567,-2.5567,-2.5567,-2.5567,-2.5567,-2.5567,-2.5567,-2.5567,-2.5571,-2.559,-2.563,-2.5595,-2.5567,-2.5567,-2.5567,-2.5592,-2.5628,-2.5641,-2.5644,-2.5703,-2.5703,-2.5703,-2.5703,-2.5703,-2.5703,-2.5703,-2.5683,-2.5661,-2.5661,-2.5642,-2.5633,-2.5633,-2.5633,-2.5633,-2.5633,-2.5633,-2.5633,-1.8118,-1.8121,-1.8124,-1.7375,-1.7274,-1.7643,-1.8651,-1.8923,-1.9227,-2.0188,-2.108,-2.1692,-2.1715,-2.248,-2.3076,-2.3037,-2.2412,-2.188,-2.1733,-2.1,-2.1113,0.0,0.0,-2.3663,-2.5338,-2.5511,0.0,-2.5418,0.0,-2.4694,-2.5457,-2.5495,-2.5495,-2.5495,-2.5495,-2.5495,-2.5495,-2.5505,-2.5516,-2.5508,-2.5513,-2.5512,-2.5512,-2.5512,-2.5538,-2.5611,-2.5611,-2.5642,-2.5692,-2.5692,-2.5693,-2.5693,-2.5693,-2.5693,-2.5693,-2.5693,-2.5693,-2.5693,-2.5693,-2.5693,-2.5703,-2.5703,-2.5703,-2.5703,-2.5703,-2.5703,-2.5703,-2.5703,-2.5703,-2.5703,-2.5703,-2.5703,-2.5703,-2.5703,-2.5703,-2.5703,-2.5703,-2.5703,-2.5703,-2.5703,-2.5703,-2.5703,-2.5703,-2.5702,-2.5707,-2.5707,-2.5695,-2.5703,-2.5703,-2.5703,-2.5703,-2.5703,-2.5703,-2.5703,-2.5703,-2.5703,-2.5692,-2.5692,-2.5693,-2.5693,-2.5693,-2.5631,-2.5592,-2.5591,-2.5528,-2.5498,-2.5498,-2.5498,-2.5498,-2.5498,-2.5498,-2.5498,-1.6234,-1.6376,-1.6925,-1.696,-1.6997,-1.7321,-1.8418,-1.9141,-1.9686,-2.0089,-2.0827,-2.1269,-2.0836,-2.1998,-2.2825,-2.2226,-2.2988,0.0,-2.2015,-2.1664,0.0,-2.2955,-2.3071,-2.3731,-2.5406,-2.5617,0.0,0.0,-2.5328,-2.5275,-2.5492,-2.5502,-2.5502,-2.5502,-2.5502,-2.5502,-2.5502,-2.5549,-2.5572,-2.5577,-2.5632,-2.5648,-2.5648,-2.5648,-2.5662,-2.5669,-2.5669,-2.5658,-2.5628,-2.5628,-2.5601,-2.5554,-2.5554,-2.5554,-2.5554,-2.5554,-2.5554,-2.5554,-2.5554,-2.5619,-2.5703,-2.5703,-2.5703,-2.5703,-2.5703,-2.5703,-2.5703,-2.5703,-2.5703,-2.5703,-2.5703,-2.5703,-2.5703,-2.5703,-2.5703,-2.5703,-2.5703,-2.5703,-2.5703,-2.5703,-2.5703,-2.5703,-2.5703,-2.5696,-2.5698,-2.5698,-2.5698,-2.5703,-2.5703,-2.5703,-2.5703,-2.5703,-2.5703,-2.5703,-2.5703,-2.5649,-2.5628,-2.5628,-2.5581,-2.5554,-2.5554,-2.5532,-2.5529,-2.5524,-2.5513,-2.55,-2.55,-2.55,-2.55,-2.55,-2.55,-2.55,-1.5422,-1.5453,-1.5812,-1.5728,-1.598,-1.6548,-1.7716,-1.8878,-1.9764,-1.9926,-2.0661,-2.1051,-2.0392,-2.1425,-2.2255,0.0,0.0,0.0,-2.2508,-2.2053,-2.2125,-2.2955,-2.2724,-2.3163,-2.4862,-2.5057,-2.5216,0.0,-2.558,-2.5586,-2.5586,-2.5586,-2.5586,-2.5586,-2.5586,-2.5586,-2.5586,-2.5629,-2.5638,-2.5643,-2.5648,-2.5657,-2.5657,-2.5632,-2.5607,-2.5607,0.0,-2.5593,-2.5557,-2.5562,-2.553,-2.5505,-2.5505,-2.5505,-2.5505,-2.5505,-2.5505,-2.5505,-2.5505,-2.5553,-2.5607,-2.5608,-2.5607,-2.5607,-2.5607,-2.5607,-2.5607,-2.5607,-2.5607,-2.5607,-2.5607,-2.5607,-2.5607,-2.5607,-2.5607,-2.5607,-2.5607,-2.5607,-2.5607,-2.5607,-2.5607,-2.5607,-2.5607,-2.5607,-2.5607,-2.5607,-2.5607,-2.5607,-2.5607,-2.5636,-2.5657,-2.5657,-2.5629,-2.5607,-2.5607,-2.5579,-2.5564,-2.5563,-2.5514,-2.5505,-2.5505,-2.5476,-2.5455,-2.5457,-2.5428,-2.5409,-2.5409,-2.5409,-2.5409,-2.5409,-2.5409,-2.5409,-1.4925,-1.4795,-1.4734,-1.4132,-1.4666,-1.5678,-1.6846,-1.8384,-1.96,-1.975,-2.0509,-2.0934,-2.0216,-2.0894,-2.1625,-2.1838,-2.2591,-2.3158,-2.3158,-2.2508,-2.2309,-2.3067,-2.2396,-2.2557,-2.4296,-2.4262,-2.4456,-2.5283,-2.5339,-2.5436,-2.5662,-2.5575,-2.5458,-2.5351,-2.5448,-2.5506,-2.5506,-2.5506,-2.5507,-2.5506,-2.546,-2.5428,-2.5438,-2.5482,-2.5502,-2.5502,0.0,0.0,-2.549,-2.5491,-2.5486,-2.5476,-2.5476,-2.5476,-2.5476,-2.5476,-2.5476,-2.5476,-2.5476,-2.5476,-2.5485,-2.5483,-2.5502,-2.5502,-2.5502,-2.5502,-2.5502,-2.5502,-2.5502,-2.5502,-2.5502,-2.5502,-2.5502,-2.5502,-2.5502,-2.5502,-2.5502,-2.5502,-2.5502,-2.5502,-2.5502,-2.5502,-2.5502,-2.5502,-2.5502,-2.5502,-2.5502,-2.5502,-2.5502,-2.5555,-2.5591,-2.5592,-2.5529,-2.5502,-2.5502,-2.5492,-2.5489,-2.5486,-2.5486,-2.5476,-2.5476,-2.5418,-2.539,-2.539,-2.5322,-2.5293,-2.5293,-2.5293,-2.5293,-2.5293,-2.5293,-2.5293,-1.3153,-1.3238,-1.356,-1.2947,-1.3982,-1.5425,-1.6472,-1.808,-1.9418,-1.9596,-2.0284,-2.0693,-2.0126,-2.0757,-2.1646,-2.2546,-2.3419,-2.3984,-2.3984,-2.3859,-2.3818,-2.3974,-2.3265,-2.3437,-2.5128,-2.4033,0.0,0.0,0.0,-2.407,-2.5457,-2.4898,-2.4213,-2.3488,-2.4169,-2.4542,-2.4542,-2.4537,-2.4544,-2.4544,-2.4526,-2.4527,-2.4553,-2.5196,-2.5503,-2.5503,-2.5503,0.0,-2.5417,-2.5428,-2.538,-2.5322,-2.5322,-2.5322,-2.5322,-2.5322,-2.5322,-2.5322,-2.5322,-2.5322,-2.5351,-2.5456,-2.5503,-2.5503,-2.5503,-2.5503,-2.5503,-2.5503,-2.5503,-2.5503,-2.5503,-2.5503,-2.5503,-2.5503,-2.5503,-2.5503,-2.5503,-2.5503,-2.5503,-2.5503,-2.5503,-2.5503,-2.5503,-2.5503,-2.5503,-2.5503,-2.5503,-2.5503,-2.5503,-2.5507,-2.5518,-2.5515,-2.5505,-2.5503,-2.5503,-2.5455,-2.5427,-2.5418,-2.537,-2.5322,-2.5322,-2.5312,-2.5312,-2.5312,-2.5303,-2.5293,-2.5293,-2.5293,-2.5293,-2.5293,-2.5293,-2.5293,-1.2601,-1.2846,-1.3259,-1.2655,-1.4047,-1.5725,-1.6317,-1.8176,-1.9684,-1.9344,-2.0094,-2.0588,-1.9924,-2.0614,-2.1463,-2.1981,-2.3237,-2.4149,-2.4149,-2.4149,-2.4159,-2.4148,-2.3415,-2.3203,-2.402,-2.3368,-2.3071,-2.3493,0.0,-2.3285,-2.4147,-2.3831,-2.3436,-2.3013,-2.3408,-2.3618,-2.3624,-2.3618,-2.3621,-2.363,-2.4054,-2.4252,-2.4274,-2.5034,-2.5399,-2.5399,-2.5399,0.0,-2.5341,-2.5341,-2.5322,-2.5293,-2.5293,-2.5293,-2.5293,-2.5293,-2.5293,-2.5293,-2.5293,-2.5293,-2.5303,-2.538,-2.5399,-2.5399,-2.5399,-2.5399,-2.5399,-2.5399,-2.5399,-2.5399,-2.5399,-2.5399,-2.5399,-2.5399,-2.5399,-2.5399,-2.5399,-2.5399,-2.5399,-2.5399,-2.5399,-2.5399,-2.5399,-2.5399,-2.5399,-2.5399,-2.5399,-2.5399,-2.5399,-2.5403,-2.5408,-2.5438,-2.5418,-2.5399,-2.5399,-2.537,-2.5341,-2.5341,-2.5312,-2.5293,-2.5293,-2.5293,-2.5293,-2.5293,-2.5293,-2.5293,-2.5293,-2.5293,-2.5293,-2.5293,-2.5293,-2.5293,-1.2542,-1.2846,-1.3285,-1.2811,-1.4362,-1.608,-1.6395,-1.827,-1.9767,-1.9136,-1.9787,-2.0293,-1.9713,-2.0332,-2.1083,-2.1509,-2.2785,-2.3841,-2.4236,-2.4273,-2.4253,-2.4253,-2.3476,-2.2949,-2.2949,-2.2633,0.0,-2.2432,0.0,0.0,-2.2667,-2.2681,-2.2601,-2.2427,-2.2591,-2.2681,-2.2677,-2.2686,-2.2684,-2.2688,-2.3512,-2.3898,-2.3927,-2.487,-2.5293,-2.5293,-2.5293,0.0,0.0,-2.5293,-2.5293,-2.5293,-2.5293,-2.5293,-2.5293,-2.5293,-2.5293,-2.5293,-2.5293,-2.5293,-2.5293,-2.5293,-2.5293,-2.5293,-2.5293,-2.5293,-2.5293,-2.5293,-2.5293,-2.5293,-2.5293,-2.5293,-2.5293,-2.5293,-2.5293,-2.5293,-2.5293,-2.5293,-2.5293,-2.5293,-2.5293,-2.5293,-2.5293,-2.5293,-2.5293,-2.5293,-2.5293,-2.5293,-2.5293,-2.5293,-2.5293,-2.5311,-2.5312,-2.5293,-2.5293,-2.5293,-2.5274,-2.5244,-2.5234,-2.5223,-2.5191,-2.5191,-2.5191,-2.5191,-2.5191,-2.5191,-2.5191,-2.5191,-2.5191,-2.5191,-2.5191,-2.5191,-1.2686,-1.2846,-1.3388,-1.3328,-1.4676,-1.6175,-1.688,-1.811,-1.91,-1.9011,-1.9237,-1.9472,-1.9574,-1.9697,-2.0355,-2.2174,-2.2477,-2.3035,-2.4696,-2.4812,-2.4733,-2.4733,-2.3973,-2.3443,-2.3442,-2.2067,-2.1197,-2.1251,0.0,0.0,-2.1582,-2.1639,-2.1301,-2.0562,-2.1262,-2.1639,-2.1639,-2.1639,-2.1639,-2.1657,-2.2523,-2.2928,-2.2976,-2.4582,-2.5293,-2.5293,-2.5293,0.0,0.0,-2.5293,-2.5293,-2.5293,-2.5293,-2.5293,-2.5293,-2.5293,-2.5293,-2.5293,-2.5293,-2.5293,-2.5293,-2.5293,-2.5293,-2.5293,-2.5293,-2.5293,-2.5293,-2.5293,-2.5293,-2.5293,-2.5293,-2.5293,-2.5293,-2.5293,-2.5293,-2.5293,-2.5293,-2.5293,-2.5293,-2.5293,-2.5293,-2.5293,-2.5293,-2.5293,-2.5293,-2.5293,-2.5293,-2.5293,-2.5293,-2.5293,-2.5234,-2.5065,-2.5194,-2.5293,-2.5293,-2.5293,-2.5214,-2.5034,-2.5022,-2.4971,-2.4851,-2.4847,-2.4847,-2.4847,-2.4847,-2.4847,-2.4847,-2.4847,-2.4847,-2.4847,-2.4847,-2.4847,-1.3354,-1.3498,-1.3954,-1.3515,-1.4586,-1.5949,-1.6684,-1.7713,-1.8566,-1.8734,-1.8948,-1.9182,-1.9389,-1.9513,-2.0023,-2.1311,-2.1953,-2.2718,-2.3932,-2.4506,-2.4804,-2.4804,-2.4488,-2.4082,0.0,0.0,-2.1384,-2.0387,0.0,0.0,-2.0448,-2.0547,-2.0514,-2.0304,-2.061,-2.0783,-2.0783,-2.0783,-2.0721,-2.0612,-2.1484,-2.2173,-2.2719,-2.3868,-2.4724,-2.5293,-2.5293,0.0,0.0,-2.5172,-2.512,-2.5109,-2.5024,-2.4997,-2.5009,-2.5086,-2.512,-2.512,-2.512,-2.512,-2.5109,-2.5034,-2.4997,-2.5043,-2.5243,-2.5293,-2.5293,-2.5293,-2.5293,-2.5293,-2.5293,-2.5293,-2.5293,-2.5293,-2.5293,-2.5293,-2.5293,-2.5293,-2.5293,-2.5293,-2.5293,-2.5293,-2.5293,-2.5203,-2.512,-2.512,-2.5049,-2.4997,-2.4997,-2.4997,-2.4971,-2.4887,-2.5018,-2.5096,-2.5009,-2.4997,-2.4962,-2.4877,-2.4887,-2.4855,-2.4804,-2.4804,-2.4804,-2.4804,-2.4804,-2.4804,-2.4804,-2.4804,-2.4804,-2.4804,-2.4804,-2.4804,-1.4395,-1.4428,-1.4758,-1.4455,-1.5166,-1.6111,-1.6847,-1.762,-1.827,-1.8547,-1.8807,-1.9069,-1.9259,-1.9418,-1.9787,0.0,-2.1559,-2.2449,-2.3323,-2.4114,-2.4623,-2.4623,0.0,-2.4289,0.0,-2.2383,-2.1283,0.0,0.0,0.0,-1.9738,-1.9824,-1.9952,-2.0153,-2.0153,-2.0153,-2.0153,-2.0153,-2.0079,-1.9953,-2.1064,-2.1922,-2.254,-2.3607,-2.4486,-2.5149,0.0,0.0,0.0,-2.4993,-2.4946,-2.4933,-2.4837,-2.4804,-2.4809,-2.4904,-2.4946,-2.4946,-2.4946,-2.4946,-2.493,-2.4828,-2.4804,-2.4837,-2.508,-2.5149,-2.5149,-2.5149,-2.5149,-2.5149,-2.5149,-2.5149,-2.5149,-2.5149,-2.5149,-2.5149,-2.5149,-2.5149,-2.5149,-2.5149,-2.5149,-2.5149,-2.5149,-2.5039,-2.4946,-2.4946,-2.486,-2.4804,-2.4804,-2.4804,-2.4775,-2.4716,-2.4795,-2.4841,-2.4795,-2.4804,-2.4766,-2.4716,-2.4716,-2.4685,-2.4632,-2.4623,-2.4623,-2.4623,-2.4623,-2.4623,-2.4623,-2.4623,-2.4623,-2.4623,-2.4623,-2.4623,-1.5773,-1.5578,-1.5756,-1.6495,-1.6682,-1.6885,-1.7625,-1.8005,-1.827,-1.8547,-1.8807,-1.9069,-1.9259,-1.9305,-1.9629,-2.0644,-2.1361,-2.2164,-2.3156,-2.3822,-2.4218,-2.4218,-2.4218,-2.3887,-2.3079,-2.1501,-2.0519,0.0,0.0,0.0,-1.9592,-1.9605,-1.9666,-1.98,-1.9811,-1.9811,-1.9811,-1.9811,-1.98,-1.9818,-2.1488,-2.229,-2.2365,-2.4039,-2.4795,0.0,0.0,0.0,0.0,-2.4804,-2.4804,-2.4804,-2.4804,-2.4804,-2.4804,-2.4804,-2.4804,-2.4804,-2.4804,-2.4804,-2.4804,-2.4804,-2.4804,-2.4804,-2.4795,-2.4804,-2.4804,-2.4804,-2.4804,-2.4804,-2.4804,-2.4804,-2.4804,-2.4804,-2.4804,-2.4804,-2.4804,-2.4804,-2.4804,-2.4804,-2.4804,-2.4804,-2.4804,-2.4795,-2.4804,-2.4804,-2.4804,-2.4804,-2.4804,-2.4804,-2.4731,-2.4519,-2.4502,-2.4584,-2.479,-2.4804,-2.4716,-2.4528,-2.4502,-2.4418,-2.4209,-2.4218,-2.4218,-2.4218,-2.4218,-2.4218,-2.4218,-2.4218,-2.4218,-2.4218,-2.4218,-2.4218,-1.6542,-1.636,-1.6419,-1.6648,-1.6699,-1.6902,-1.7633,-1.7869,-1.8048,-1.8517,-1.8669,-1.8843,-1.9227,-1.9305,-1.9779,-2.1249,-2.167,0.0,-2.3722,-2.4081,-2.4199,-2.4199,-2.4199,-2.3878,0.0,0.0,0.0,0.0,0.0,0.0,-1.9389,-1.9394,-1.9518,-1.9788,-1.98,-1.98,-1.98,-1.98,-1.975,-1.9675,-2.076,-2.1569,-2.2135,-2.3268,0.0,0.0,0.0,0.0,0.0,-2.4654,-2.4591,-2.4584,-2.4444,-2.4393,-2.441,-2.4536,-2.4591,-2.4591,-2.4591,-2.4591,-2.4568,-2.4426,-2.4393,-2.4393,-2.4393,-2.4584,-2.4804,-2.4804,-2.4804,-2.4804,-2.4804,-2.4804,-2.4804,-2.4804,-2.4804,-2.4804,-2.4804,-2.4804,-2.4804,-2.4804,-2.4804,-2.4804,-2.4804,-2.4685,-2.4591,-2.4591,-2.4478,-2.4393,-2.4393,-2.4393,-2.4366,-2.4303,-2.4303,-2.4312,-2.4383,-2.4393,-2.4357,-2.4303,-2.4303,-2.4275,-2.419,-2.4199,-2.4199,-2.4199,-2.4199,-2.4199,-2.4199,-2.4199,-2.4199,-2.4199,-2.4199,-2.4199,-1.7279,-1.7109,-1.7109,-1.7109,-1.7109,-1.7236,-1.7701,-1.7811,-1.7927,-1.8351,-1.8528,-1.8716,-1.9099,-1.9508,-2.0088,-2.1134,-2.184,-2.2602,-2.3612,-2.4006,-2.4199,-2.4199,0.0,0.0,0.0,-2.2446,0.0,0.0,0.0,0.0,-1.9305,-1.9305,-1.94,-1.9606,-1.9606,-1.9606,-1.9606,-1.9606,-1.9572,-1.9494,-2.0643,-2.1445,-2.1952,-2.3114,0.0,0.0,0.0,0.0,0.0,-2.4436,-2.4393,-2.4375,-2.4238,-2.4199,-2.4218,-2.4348,-2.4393,-2.4393,-2.4393,-2.4393,-2.4366,-2.4247,-2.4199,-2.4199,-2.4199,-2.4375,-2.4559,-2.4559,-2.4559,-2.4559,-2.4559,-2.4559,-2.4559,-2.4559,-2.4559,-2.4559,-2.4559,-2.4559,-2.4559,-2.4559,-2.4559,-2.4559,-2.4559,-2.4461,-2.4393,-2.4393,-2.4284,-2.4199,-2.4199,-2.4199,-2.4199,-2.4199,-2.4199,-2.4199,-2.4199,-2.4199,-2.4199,-2.4199,-2.4199,-2.4199,-2.4199,-2.4199,-2.4199,-2.4199,-2.4199,-2.4199,-2.4199,-2.4199,-2.4199,-2.4199,-2.4199,-2.4199,0.0,-1.7769,-1.7811,-1.7811,-1.7811,-1.7811,-1.7811,-1.7811,0.0,-1.8175,-1.843,-1.8706,-1.9038,-1.9867,-2.0539,-2.0659,-2.197,-2.3033,0.0,-2.3731,0.0,0.0,-2.417,0.0,-2.4116,0.0,0.0,0.0,0.0,0.0,-1.9283,-1.9283,-1.9299,-1.9289,-1.9299,-1.9299,-1.9305,-1.9305,-1.9305,-1.9323,-2.1004,-2.1803,-2.1858,-2.3465,0.0,0.0,0.0,0.0,0.0,-2.4199,-2.4199,-2.4199,-2.4199,-2.4199,-2.4199,-2.4199,-2.4199,-2.4199,-2.4199,-2.4199,-2.4199,-2.4199,-2.4199,-2.4199,-2.4199,-2.4199,-2.4199,-2.4199,-2.4199,-2.4199,-2.4199,-2.4199,-2.4199,-2.4199,-2.4199,-2.4199,-2.4199,-2.4199,-2.4199,-2.4199,-2.4199,-2.4199,-2.4199,-2.4199,-2.4199,-2.4199,-2.4199,-2.4199,-2.4199,-2.4199,-2.4199,-2.4199,-2.4199,-2.4199,-2.4199,-2.4199,-2.4199,-2.4199,-2.4199,-2.4199,-2.4199,-2.4199,-2.4199,-2.4199,-2.418,-2.4142,-2.4122,-2.4122,-2.4122,-2.4122,-2.4122,-2.4122,-1.7254,0.0,-1.7811,-1.7811,-1.7811,-1.7811,0.0,-1.7811,-1.7927,-1.841,-1.8556,-1.8922,-1.9968,-2.0332,-2.0915,-2.219,-2.2731,-2.3217,-2.3832,-2.408,0.0,-2.4199,-2.3967,-2.368,-2.3327,0.0,0.0,0.0,0.0,-1.906,-1.906,-1.906,-1.9134,-1.9299,-1.915,-1.915,-1.9289,-1.9305,-1.9305,-1.9323,-2.1004,-2.1803,-2.1858,-2.3465,0.0,0.0,0.0,0.0,-2.4199,-2.4199,-2.4199,-2.4199,-2.4199,-2.4199,-2.4199,-2.4199,-2.4199,-2.4199,-2.4199,-2.4199,-2.4199,-2.4199,-2.4199,-2.4199,-2.4199,-2.4199,-2.4199,-2.4199,-2.4199,-2.4199,-2.4199,-2.4199,-2.4199,-2.4199,-2.4199,-2.4199,-2.4199,-2.4199,-2.4199,-2.4199,-2.4199,-2.4199,-2.4199,-2.4199,-2.4199,-2.4199,-2.4199,-2.4199,-2.4199,-2.4199,-2.4199,-2.4199,-2.4199,-2.4199,-2.4199,-2.4199,-2.4199,-2.4199,-2.4199,-2.4199,-2.4199,-2.4199,-2.4199,-2.4199,-2.3946,-2.3692,-2.3446,-2.3446,-2.3446,-2.3446,-2.3446,-2.3446,-1.7245,-1.7809,-1.8452,-1.8333,-1.8393,-1.8497,-1.8497,-1.831,-1.8249,-1.8528,-1.8697,-1.9103,-2.0162,-2.0764,-2.151,-2.2795,-2.3318,0.0,0.0,0.0,-2.3648,-2.3648,-2.3053,-2.2537,0.0,0.0,0.0,0.0,0.0,-1.8816,-1.8816,-1.8816,-1.8869,-1.8973,-1.8869,-1.8974,-1.9299,-1.9305,-1.9482,-1.9867,-2.1171,-2.1978,-2.2391,-2.363,-2.4199,0.0,0.0,0.0,-2.4199,-2.4199,-2.4199,-2.4199,-2.4199,-2.4199,-2.4199,-2.4199,-2.4199,-2.4199,-2.4199,-2.4199,-2.4199,-2.4199,-2.4199,-2.4199,-2.4199,-2.4199,-2.4199,-2.4199,-2.4199,-2.4199,-2.4199,-2.4199,-2.4199,-2.4199,-2.4199,-2.4199,-2.4199,-2.4199,-2.4199,-2.4199,-2.4199,-2.4199,-2.4199,-2.4199,-2.4199,-2.4199,-2.4199,-2.4142,-2.3996,-2.3967,-2.3917,-2.3765,-2.3744,-2.3744,-2.3744,-2.3744,-2.3816,-2.3967,-2.3825,-2.3744,-2.3744,-2.3744,-2.3744,-2.3744,-2.3566,-2.3392,-2.3189,-2.3189,-2.3189,-2.3189,-2.3189,-2.3189,-1.7443,-1.8417,-1.9334,-1.895,-1.9106,-1.9391,-1.9391,0.0,-1.8836,-1.8989,-1.9201,-1.9623,-2.0472,-2.1361,0.0,0.0,0.0,0.0,-2.4199,-2.3612,-2.3125,-2.296,-2.2087,0.0,0.0,0.0,0.0,0.0,0.0,-1.8528,-1.8528,-1.8528,-1.8556,-1.8594,-1.8547,-1.8753,-1.9187,-1.9187,-1.9623,-2.0453,-2.1277,-2.2109,-2.2941,-2.3765,-2.4122,0.0,0.0,0.0,-2.4122,-2.4074,-2.4074,-2.4122,-2.4122,-2.4142,-2.4199,-2.4199,-2.4199,-2.4199,-2.4199,-2.4199,-2.4199,-2.4199,-2.417,-2.4122,-2.4122,-2.4094,-2.4045,-2.4045,-2.4122,-2.4199,-2.4151,-2.417,-2.417,-2.4065,-2.4094,-2.4122,-2.4065,-2.4045,-2.4045,-2.4045,-2.4045,-2.4045,-2.4045,-2.4045,-2.4045,-2.4045,-2.4045,-2.3937,-2.3671,-2.3619,-2.3513,-2.3221,-2.3189,-2.3189,-2.3189,-2.3141,-2.3236,-2.3522,-2.3337,-2.3189,-2.3189,-2.3189,-2.3174,-2.3117,-2.3117,-2.3093,-2.3063,-2.3063,-2.3063,-2.3063,-2.3063,-2.3063,-1.7352,-1.8789,-1.9761,-1.8863,-1.9189,-1.9726,-1.9726,-1.9677,-1.9882,0.0,0.0,-2.1361,-2.2374,-2.2694,-2.3088,0.0,0.0,-2.4199,0.0,0.0,-2.3692,-2.2777,0.0,0.0,0.0,0.0,0.0,0.0,0.0,-1.827,-1.827,-1.827,-1.8371,-1.8585,-1.8371,-1.8402,-1.8707,-1.8716,-1.9228,-2.0255,-2.0777,-2.1574,-2.2605,-2.3412,-2.3774,0.0,0.0,-2.3774,-2.3744,-2.3468,-2.3522,-2.3774,-2.3774,-2.3946,-2.4199,-2.4199,-2.4199,-2.4199,-2.4199,-2.4199,-2.4199,-2.4199,-2.4016,-2.3774,-2.3774,-2.3566,-2.3337,-2.3337,-2.3765,-2.4142,-2.3846,-2.3996,-2.4054,-2.3491,-2.3566,-2.3692,-2.3414,-2.3337,-2.3337,-2.3337,-2.3337,-2.3337,-2.3337,-2.3337,-2.3337,-2.3337,-2.3337,-2.3337,-2.3291,-2.3268,-2.3268,-2.3221,-2.3189,-2.3189,-2.3189,-2.2939,-2.2797,-2.2839,-2.3069,-2.3189,-2.3189,-2.3189,-2.3069,-2.2772,-2.2772,-2.2678,-2.2443,-2.2443,-2.2443,-2.2443,-2.2443,-2.2443,-1.698,-1.8433,-1.9662,-1.9631,-2.0442,-2.127,-2.127,-2.1065,-2.1016,0.0,0.0,0.0,0.0,0.0,-2.3263,-2.407,0.0,-2.4052,-2.3612,-2.318,-2.2548,0.0,0.0,0.0,0.0,0.0,0.0,0.0,0.0,0.0,-1.7984,-1.7984,-1.8048,-1.8166,-1.8048,-1.8048,-1.8175,-1.8175,-1.8787,-1.9988,-2.0607,-2.1389,-2.232,-2.3066,-2.3414,-2.3414,0.0,-2.3414,-2.3414,-2.3259,-2.3291,-2.3414,-2.3414,-2.3513,-2.3671,-2.3671,-2.3671,-2.3671,-2.3671,-2.3671,-2.3671,-2.3671,-2.3566,-2.3414,-2.3414,-2.3314,-2.3189,-2.3189,-2.3414,-2.3619,-2.3468,-2.3535,-2.3566,-2.3268,-2.3314,-2.3392,-2.3236,-2.3189,-2.3189,-2.3189,-2.3189,-2.3189,-2.3189,-2.3189,-2.3189,-2.3189,-2.3189,-2.3141,-2.2939,-2.2914,-2.2881,-2.273,-2.2704,-2.2704,-2.2704,-2.2581,-2.2473,-2.2473,-2.2634,-2.2704,-2.2704,-2.2704,-2.2634,-2.2482,-2.2473,-2.2426,-2.231,-2.231,-2.231,-2.231,-2.231,-2.231,-1.6637,-1.795,-1.9308,-2.0519,-2.1425,-2.2128,-2.2517,-2.2191,-2.1913,0.0,0.0,0.0,0.0,-2.2988,0.0,-2.3823,-2.3924,-2.3684,-2.2996,-2.2264,-2.1439,0.0,0.0,0.0,0.0,0.0,0.0,0.0,0.0,0.0,-1.7811,-1.7811,-1.7811,-1.7811,-1.7811,-1.7811,-1.7811,-1.7811,-1.8439,-1.9705,-2.0367,-2.1141,-2.2014,-2.275,-2.3085,-2.3085,-2.3085,-2.3085,-2.3069,-2.3014,-2.3038,-2.3085,-2.3085,-2.3117,-2.3189,-2.3189,-2.3189,-2.3189,-2.3189,-2.3189,-2.3189,-2.3189,-2.315,-2.3085,-2.3085,-2.303,-2.2998,-2.2998,-2.2998,-2.2989,-2.3078,-2.3141,-2.3165,-2.3014,-2.303,-2.3078,-2.2989,-2.2998,-2.2998,-2.2998,-2.2998,-2.3051,-2.321,-2.3261,-2.3261,-2.3261,-2.3261,-2.3091,-2.2669,-2.2599,-2.2519,-2.233,-2.231,-2.231,-2.231,-2.231,-2.231,-2.231,-2.231,-2.231,-2.231,-2.231,-2.231,-2.231,-2.231,-2.2403,-2.2564,-2.2564,-2.2657,-2.2818,-2.264,-2.2564,-1.6507,-1.7523,-1.8748,-2.1116,-2.1172,-2.1054,-2.2612,-2.2355,-2.2225,-2.3712,0.0,0.0,0.0,-2.2988,-2.3024,-2.3088,-2.3098,-2.2978,-2.2656,0.0,0.0,0.0,0.0,0.0,0.0,0.0,0.0,0.0,0.0,0.0,-1.7811,-1.7811,0.0,-1.7811,-1.7811,-1.7811,-1.7811,-1.7811,-1.8338,-1.9434,-1.9857,-2.0609,-2.1652,-2.2399,-2.2746,-2.2746,-2.2746,-2.2746,-2.2729,-2.248,-2.2509,-2.2746,-2.2746,-2.2923,-2.3189,-2.3189,-2.3189,-2.3189,-2.3189,-2.3189,-2.3189,-2.3189,-2.2996,-2.2746,-2.2746,-2.2572,-2.2349,-2.2349,-2.2349,-2.2407,-2.266,-2.2972,-2.3063,-2.2489,-2.2545,-2.2669,-2.2415,-2.2349,-2.2349,-2.2349,-2.2349,-2.2589,-2.3277,-2.3396,-2.3396,-2.3396,-2.3396,-2.3121,-2.2415,-2.233,-2.233,-2.231,-2.231,-2.231,-2.231,-2.231,-2.231,-2.231,-2.231,-2.231,-2.231,-2.231,-2.231,-2.231,-2.231,-2.264,-2.3317,-2.3317,-2.3663,-2.4337,-2.363,-2.3317,-1.5928,-1.7495,-1.9188,-2.0629,-2.0732,-2.0934,0.0,-2.2767,-2.2859,-2.3969,-2.4199,0.0,0.0,0.0,-2.285,-2.2336,-2.2244,-2.199,-2.1224,0.0,0.0,0.0,0.0,0.0,0.0,0.0,0.0,0.0,0.0,0.0,0.0,-1.7557,0.0,-1.7811,-1.7811,-1.7811,-1.7811,-1.7811,-1.8005,-1.842,-1.9492,-2.0459,-2.1379,-2.2122,-2.2436,-2.2436,-2.2436,-2.2436,-2.2445,-2.2349,-2.2369,-2.2436,-2.2436,-2.2517,-2.2642,-2.2642,-2.2642,-2.2642,-2.2642,-2.2642,-2.2642,-2.2642,-2.2536,-2.2436,-2.2436,-2.2388,-2.231,-2.231,-2.231,-2.233,-2.2426,-2.2544,-2.2571,-2.2349,-2.2388,-2.2426,-2.233,-2.231,-2.2446,-2.2902,-2.2978,-2.3215,-2.3943,-2.4069,-2.3917,-2.3469,-2.3393,-2.3131,-2.2403,-2.231,-2.231,-2.231,-2.231,-2.231,-2.231,-2.2725,-2.2978,-2.2978,-2.2556,-2.231,-2.231,-2.231,-2.253,-2.2978,-2.2978,-2.3342,-2.4069,-2.4069,-2.4244,-2.4506,-2.4227,-2.3833,-1.5947,-1.7549,-1.9179,-2.0237,-2.0494,-2.086,-2.2308,-2.2419,-2.2529,-2.3602,-2.34,-2.2868,-2.23,0.0,0.0,0.0,-2.1339,-2.1007,0.0,0.0,0.0,0.0,0.0,0.0,0.0,0.0,0.0,0.0,0.0,0.0,0.0,0.0,0.0,0.0,-1.7811,-1.7811,-1.7811,-1.7811,-1.8017,-1.8498,-1.952,-2.0297,-2.0847,-2.1854,-2.231,-2.231,-2.231,-2.231,-2.231,-2.231,-2.231,-2.231,-2.231,-2.231,-2.231,-2.231,-2.231,-2.231,-2.231,-2.231,-2.231,-2.231,-2.231,-2.231,-2.231,-2.231,-2.231,-2.231,-2.231,-2.231,-2.231,-2.231,-2.231,-2.231,-2.231,-2.231,-2.231,-2.2488,-2.2801,-2.33,-2.3579,-2.3968,-2.4712,-2.4839,-2.467,-2.4171,-2.4095,-2.374,-2.2775,-2.2657,-2.2564,-2.2327,-2.231,-2.231,-2.231,-2.2767,-2.3148,-2.3384,-2.2928,-2.2657,-2.2657,-2.2657,-2.2885,-2.3384,-2.3621,-2.4103,-2.4839,-2.4688,-2.4797,-2.5169,-2.4789,-2.4292,-1.6774,-1.7648,-1.8509,-2.009,-2.0494,-2.0739,-2.1593,-2.1134,-2.0979,-2.2639,-2.1667,-2.0503,-2.0494,-2.0494,0.0,-2.0484,-2.0316,0.0,0.0,0.0,0.0,0.0,0.0,0.0,0.0,0.0,0.0,0.0,0.0,0.0,0.0,0.0,0.0,0.0,-1.7789,-1.7789,-1.7789,-1.7789,-1.8532,-1.9985,-1.9993,-2.0002,-2.0069,-2.1589,-2.231,-2.231,-2.231,-2.231,-2.231,-2.231,-2.231,-2.231,-2.231,-2.231,-2.231,-2.231,-2.231,-2.231,-2.231,-2.231,-2.231,-2.231,-2.231,-2.231,-2.231,-2.231,-2.231,-2.231,-2.231,-2.231,-2.231,-2.231,-2.231,-2.231,-2.231,-2.231,-2.2319,-2.2885,-2.3393,-2.3418,-2.3993,-2.4729,-2.5482,-2.5617,-2.5617,-2.5609,-2.5617,-2.5076,-2.3579,-2.3401,-2.3131,-2.2367,-2.2299,-2.2299,-2.2299,-2.2307,-2.262,-2.3367,-2.3418,-2.3418,-2.341,-2.341,-2.341,-2.341,-2.412,-2.4856,-2.5585,-2.5053,-2.5452,-2.6674,-2.5376,-2.4688,-1.7172,-1.8615,-2.0072,-2.0423,-2.0494,-2.0739,0.0,-2.1451,0.0,0.0,-2.1625,-2.1226,-2.0604,-2.0376,0.0,0.0,0.0,0.0,0.0,0.0,0.0,0.0,0.0,0.0,0.0,0.0,0.0,0.0,0.0,0.0,0.0,0.0,0.0,0.0,-1.7447,-1.7328,-1.7093,-1.7093,-1.7548,-1.8448,-1.899,-2.0061,-2.1615,-2.2099,-2.231,-2.231,-2.231,-2.231,-2.231,-2.231,-2.231,-2.231,-2.231,-2.231,-2.231,-2.231,-2.231,-2.231,-2.231,-2.231,-2.231,-2.231,-2.231,-2.231,-2.231,-2.231,-2.231,-2.231,-2.231,-2.231,-2.231,-2.231,-2.231,-2.231,-2.231,-2.2454,-2.2961,-2.3249,-2.3706,-2.4754,-2.5127,-2.5507,-2.6251,-2.637,-2.6201,-2.5685,-2.5272,-2.4514,-2.3031,-2.3625,-2.3745,-2.2632,-2.2973,-2.3152,-2.2816,-2.327,-2.3669,-2.388,-2.3888,-2.3983,-2.4179,-2.4154,-2.4227,-2.4381,-2.4605,-2.4924,-2.5326,-2.5171,-2.5276,-2.5627,-2.5268,-2.4754,-1.816,-1.9298,-2.0349,-2.0475,-2.0494,-2.0589,-2.0925,0.0,0.0,0.0,-2.0174,-1.9927,-1.9402,-1.8982,0.0,0.0,0.0,0.0,0.0,0.0,0.0,0.0,0.0,0.0,0.0,0.0,0.0,0.0,0.0,0.0,0.0,0.0,0.0,0.0,-1.7101,-1.7002,-1.6789,-1.6789,-1.7141,-1.7836,-1.8551,-1.978,-2.1396,-2.184,-2.1936,-2.1781,-2.1781,-2.1781,-2.1781,-2.1781,-2.1781,-2.1781,-2.1781,-2.1781,-2.1781,-2.1781,-2.1781,-2.1781,-2.1781,-2.1781,-2.1781,-2.1781,-2.1781,-2.1781,-2.1781,-2.1781,-2.1781,-2.1781,-2.1781,-2.1781,-2.1781,-2.1781,-2.1878,-2.2217,-2.2172,-2.2186,-2.284,-2.3123,-2.3585,-2.4653,-2.5162,-2.5582,-2.6013,-2.6079,-2.5938,-2.5516,-2.4906,-2.4189,-2.3294,-2.3605,-2.3597,-2.2857,-2.3148,-2.3312,-2.3028,-2.341,-2.3797,-2.4069,-2.4084,-2.4305,-2.4753,-2.4514,-2.4386,-2.4525,-2.481,-2.5049,-2.5221,-2.4981,-2.4981,-2.5174,-2.4981,-2.4616,-1.9464,-1.9723,-1.9764,-2.0372,-2.0494,-2.0331,-1.9725,-1.9764,-1.9632,-1.8658,0.0,-1.7408,-1.7408,-1.684,-1.6574,0.0,0.0,0.0,0.0,0.0,0.0,0.0,0.0,0.0,0.0,0.0,0.0,0.0,0.0,0.0,0.0,0.0,0.0,-1.6763,-1.6763,-1.6738,-1.6712,-1.6712,-1.708,0.0,-1.8402,-1.9102,-1.9914,-2.1043,-2.1346,-2.0999,-2.0999,-2.0999,-2.0999,-2.0999,-2.0999,-2.0999,-2.0999,-2.0999,-2.0999,-2.0999,-2.0999,-2.0999,-2.0999,-2.0999,-2.0999,-2.0999,-2.0999,-2.0999,-2.0999,-2.0999,-2.0999,-2.0999,-2.0999,-2.0999,-2.0999,-2.0999,-2.1189,-2.1982,-2.1869,-2.17,-2.2245,-2.276,-2.3248,-2.375,-2.458,-2.5221,-2.5221,-2.5221,-2.5174,-2.5136,-2.4609,-2.4156,-2.4055,-2.3554,-2.3159,-2.3024,-2.3071,-2.3111,-2.3074,-2.303,-2.3336,-2.402,-2.406,-2.4346,-2.5043,-2.4499,-2.4148,-2.4047,-2.4683,-2.5002,-2.4971,-2.4498,-2.453,-2.502,-2.4544,-2.4224,-1.9917,-1.9858,-1.991,-2.0564,-2.0501,-1.9876,-1.8342,-1.7876,-1.7692,-1.7478,-1.7003,-1.6634,-1.6634,-1.6333,0.0,0.0,0.0,0.0,0.0,0.0,0.0,0.0,0.0,0.0,0.0,0.0,0.0,0.0,0.0,0.0,0.0,0.0,0.0,-1.6402,-1.6402,-1.6274,-1.6011,-1.6011,-1.6338,0.0,-1.7099,-1.7797,-1.904,-2.048,-2.1095,-2.0999,-2.0999,-2.0999,-2.0999,-2.0999,-2.0999,-2.0999,-2.0999,-2.0999,-2.0999,-2.0999,-2.0999,-2.0999,-2.0999,-2.0999,-2.0999,-2.0999,-2.0999,-2.0999,-2.0999,-2.0999,-2.0999,-2.0999,-2.0999,-2.0999,-2.0999,-2.0999,-2.1063,-2.1229,-2.1189,-2.1464,-2.2668,-2.3007,-2.3466,-2.4659,-2.5043,-2.5221,-2.5221,-2.5221,-2.5067,-2.4632,-2.4784,-2.4614,-2.3585,-2.4199,-2.4338,-2.332,-2.3732,-2.3931,-2.3504,-2.3462,-2.3523,-2.3701,-2.3709,-2.377,-2.3948,-2.4603,-2.4512,-2.3576,-2.3709,-2.3615,-2.3226,-2.3103,-2.336,-2.3956,-2.3837,-2.3761,-2.0094,-1.9934,-1.9844,-2.0028,-1.9492,-1.8664,-1.7719,-1.6658,-1.586,-1.586,-1.5651,-1.5488,-1.5488,0.0,0.0,0.0,0.0,0.0,0.0,0.0,0.0,0.0,0.0,0.0,0.0,0.0,0.0,0.0,0.0,0.0,0.0,-1.532,-1.6067,-1.6067,-1.6067,-1.5983,-1.5799,-1.5799,-1.5971,-1.6278,-1.6562,-1.7399,-1.8725,-1.9866,-2.0465,-2.0657,-2.0473,-2.0379,-2.0379,-2.0379,-2.0379,-2.0379,-2.0379,-2.0379,-2.0379,-2.0379,-2.0379,-2.0379,-2.0379,-2.0379,-2.0379,-2.0379,-2.0379,-2.0379,-2.0379,-2.0379,-2.0379,-2.0379,-2.0379,-2.0379,-2.0379,-2.0379,-2.0379,-2.0379,-2.0782,-2.1418,-2.237,-2.2747,-2.3072,-2.3698,-2.4139,-2.4329,-2.4059,-2.4221,-2.4348,-2.4074,-2.4266,-2.4184,-2.3534,-2.4017,-2.4176,-2.3526,-2.3793,-2.3914,-2.3638,-2.3602,-2.3602,-2.3602,-2.3602,-2.3602,-2.3602,-2.4158,-2.4145,-2.3521,-2.3216,-2.3069,-2.3116,-2.2824,-2.2996,-2.3602,-2.3602,-2.3602,-1.9754,-1.964,-1.9528,-1.9348,-1.8384,-1.7479,-1.7346,-1.5844,-1.4452,-1.4289,-1.4237,-1.4237,-1.4237,0.0,0.0,0.0,0.0,0.0,0.0,0.0,0.0,0.0,0.0,0.0,0.0,0.0,0.0,0.0,0.0,0.0,-1.3701,-1.4961,-1.5639,-1.558,-1.5639,-1.5675,-1.5675,-1.561,-1.561,-1.5683,-1.6231,-1.7112,-1.8287,-1.9053,-1.9725,-2.0185,-1.9839,-1.9682,-1.9682,-1.9682,-1.9682,-1.9682,-1.9682,-1.9682,-1.9682,-1.9682,-1.9682,-1.9682,-1.9682,-1.9682,-1.9682,-1.9682,-1.9682,-1.9682,-1.9682,-1.9682,-1.9682,-1.9682,-1.9682,-1.9682,-1.9682,-1.9682,-1.9682,-1.9682,-2.0453,-2.134,-2.1854,-2.2171,-2.2355,-2.2386,-2.2929,-2.331,-2.2906,-2.3266,-2.3602,-2.3602,-2.3602,-2.3602,-2.3602,-2.3602,-2.3602,-2.3602,-2.3602,-2.3602,-2.3602,-2.3602,-2.3602,-2.3602,-2.3602,-2.3602,-2.3602,-2.3602,-2.3602,-2.3602,-2.2989,-2.2929,-2.3438,-2.2929,-2.2996,-2.3602,-2.3602,-2.3602,-1.8127,-1.8383,-1.8772,-1.9195,-1.8384,-1.7337,0.0,0.0,-1.4245,0.0,-1.319,-1.319,0.0,0.0,0.0,0.0,0.0,0.0,0.0,0.0,0.0,0.0,0.0,0.0,0.0,0.0,0.0,0.0,0.0,0.0,-1.3255,-1.4508,-1.5036,-1.469,-1.5006,-1.5195,-1.5195,-1.4845,-1.4845,-1.5209,-1.5506,-1.5922,-1.6503,-1.7721,-1.8831,-1.9782,-1.9718,-1.9682,-1.9682,-1.9682,-1.9682,-1.9682,-1.9682,-1.9682,-1.9682,-1.9682,-1.9682,-1.9682,-1.9682,-1.9682,-1.9682,-1.9682,-1.9682,-1.9682,-1.9682,-1.9682,-1.9682,-1.9682,-1.9682,-1.9682,-1.9682,-1.9682,-1.9682,-1.9682,-2.0235,-2.0971,-2.1613,-2.1323,-2.1283,-2.2412,-2.2757,-2.2944,-2.34,-2.3542,-2.3602,-2.3602,-2.3602,-2.3602,-2.3602,-2.3602,-2.3602,-2.3602,-2.3602,-2.3602,-2.3602,-2.3602,-2.3602,-2.3602,-2.3602,-2.3602,-2.3602,-2.3602,-2.3602,-2.3602,-2.2989,-2.2719,-2.2802,-2.2753,-2.2996,-2.3602,-2.3602,-2.3602,-1.8284,-1.8783,-1.9268,-1.943,-1.8481,-1.7426,-1.7088,-1.5582,-1.4147,-1.371,-1.3043,0.0,0.0,0.0,0.0,0.0,0.0,0.0,0.0,0.0,0.0,0.0,0.0,0.0,0.0,0.0,0.0,0.0,0.0,-1.2454,-1.2905,-1.3819,-1.4363,-1.4487,-1.4658,-1.4752,-1.4752,-1.4596,-1.4596,-1.4759,-1.4892,-1.5238,-1.5785,-1.6363,-1.7431,-1.8846,-1.9446,-1.9682,-1.9682,-1.9682,-1.9682,-1.9682,-1.9682,-1.9682,-1.9682,-1.9682,-1.9682,-1.9682,-1.9682,-1.9682,-1.9682,-1.9682,-1.9682,-1.9682,-1.9682,-1.9682,-1.9682,-1.9682,-1.9682,-1.9682,-1.9682,-1.9682,-1.9779,-2.0168,-2.0498,-2.0999,-2.2024,-2.1724,-2.1545,-2.2488,-2.2716,-2.2869,-2.3497,-2.3602,-2.3602,-2.3602,-2.3602,-2.3602,-2.3602,-2.3602,-2.3602,-2.3602,-2.3602,-2.3457,-2.3106,-2.3421,-2.3465,-2.3106,-2.3106,-2.3106,-2.3106,-2.2749,-2.2553,-2.2553,-2.2619,-2.2847,-2.3191,-2.2847,-2.2996,-2.3602,-2.3602,-2.3602,-1.827,-1.8821,-1.928,-1.9785,-1.8681,-1.7533,0.0,0.0,-1.4234,0.0,-1.2981,0.0,0.0,0.0,0.0,0.0,0.0,0.0,0.0,0.0,0.0,0.0,0.0,0.0,0.0,0.0,0.0,0.0,0.0,-1.1871,-1.2491,-1.3171,-1.3714,-1.4168,-1.4278,-1.4342,-1.4342,-1.4342,-1.4342,-1.4342,-1.4214,-1.4477,-1.5112,-1.5421,-1.6264,-1.7562,-1.8608,-1.9178,-1.9288,-1.9288,-1.9288,-1.9325,-1.9442,-1.9486,-1.9486,-1.9486,-1.9566,-1.9682,-1.9522,-1.9603,-1.9682,-1.9682,-1.9682,-1.9682,-1.9682,-1.9682,-1.9682,-1.9682,-1.9682,-1.9682,-1.9682,-1.9817,-2.0034,-2.0376,-2.0581,-2.1006,-2.2211,-2.2036,-2.1865,-2.2354,-2.231,-2.2408,-2.3018,-2.312,-2.312,-2.312,-2.312,-2.312,-2.312,-2.312,-2.312,-2.312,-2.312,-2.2943,-2.2491,-2.2853,-2.295,-2.2445,-2.2603,-2.2603,-2.2445,-2.2146,-2.1845,-2.1697,-2.2205,-2.2767,-2.337,-2.291,-2.2925,-2.3377,-2.3223,-2.312,-1.7257,-1.7547,-1.7956,-2.0178,-1.9116,-1.7613,0.0,0.0,-1.4613,-1.31,-1.2718,0.0,0.0,0.0,0.0,0.0,0.0,0.0,0.0,0.0,0.0,0.0,0.0,0.0,0.0,0.0,0.0,0.0,0.0,-1.1152,-1.1987,-1.2678,-1.3121,-1.3242,-1.3709,-1.3927,-1.3927,-1.3927,-1.3927,-1.3927,-1.3486,-1.3533,-1.4013,-1.5185,-1.5755,-1.5878,-1.695,-1.772,-1.8178,-1.8178,-1.8178,-1.8217,-1.8734,-1.893,-1.893,-1.893,-1.9251,-1.9646,-1.9125,-1.9288,-1.9682,-1.9682,-1.9682,-1.9682,-1.9682,-1.9682,-1.9682,-1.9682,-1.9682,-1.9682,-1.9682,-2.0168,-2.0503,-1.9875,-2.0249,-2.0882,-2.159,-2.1713,-2.1715,-2.1758,-2.1304,-2.1073,-2.1694,-2.1798,-2.1798,-2.1798,-2.1798,-2.1798,-2.1798,-2.1798,-2.1798,-2.1798,-2.1798,-2.1798,-2.1751,-2.1798,-2.1798,-2.1751,-2.2353,-2.2399,-2.1798,-2.2346,-2.2353,-2.1697,-2.1716,-2.2065,-2.2747,-2.2718,-2.2718,-2.274,-2.2086,-2.1798,-1.6947,-1.7533,-1.8283,-1.8966,-1.8279,-1.7504,-1.7816,-1.6675,-1.524,-1.4197,-1.3169,0.0,0.0,0.0,0.0,0.0,0.0,0.0,0.0,0.0,0.0,0.0,0.0,0.0,0.0,0.0,0.0,0.0,0.0,0.0,-1.1121,-1.1388,-1.1884,-1.2674,-1.2863,-1.3088,-1.3452,-1.3452,-1.3452,-1.3452,-1.3295,-1.3295,-1.3465,-1.3903,-1.4323,-1.4726,-1.5431,-1.6661,-1.8099,-1.8099,-1.8099,-1.8138,-1.8295,-1.8373,-1.8373,-1.8373,-1.8496,-1.865,-1.8458,-1.8496,-1.865,-1.865,-1.865,-1.865,-1.865,-1.865,-1.865,-1.865,-1.865,-1.865,-1.865,-1.9127,-1.9673,-2.0265,-2.0901,-2.1426,-2.1664,-2.1706,-2.1566,-2.1195,-2.1236,-2.1462,-2.1662,-2.1697,-2.1697,-2.1697,-2.1697,-2.1697,-2.1697,-2.1697,-2.1697,-2.1697,-2.1697,-2.1561,-2.1168,-2.1479,-2.1513,-2.1161,-2.1369,-2.1362,-2.1113,-2.0917,-2.072,-2.0471,-2.0917,-2.1438,-2.2053,-2.2053,-2.2053,-2.2046,-2.1798,-2.1697,-1.6752,-1.7405,-1.8346,0.0,-1.8058,-1.7637,-1.8431,-1.7316,-1.5947,-1.5251,-1.3857,0.0,0.0,0.0,0.0,0.0,0.0,0.0,0.0,0.0,0.0,0.0,0.0,0.0,0.0,0.0,0.0,0.0,0.0,0.0,-1.0662,-1.0694,-1.1207,-1.2372,-1.241,-1.2674,-1.3192,-1.3198,-1.3198,-1.3198,-1.3198,-1.3198,-1.321,-1.3427,-1.3703,-1.4116,-1.467,-1.5802,-1.731,-1.7505,-1.7544,-1.7585,-1.7747,-1.782,-1.782,-1.782,-1.794,-1.8059,-1.79,-1.794,-1.8099,-1.8099,-1.8099,-1.8099,-1.8099,-1.8099,-1.8147,-1.8307,-1.8362,-1.8418,-1.8624,-1.8959,-1.9493,-2.0548,-2.0914,-2.1037,-2.1037,-2.1238,-2.1274,-2.09,-2.0934,-2.1037,-2.1037,-2.1037,-2.1037,-2.1037,-2.1037,-2.1037,-2.1037,-2.1037,-2.1037,-2.1037,-2.1037,-2.0904,-2.0497,-2.0812,-2.0904,-2.0497,-2.0703,-2.0703,-2.0446,-2.0251,-2.0048,-1.9805,-2.0251,-2.0677,-2.1037,-2.1287,-2.139,-2.1383,-2.1183,-2.1037,0.0,0.0,0.0,0.0,0.0,0.0,-1.9857,0.0,-1.6614,-1.6028,0.0,0.0,0.0,0.0,0.0,0.0,0.0,0.0,0.0,0.0,0.0,0.0,0.0,0.0,0.0,0.0,0.0,0.0,0.0,-1.0131,-1.0643,-1.0687,-1.1201,-1.2322,-1.2391,-1.2634,-1.3167,-1.3192,-1.3198,-1.3198,-1.3198,-1.3198,-1.3217,-1.3821,-1.406,-1.4091,-1.4645,-1.5153,-1.5687,-1.6264,-1.6503,-1.6558,-1.707,-1.7271,-1.7271,-1.7271,-1.7626,-1.798,-1.747,-1.7626,-1.8059,-1.8059,-1.8059,-1.8059,-1.8059,-1.8059,-1.815,-1.8707,-1.8879,-1.8987,-1.9638,-1.9773,-1.9919,-2.0608,-2.0238,-1.9786,-1.9805,-2.0302,-2.0752,-2.0752,-2.0251,-1.9805,-1.9805,-1.9805,-1.9805,-1.9805,-1.9805,-1.9805,-1.9805,-1.9805,-1.9805,-1.9805,-1.9805,-1.9805,-1.9805,-1.9805,-1.9805,-1.9805,-2.0403,-2.0503,-1.9856,-2.0403,-2.0446,-1.9798,-1.9805,-1.9805,-1.9805,-2.0446,-2.0752,-2.0746,-2.0099,-1.9805,-1.7723,0.0,0.0,0.0,0.0,0.0,0.0,0.0,0.0,-1.6055,0.0,0.0,0.0,0.0,0.0,0.0,0.0,0.0,0.0,0.0,0.0,0.0,0.0,0.0,0.0,0.0,0.0,0.0,-0.9899,-0.9968,-1.0119,-1.0481,-1.0838,-1.1151,-1.1983,-1.2485,-1.2636,-1.3004,-1.3198,-1.3198,-1.3198,-1.3198,-1.321,-1.3354,-1.3458,-1.349,-1.4079,-1.44,-1.4614,-1.553,-1.6158,-1.6515,-1.6674,-1.6716,-1.6716,-1.6716,-1.6837,-1.6915,-1.6752,-1.6837,-1.6957,-1.6957,-1.6957,-1.6957,-1.6957,-1.6957,-1.7073,-1.7667,-1.7828,-1.801,-1.9001,-1.8929,-1.8897,-1.9832,-1.9617,-1.9346,-1.9723,-1.9952,-2.0105,-2.0105,-1.9952,-1.9805,-1.9805,-1.9805,-1.9805,-1.9805,-1.9805,-1.9805,-1.9805,-1.9805,-1.9805,-1.9805,-1.9805,-1.9805,-1.9805,-1.9805,-1.9805,-1.9805,-1.9946,-2.0003,-1.9798,-2.0003,-2.0003,-1.9805,-1.9805,-1.9805,-1.9805,-2.0003,-2.0105,-2.0055,-1.9901,-1.9805,-1.8241,-1.845,-1.8832,-1.8011,0.0,0.0,-1.7995,-1.706,0.0,0.0,0.0,0.0,0.0,0.0,0.0,0.0,0.0,0.0,0.0,0.0,0.0,0.0,0.0,0.0,0.0,0.0,0.0,-0.9918,-0.9899,-0.9899,-0.9899,-1.0207,-1.0456,-1.0687,-1.1332,-1.1933,-1.2404,-1.2697,-1.2973,-1.3198,-1.3198,-1.3198,-1.3198,-1.3198,-1.3198,-1.3217,-1.3571,-1.3877,-1.4135,-1.4777,-1.5473,-1.6195,-1.6427,-1.6515,-1.6515,-1.6515,-1.6515,-1.6515,-1.6515,-1.6515,-1.6515,-1.6515,-1.6515,-1.6515,-1.6515,-1.6515,-1.6685,-1.7495,-1.8047,-1.8543,-1.9183,-1.9114,-1.9032,-1.9654,-1.9572,-1.9434,-1.9736,-1.9805,-1.9805,-1.9805,-1.9805,-1.9805,-1.9805,-1.9805,-1.9805,-1.9805,-1.9805,-1.9805,-1.9805,-1.9805,-1.9805,-1.9805,-1.9805,-1.9805,-1.9805,-1.9805,-1.9805,-1.9805,-1.9805,-1.9805,-1.9805,-1.9805,-1.9805,-1.9805,-1.9805,-1.9805,-1.9805,-1.9805,-1.9805,-1.9805,-1.9805,-1.9805,-1.8906,-1.9039,-1.9513,-1.909,-1.8184,0.0,-1.9543,-1.8351,-1.7201,0.0,0.0,0.0,0.0,0.0,0.0,0.0,0.0,0.0,0.0,0.0,0.0,0.0,0.0,0.0,-1.0794,-1.0794,-1.0556,-1.0031,-0.9937,-0.9899,-0.9899,-0.9899,-1.0099,-1.0532,-1.0641,-1.1207,-1.2239,-1.2346,-1.2659,-1.3198,-1.3198,-1.3198,-1.3198,-1.3198,-1.3198,-1.3198,-1.3198,-1.3509,-1.4003,-1.406,-1.4739,-1.5743,-1.6233,-1.6465,-1.6515,-1.6515,-1.6515,-1.6515,-1.6515,-1.6515,-1.6515,-1.6515,-1.6515,-1.6515,-1.6515,-1.6515,-1.6741,-1.7815,-1.8882,-1.9717,-1.9717,-1.9717,-1.9736,-1.9786,-1.9754,-1.9736,-1.9792,-1.9805,-1.9805,-1.9805,-1.9805,-1.9805,-1.9805,-1.9805,-1.9805,-1.9805,-1.9805,-1.9805,-1.9805,-1.9805,-1.9805,-1.9805,-1.9805,-1.9805,-1.9805,-1.9805,-1.9805,-1.9805,-1.9805,-1.9805,-1.9805,-1.9805,-1.9805,-1.9805,-1.9805,-1.9805,-1.9805,-1.9805,-1.9805,-1.9805,-1.9805,-1.9805,-2.2178,-2.2174,-2.1912,-2.0446,-2.0306,0.0,-1.8019,-1.7219,-1.6817,0.0,-1.5508,0.0,0.0,0.0,0.0,0.0,0.0,0.0,0.0,0.0,0.0,0.0,0.0,0.0,0.0,-1.1418,-1.1186,-1.0581,-1.015,-0.9899,-0.9899,-0.9899,-0.9819,-0.9659,-1.0325,-1.0868,-1.1275,-1.2019,-1.2659,-1.3198,-1.3198,-1.3198,-1.3198,-1.3198,-1.3198,-1.3198,-1.3198,-1.3261,-1.3427,-1.3902,-1.4739,-1.5706,-1.5812,-1.6126,-1.6515,-1.6515,-1.6515,-1.6515,-1.6515,-1.6515,-1.6515,-1.6515,-1.6515,-1.6515,-1.6515,-1.6515,-1.6666,-1.735,-1.8329,-1.9183,-1.9183,-1.9183,-1.9284,-1.9704,-1.9484,-1.929,-1.9717,-1.9805,-1.9805,-1.9805,-1.9805,-1.9805,-1.9805,-1.9805,-1.9805,-1.9805,-1.9805,-1.9805,-1.9805,-1.9805,-1.9805,-1.9805,-1.9805,-1.9805,-1.9805,-1.9805,-1.9805,-1.9805,-1.9805,-1.9805,-1.9805,-1.9805,-1.9805,-1.9805,-1.9805,-1.9805,-1.9805,-1.9805,-1.9805,-1.9805,-1.9805,-1.9805,-2.3223,-2.3079,-2.2825,-2.1918,0.0,0.0,0.0,-1.8334,-1.7636,-1.7563,-1.6642,-1.5772,-1.5527,0.0,0.0,0.0,0.0,0.0,0.0,0.0,0.0,0.0,0.0,0.0,0.0,-1.2002,-1.1763,-1.1199,-1.0897,-1.0747,-1.0747,-1.03,-0.9982,-0.9817,-0.9983,-1.0398,-1.0989,-1.1695,-1.2442,-1.3198,-1.3198,-1.3198,-1.3198,-1.3198,-1.3198,-1.3198,-1.3198,-1.3198,-1.3217,-1.3534,-1.4167,-1.4972,-1.548,-1.6032,-1.6515,-1.6515,-1.6515,-1.6515,-1.6515,-1.6515,-1.6515,-1.6515,-1.6515,-1.6515,-1.6515,-1.6716,-1.7011,-1.73,-1.7978,-1.8681,-1.8908,-1.8977,-1.9158,-1.9679,-1.9604,-1.9484,-1.9742,-1.9805,-1.9805,-1.9805,-1.9805,-1.9805,-1.9805,-1.9805,-1.9805,-1.9805,-1.9805,-1.9805,-1.9805,-1.9805,-1.9805,-1.9805,-1.9805,-1.9805,-1.9805,-1.9805,-1.9805,-1.9805,-1.9805,-1.9805,-1.9805,-1.9805,-1.9805,-1.9805,-1.9805,-1.9805,-1.9805,-1.9805,-1.9805,-1.9805,-1.9805,-1.9805,-2.331,-2.3223,-2.3244,-2.2859,0.0,-2.0951,0.0,0.0,0.0,-1.8781,-1.8038,0.0,0.0,0.0,0.0,0.0,0.0,0.0,0.0,0.0,0.0,0.0,0.0,0.0,0.0,-1.2473,-1.2228,-1.1782,-1.1644,-1.1588,-1.1588,-1.0778,-1.0255,-1.0096,-0.9771,-0.9984,-1.0734,-1.1286,-1.2053,-1.306,-1.306,-1.3123,-1.3198,-1.3198,-1.3198,-1.3198,-1.3198,-1.3198,-1.3198,-1.3198,-1.3559,-1.4186,-1.5186,-1.5875,-1.6371,-1.6478,-1.6515,-1.6515,-1.6515,-1.6515,-1.6515,-1.6515,-1.6515,-1.6515,-1.6515,-1.6848,-1.7218,-1.7218,-1.7614,-1.8173,-1.8725,-1.8895,-1.9158,-1.9679,-1.9805,-1.9805,-1.9805,-1.9805,-1.9805,-1.9805,-1.9805,-1.9805,-1.9805,-1.9805,-1.9805,-1.9805,-1.9805,-1.9805,-1.9805,-1.9805,-1.9805,-1.9805,-1.9805,-1.9805,-1.9805,-1.9805,-1.9805,-1.9805,-1.9805,-1.9805,-1.9805,-1.9805,-1.9805,-1.9805,-1.9805,-1.9805,-1.9805,-1.9805,-1.9805,-1.9805,-1.9805,-1.9805,0.0,0.0,0.0,0.0,-2.2848,0.0,0.0,0.0,-1.942,-1.7684,0.0,0.0,0.0,0.0,0.0,0.0,0.0,0.0,0.0,0.0,0.0,0.0,0.0,0.0,0.0,0.0,-1.2385,-1.2322,-1.1864,-1.1588,-1.1588,-1.1064,-1.0393,-0.9686,-0.9908,-0.9972,-0.9841,-1.0603,-1.1514,-1.2579,-1.2579,-1.2797,-1.3198,-1.3198,-1.3198,-1.3198,-1.3198,-1.3198,-1.3198,-1.3198,-1.3559,-1.4148,-1.4765,-1.5304,-1.585,-1.6333,-1.6515,-1.6515,-1.6515,-1.6515,-1.6515,-1.6515,-1.6515,-1.6515,-1.6515,-1.6566,-1.6616,-1.6616,-1.703,-1.7601,-1.8154,-1.8656,-1.9158,-1.9679,-1.9805,-1.9805,-1.9805,-1.9805,-1.9805,-1.9805,-1.9805,-1.9805,-1.9805,-1.9805,-1.9805,-1.9805,-1.9805,-1.9805,-1.9805,-1.9805,-1.9805,-1.9805,-1.9805,-1.9805,-1.9805,-1.9805,-1.9805,-1.9805,-1.9805,-1.9805,-1.9805,-1.9805,-1.9805,-1.9805,-1.9805,-1.9805,-1.9805,-1.9805,-1.9805,-1.9805,-1.9805,-1.9805,0.0,0.0,0.0,0.0,0.0,0.0,-2.0864,0.0,-1.9864,0.0,0.0,0.0,0.0,0.0,0.0,0.0,-1.4272,0.0,0.0,0.0,0.0,0.0,0.0,0.0,0.0,0.0,0.0,0.0,0.0,-1.3046,-1.3046,-1.2037,-1.1148,-1.0489,-0.9813,-0.9545,-0.971,-1.0029,-1.0703,-1.1693,-1.197,-1.2349,-1.2797,-1.3088,-1.3198,-1.3198,-1.3198,-1.3198,-1.3198,-1.3198,-1.3336,-1.3628,-1.4217,-1.4966,-1.5724,-1.5957,-1.6245,-1.6515,-1.6515,-1.6515,-1.6515,-1.6515,-1.6515,-1.6515,-1.6515,-1.6515,-1.6515,-1.6515,-1.6691,-1.7011,-1.7582,-1.8135,-1.8687,-1.9227,-1.9585,-1.9805,-1.9805,-1.9805,-1.9805,-1.9805,-1.9805,-1.9805,-1.9805,-1.9805,-1.9805,-1.9805,-1.9805,-1.9805,-1.9805,-1.9805,-1.9805,-1.9805,-1.9805,-1.9805,-1.9805,-1.9805,-1.9805,-1.9805,-1.9805,-1.9805,-1.9805,-1.9805,-1.9805,-1.9805,-1.9805,-1.9805,-1.9805,-1.9805,-1.9805,-1.9805,-1.9805,-1.9805,-2.2411,0.0,0.0,0.0,0.0,0.0,0.0,0.0,0.0,0.0,0.0,0.0,0.0,0.0,0.0,-1.5172,0.0,-1.4315,0.0,0.0,0.0,0.0,0.0,0.0,0.0,0.0,0.0,0.0,0.0,0.0,-1.4299,-1.3027,-1.1995,-1.1347,-1.0165,-0.9541,-0.9517,-0.9607,-1.0166,-1.1098,-1.1438,-1.1923,-1.2508,-1.2978,-1.3129,-1.3019,-1.3123,-1.3198,-1.3198,-1.3198,-1.3198,-1.3235,-1.3665,-1.4444,-1.5285,-1.558,-1.595,-1.6314,-1.6465,-1.6515,-1.6515,-1.6515,-1.6515,-1.6515,-1.6515,-1.6515,-1.6515,-1.6515,-1.6515,-1.6647,-1.7231,-1.7796,-1.8348,-1.8845,-1.9422,-1.9805,-1.9805,-1.9805,-1.9805,-1.9805,-1.9805,-1.9805,-1.9805,-1.9805,-1.9805,-1.9805,-1.9805,-1.9805,-1.9805,-1.9805,-1.9805,-1.9805,-1.9805,-1.9805,-1.9805,-1.9805,-1.9805,-1.9805,-1.9805,-1.9805,-1.9805,-1.9805,-1.9805,-1.9805,-1.9805,-1.9805,-1.9805,-1.9805,-1.9805,-1.9805,-1.9805,-1.9805,0.0,0.0,0.0,-2.0889,0.0,0.0,0.0,0.0,-2.0371,0.0,0.0,0.0,0.0,0.0,-1.7652,-1.595,-1.5503,0.0,0.0,0.0,0.0,0.0,0.0,0.0,0.0,0.0,0.0,0.0,0.0,0.0,-1.4853,-1.3848,-1.2822,-1.1898,-1.127,-1.0334,-0.9043,-0.9404,-1.0108,-1.1098,-1.1132,-1.1607,-1.2508,-1.2978,-1.2943,-1.2544,-1.3012,-1.3198,-1.3198,-1.3198,-1.3198,-1.3198,-1.3217,-1.3603,-1.4267,-1.5304,-1.5706,-1.5793,-1.6327,-1.6515,-1.6515,-1.6515,-1.6515,-1.6515,-1.6515,-1.6515,-1.6515,-1.6515,-1.6515,-1.6647,-1.7231,-1.7796,-1.8348,-1.8845,-1.9422,-1.9805,-1.9805,-1.9805,-1.9805,-1.9805,-1.9805,-1.9805,-1.9805,-1.9805,-1.9805,-1.9805,-1.9805,-1.9805,-1.9805,-1.9805,-1.9805,-1.9805,-1.9805,-1.9805,-1.9805,-1.9805,-1.9805,-1.9805,-1.9805,-1.9805,-1.9805,-1.9805,-1.9805,-1.9805,-1.9805,-1.9805,-1.9805,-1.9805,-1.9805,-1.9805,-1.9805,-1.9805,0.0,0.0,-1.9394,-1.9668,0.0,0.0,0.0,0.0,0.0,0.0,0.0,0.0,0.0,-1.9106,-1.841,-1.7725,-1.7004,-1.6309,0.0,0.0,0.0,0.0,0.0,0.0,0.0,0.0,0.0,0.0,-1.484,0.0,0.0,-1.4124,-1.3048,-1.2387,-1.0882,-1.003,-0.9943,-0.9178,-0.9261,-1.0167,-1.0142,-1.044,-1.1061,-1.1527,-1.1999,-1.2442,-1.2335,-1.2639,-1.3198,-1.3198,-1.3198,-1.3198,-1.3198,-1.3311,-1.364,-1.4745,-1.5385,-1.5775,-1.6327,-1.6515,-1.6515,-1.6515,-1.6515,-1.6515,-1.6515,-1.6515,-1.6515,-1.6515,-1.6515,-1.6566,-1.676,-1.7237,-1.7802,-1.8348,-1.8894,-1.9384,-1.9723,-1.9805,-1.9805,-1.9805,-1.9805,-1.9805,-1.9805,-1.9805,-1.9805,-1.9805,-1.9805,-1.9805,-1.9805,-1.9805,-1.9805,-1.9805,-1.9805,-1.9805,-1.9805,-1.9805,-1.9805,-1.9805,-1.9805,-1.9805,-1.9805,-1.9805,-1.9805,-1.9805,-1.9805,-1.9805,-1.9805,-1.9805,-1.9805,-1.9805,-1.9805,-1.9805,-1.8782,-1.8391,0.0,-1.8701,-1.8838,0.0,-1.9941,0.0,0.0,0.0,0.0,0.0,0.0,0.0,-1.919,-1.8745,-1.7889,-1.6795,0.0,-1.5074,0.0,0.0,0.0,0.0,0.0,0.0,-1.4674,-1.5549,-1.5182,0.0,0.0,0.0,-1.3569,-1.2901,-1.1218,-1.0272,-1.0134,-0.9114,-0.9048,-0.9901,-0.9576,-0.9783,-1.0481,-1.0833,-1.1306,-1.1849,-1.1974,-1.2361,-1.2922,-1.3117,-1.3198,-1.3198,-1.3198,-1.3198,-1.3329,-1.4469,-1.5348,-1.6038,-1.6396,-1.6515,-1.6515,-1.6515,-1.6515,-1.6515,-1.6515,-1.6515,-1.6515,-1.6515,-1.6515,-1.6515,-1.6515,-1.6948,-1.7476,-1.7827,-1.8486,-1.9071,-1.9453,-1.9673,-1.9805,-1.9805,-1.9805,-1.9805,-1.9805,-1.9805,-1.9805,-1.9805,-1.9805,-1.9805,-1.9805,-1.9805,-1.9805,-1.9805,-1.9805,-1.9805,-1.9805,-1.9805,-1.9695,-1.9423,-1.9417,-1.9313,-1.9038,-1.9038,-1.9038,-1.9038,-1.9261,-1.9417,-1.9417,-1.9689,-1.9805,-1.9805,-1.9805,-1.9805]}]]